[[{"header":{"parameterUnit":"m.s-1","parameterCategory":1,"la1":30.6,"la2":29.2853,"lo1":-89.7004,"lo2":-87.6739,"dy":0.0162,"dx":0.0183,"nx":112,"ny":82,"refTime":"2026-05-24T12:00:00:Z","depth":0,"parameterNumber":2,"parameterNumberName":"U-component_of_WINDS"},"data":[0.0,0.0,0.0,0.0,0.0,0.0,0.0,0.0,0.0,0.0,0.0,0.0,0.0,0.0,0.0,0.0,0.0,0.0,0.0,0.0,0.0,0.0,0.0,0.0,0.0,0.0,0.0,0.0,0.0,0.0,0.0,0.0,0.0,0.0,0.0,0.0,0.0,0.0,0.0,0.0,0.0,0.0,0.0,0.0,0.0,0.0,0.0,0.0,0.0,0.0,0.0,0.0,0.0,0.0,0.0,0.0,0.0,0.0,0.0,0.0,0.0,0.0,0.0,0.0,0.0,0.0,0.0,0.0,0.0,0.0,0.0,0.0,0.0,0.0,0.0,0.0,0.0,0.0,0.0,0.0,0.0,0.0,0.0,0.0,0.0,0.0,0.0,0.0,0.0,0.0,0.0,-4.1441,-4.5618,-4.7733,-4.687,-4.6007,-4.2743,-3.6191,0.0,0.0,0.0,0.0,0.0,0.0,0.0,0.0,0.0,0.0,0.0,0.0,0.0,0.0,0.0,0.0,0.0,0.0,0.0,0.0,0.0,0.0,0.0,0.0,0.0,0.0,0.0,0.0,0.0,0.0,0.0,0.0,0.0,0.0,0.0,0.0,0.0,0.0,0.0,0.0,0.0,0.0,0.0,0.0,0.0,0.0,0.0,0.0,0.0,0.0,0.0,0.0,0.0,0.0,0.0,0.0,0.0,0.0,0.0,0.0,0.0,0.0,0.0,0.0,0.0,0.0,0.0,0.0,0.0,0.0,0.0,0.0,0.0,0.0,0.0,0.0,0.0,0.0,0.0,0.0,0.0,0.0,0.0,0.0,0.0,0.0,0.0,0.0,0.0,0.0,0.0,0.0,0.0,0.0,0.0,0.0,0.0,0.0,0.0,0.0,0.0,0.0,0.0,0.0,-3.733,-4.4282,-4.731,-4.8274,-4.6904,-4.5534,-4.2448,-3.6965,0.0,0.0,0.0,0.0,0.0,0.0,0.0,0.0,0.0,0.0,0.0,0.0,0.0,0.0,0.0,0.0,0.0,0.0,0.0,0.0,0.0,0.0,0.0,0.0,0.0,0.0,0.0,0.0,0.0,0.0,0.0,0.0,0.0,0.0,0.0,0.0,0.0,0.0,0.0,0.0,0.0,0.0,0.0,0.0,0.0,0.0,0.0,0.0,0.0,0.0,0.0,0.0,0.0,0.0,0.0,0.0,0.0,0.0,0.0,0.0,0.0,0.0,0.0,0.0,0.0,0.0,0.0,0.0,0.0,0.0,0.0,0.0,0.0,0.0,0.0,0.0,0.0,0.0,0.0,0.0,0.0,0.0,0.0,0.0,0.0,0.0,0.0,0.0,0.0,0.0,0.0,0.0,0.0,0.0,0.0,0.0,0.0,0.0,0.0,0.0,0.0,0.0,0.0,-3.6806,-4.0223,-4.5703,-4.7564,-4.797,-4.6887,-4.5043,-4.1897,-3.71,-3.3902,0.0,0.0,0.0,0.0,0.0,0.0,0.0,0.0,0.0,0.0,0.0,0.0,0.0,0.0,0.0,0.0,0.0,0.0,0.0,0.0,0.0,0.0,0.0,0.0,0.0,0.0,0.0,0.0,0.0,0.0,0.0,0.0,0.0,0.0,0.0,0.0,0.0,0.0,0.0,0.0,0.0,0.0,0.0,0.0,0.0,0.0,0.0,0.0,0.0,0.0,0.0,0.0,0.0,0.0,0.0,0.0,0.0,0.0,0.0,0.0,0.0,0.0,0.0,0.0,0.0,0.0,0.0,0.0,0.0,0.0,0.0,0.0,0.0,0.0,0.0,0.0,0.0,0.0,0.0,0.0,0.0,0.0,0.0,0.0,0.0,0.0,0.0,0.0,0.0,0.0,0.0,0.0,0.0,0.0,0.0,0.0,0.0,0.0,0.0,0.0,0.0,0.0,-4.0257,-4.2963,-4.6194,-4.7208,-4.7344,-4.6599,-4.4147,-4.0967,-3.7049,-3.3347,0.0,0.0,0.0,0.0,0.0,0.0,0.0,0.0,0.0,0.0,0.0,0.0,0.0,0.0,0.0,0.0,0.0,0.0,0.0,0.0,0.0,0.0,0.0,0.0,0.0,0.0,0.0,0.0,0.0,0.0,0.0,0.0,0.0,0.0,0.0,0.0,0.0,0.0,0.0,0.0,0.0,0.0,0.0,0.0,0.0,0.0,0.0,0.0,0.0,0.0,0.0,0.0,0.0,0.0,0.0,0.0,0.0,0.0,0.0,0.0,0.0,0.0,0.0,0.0,0.0,0.0,0.0,0.0,0.0,0.0,0.0,0.0,0.0,0.0,0.0,0.0,0.0,0.0,0.0,0.0,0.0,0.0,0.0,0.0,0.0,0.0,0.0,0.0,0.0,0.0,0.0,0.0,0.0,0.0,0.0,0.0,0.0,0.0,0.0,0.0,0.0,0.0,-4.0164,-4.3882,-4.5602,-4.6447,-4.6583,-4.5838,-4.2412,-3.9326,-3.6948,-3.2658,0.0,0.0,0.0,0.0,0.0,0.0,0.0,0.0,0.0,0.0,0.0,0.0,0.0,0.0,0.0,0.0,0.0,0.0,0.0,0.0,0.0,0.0,0.0,0.0,0.0,0.0,0.0,0.0,0.0,0.0,0.0,0.0,0.0,0.0,0.0,0.0,0.0,0.0,0.0,0.0,0.0,0.0,0.0,0.0,0.0,0.0,0.0,0.0,0.0,0.0,0.0,0.0,0.0,0.0,0.0,0.0,0.0,0.0,0.0,0.0,0.0,0.0,0.0,0.0,0.0,0.0,0.0,0.0,0.0,0.0,0.0,0.0,0.0,0.0,0.0,0.0,0.0,0.0,0.0,0.0,0.0,0.0,0.0,0.0,0.0,0.0,0.0,0.0,0.0,0.0,0.0,0.0,0.0,0.0,0.0,0.0,0.0,0.0,0.0,0.0,0.0,0.0,-3.8963,-4.2446,0.0,-4.5957,-4.6007,-4.572,-4.3098,-4.0138,-3.6998,0.0,0.0,0.0,0.0,0.0,0.0,0.0,0.0,0.0,0.0,0.0,0.0,0.0,0.0,0.0,0.0,0.0,0.0,0.0,0.0,0.0,0.0,0.0,0.0,0.0,0.0,0.0,0.0,0.0,0.0,0.0,0.0,0.0,0.0,0.0,0.0,0.0,0.0,0.0,0.0,0.0,0.0,0.0,0.0,0.0,0.0,0.0,0.0,0.0,0.0,0.0,0.0,0.0,0.0,0.0,0.0,0.0,0.0,0.0,0.0,0.0,0.0,0.0,0.0,0.0,0.0,0.0,0.0,0.0,0.0,0.0,0.0,0.0,0.0,0.0,0.0,0.0,0.0,0.0,0.0,0.0,0.0,0.0,0.0,0.0,0.0,0.0,0.0,0.0,0.0,0.0,0.0,0.0,0.0,0.0,0.0,0.0,0.0,0.0,0.0,0.0,0.0,-3.5537,-3.8802,-4.1982,0.0,-4.5348,-4.5348,-4.5348,-4.2412,-3.9312,-3.6377,0.0,0.0,0.0,0.0,0.0,0.0,0.0,0.0,0.0,0.0,0.0,0.0,0.0,0.0,0.0,0.0,0.0,0.0,0.0,0.0,0.0,0.0,0.0,0.0,0.0,0.0,0.0,0.0,0.0,0.0,0.0,0.0,0.0,0.0,0.0,0.0,0.0,0.0,0.0,0.0,0.0,0.0,0.0,0.0,0.0,0.0,0.0,0.0,0.0,0.0,0.0,0.0,0.0,0.0,0.0,0.0,0.0,0.0,0.0,0.0,0.0,0.0,0.0,0.0,0.0,0.0,0.0,0.0,0.0,0.0,0.0,0.0,0.0,0.0,0.0,0.0,0.0,0.0,0.0,0.0,0.0,0.0,0.0,0.0,0.0,0.0,0.0,0.0,0.0,0.0,0.0,0.0,0.0,0.0,0.0,0.0,0.0,0.0,0.0,0.0,0.0,0.0,-3.6423,-4.0028,-4.2905,-4.4445,-4.4615,-4.4615,-4.4615,-3.983,-3.6299,0.0,0.0,0.0,0.0,0.0,0.0,0.0,0.0,0.0,0.0,0.0,0.0,0.0,0.0,0.0,0.0,0.0,0.0,0.0,0.0,0.0,0.0,0.0,0.0,0.0,0.0,0.0,0.0,0.0,0.0,0.0,0.0,0.0,0.0,0.0,0.0,0.0,0.0,0.0,0.0,0.0,0.0,0.0,0.0,0.0,0.0,0.0,0.0,0.0,0.0,0.0,0.0,0.0,0.0,0.0,0.0,0.0,0.0,0.0,0.0,0.0,0.0,0.0,0.0,0.0,0.0,0.0,0.0,0.0,0.0,0.0,0.0,0.0,0.0,0.0,0.0,0.0,0.0,0.0,0.0,0.0,0.0,0.0,0.0,0.0,0.0,0.0,0.0,0.0,0.0,0.0,0.0,0.0,0.0,0.0,0.0,0.0,0.0,0.0,0.0,0.0,0.0,0.0,-3.6423,-4.0028,-4.2905,-4.4445,-4.4615,-4.4615,-4.4615,-4.1265,-3.7978,-3.5079,0.0,0.0,0.0,0.0,0.0,0.0,0.0,0.0,0.0,0.0,0.0,0.0,0.0,0.0,0.0,0.0,0.0,0.0,0.0,0.0,0.0,0.0,0.0,0.0,0.0,0.0,0.0,0.0,0.0,0.0,0.0,0.0,0.0,0.0,0.0,0.0,0.0,0.0,0.0,0.0,0.0,0.0,0.0,0.0,0.0,0.0,0.0,0.0,0.0,0.0,0.0,0.0,0.0,0.0,0.0,0.0,0.0,0.0,0.0,0.0,0.0,0.0,0.0,0.0,0.0,0.0,0.0,0.0,0.0,0.0,0.0,0.0,0.0,0.0,0.0,0.0,0.0,0.0,0.0,0.0,0.0,0.0,0.0,0.0,0.0,0.0,0.0,0.0,0.0,0.0,0.0,0.0,0.0,0.0,0.0,0.0,0.0,0.0,0.0,0.0,0.0,0.0,-3.6755,-3.99,-4.2362,-4.3913,-4.3768,-4.3575,-4.3575,-4.0887,-3.7838,-3.466,0.0,0.0,0.0,0.0,0.0,0.0,0.0,0.0,0.0,0.0,0.0,0.0,0.0,0.0,0.0,0.0,0.0,0.0,0.0,0.0,0.0,0.0,0.0,0.0,0.0,0.0,0.0,0.0,0.0,0.0,0.0,0.0,0.0,0.0,0.0,0.0,0.0,0.0,0.0,0.0,0.0,0.0,0.0,0.0,0.0,0.0,0.0,0.0,0.0,0.0,0.0,0.0,0.0,0.0,0.0,0.0,0.0,0.0,0.0,0.0,0.0,0.0,0.0,0.0,0.0,0.0,0.0,0.0,0.0,0.0,0.0,0.0,0.0,0.0,0.0,0.0,0.0,0.0,0.0,0.0,0.0,0.0,0.0,0.0,0.0,0.0,0.0,0.0,0.0,0.0,0.0,0.0,0.0,0.0,0.0,0.0,0.0,0.0,0.0,0.0,0.0,0.0,-3.7307,-3.9731,-4.1601,-4.3158,-4.2583,-4.2093,-4.1997,-3.9345,-3.6613,-3.4063,0.0,0.0,0.0,0.0,0.0,0.0,0.0,0.0,0.0,0.0,0.0,0.0,0.0,0.0,0.0,0.0,0.0,0.0,0.0,0.0,0.0,0.0,0.0,0.0,0.0,0.0,0.0,0.0,0.0,0.0,0.0,0.0,0.0,0.0,0.0,0.0,0.0,0.0,0.0,0.0,0.0,0.0,0.0,0.0,0.0,0.0,0.0,0.0,0.0,0.0,0.0,0.0,0.0,0.0,0.0,0.0,0.0,0.0,0.0,0.0,-2.5347,0.0,0.0,0.0,0.0,0.0,0.0,0.0,0.0,0.0,0.0,0.0,0.0,0.0,0.0,0.0,0.0,0.0,0.0,0.0,0.0,0.0,0.0,0.0,0.0,0.0,0.0,0.0,0.0,0.0,0.0,0.0,0.0,0.0,0.0,0.0,0.0,0.0,0.0,0.0,0.0,0.0,-3.7243,-3.9801,-4.1721,-4.3158,-4.3139,-4.2754,-4.2062,-3.9345,-3.68,-3.4724,-3.0544,0.0,0.0,0.0,0.0,0.0,0.0,0.0,0.0,0.0,0.0,0.0,0.0,0.0,0.0,0.0,0.0,0.0,0.0,0.0,0.0,0.0,0.0,0.0,0.0,0.0,0.0,0.0,0.0,0.0,0.0,0.0,0.0,0.0,0.0,0.0,0.0,0.0,0.0,0.0,0.0,0.0,0.0,0.0,0.0,0.0,0.0,0.0,0.0,0.0,0.0,0.0,0.0,0.0,0.0,0.0,0.0,0.0,0.0,0.0,0.0,-2.654,0.0,0.0,0.0,0.0,0.0,0.0,0.0,0.0,0.0,0.0,0.0,0.0,0.0,0.0,0.0,0.0,0.0,0.0,0.0,0.0,0.0,0.0,0.0,0.0,0.0,0.0,0.0,0.0,0.0,0.0,0.0,0.0,0.0,0.0,0.0,0.0,0.0,0.0,0.0,0.0,-3.6264,-3.8663,-4.0507,-4.1917,-4.169,-4.1121,-4.0326,-3.8611,-3.6728,-3.4774,-3.1434,0.0,0.0,0.0,0.0,0.0,0.0,0.0,0.0,0.0,0.0,0.0,0.0,0.0,0.0,0.0,0.0,0.0,0.0,0.0,0.0,0.0,0.0,0.0,0.0,0.0,0.0,0.0,0.0,0.0,0.0,0.0,0.0,0.0,0.0,0.0,0.0,0.0,0.0,0.0,0.0,0.0,0.0,0.0,0.0,0.0,0.0,0.0,0.0,0.0,0.0,0.0,0.0,0.0,-3.1273,-3.1851,-3.2252,-3.2353,-3.2591,-3.2805,-3.0432,-2.9654,-2.9892,0.0,0.0,0.0,0.0,0.0,0.0,0.0,0.0,0.0,0.0,0.0,0.0,0.0,0.0,0.0,0.0,0.0,0.0,0.0,0.0,0.0,0.0,0.0,0.0,0.0,-3.3217,-3.2852,0.0,0.0,0.0,0.0,0.0,0.0,0.0,0.0,0.0,0.0,0.0,0.0,-3.5395,-3.7479,-3.9154,-4.0535,-3.9954,-3.9168,-3.8472,-3.7689,-3.6507,-3.4788,-3.2377,-2.9894,0.0,0.0,0.0,0.0,0.0,0.0,0.0,0.0,0.0,0.0,0.0,0.0,0.0,0.0,0.0,0.0,0.0,0.0,0.0,0.0,0.0,0.0,0.0,0.0,0.0,0.0,0.0,0.0,0.0,0.0,0.0,0.0,-2.2907,-2.359,0.0,0.0,0.0,0.0,0.0,0.0,0.0,0.0,0.0,0.0,0.0,0.0,0.0,-2.9942,-3.0947,-3.2001,-3.2805,-3.3382,-3.4914,-3.5667,-3.5764,-3.6207,-3.6194,-3.5814,-3.4926,0.0,-3.1148,-3.0783,0.0,0.0,0.0,0.0,0.0,0.0,0.0,0.0,0.0,0.0,0.0,0.0,0.0,0.0,0.0,0.0,0.0,0.0,0.0,0.0,0.0,0.0,-3.3153,-3.3193,-3.3967,-3.4571,0.0,-3.0999,-2.8083,-2.724,-2.5781,0.0,0.0,0.0,0.0,0.0,0.0,0.0,-3.6019,-3.7822,-3.9204,-4.0551,-4.0062,-3.9321,-3.8462,-3.73,-3.6252,-3.5415,-3.3933,-3.2168,-3.0073,-2.8214,0.0,0.0,0.0,0.0,0.0,0.0,0.0,0.0,0.0,0.0,0.0,0.0,0.0,0.0,0.0,0.0,0.0,0.0,0.0,0.0,0.0,0.0,0.0,0.0,0.0,0.0,0.0,0.0,0.0,-2.3477,-2.4607,-2.487,-2.4958,-2.4632,0.0,0.0,0.0,0.0,0.0,0.0,0.0,0.0,0.0,-3.2014,-3.2102,-3.2767,-3.4218,-3.4977,-3.5504,-3.5755,-3.681,-3.7299,-3.7299,-3.7538,-3.7513,-3.7274,-3.7036,-3.5881,-3.413,-3.2855,-3.1399,-2.9842,0.0,0.0,0.0,0.0,-2.8335,-2.8586,-3.0069,-3.0168,0.0,0.0,0.0,0.0,0.0,0.0,0.0,0.0,0.0,0.0,0.0,0.0,0.0,-3.5054,-3.59,-3.6577,-3.6802,-3.5121,-3.2916,0.0,-2.9654,-2.8446,-2.6602,0.0,0.0,0.0,0.0,-3.204,-3.5075,-3.664,-3.7801,-3.8743,-3.8576,-3.8103,-3.7379,-3.6806,-3.6207,-3.5549,-3.4592,-3.3484,-3.2243,-3.0283,-2.8143,0.0,0.0,0.0,0.0,0.0,0.0,0.0,0.0,0.0,0.0,0.0,0.0,0.0,0.0,0.0,0.0,0.0,0.0,0.0,0.0,0.0,0.0,0.0,0.0,0.0,0.0,0.0,0.0,-2.4702,-2.5756,-2.5871,-2.6283,-2.6042,0.0,0.0,0.0,0.0,0.0,0.0,-3.0733,-3.0984,-3.219,-3.4663,-3.4738,-3.5391,-3.682,-3.7199,-3.7462,-3.7626,-3.8027,-3.8304,-3.8429,-3.8429,-3.8429,-3.8429,-3.8291,-3.7676,-3.6681,-3.4758,-3.3169,-3.1951,-3.1148,-3.0244,-2.9503,-3.0482,-3.0846,-3.1097,-3.288,-3.3119,-3.2541,-3.1876,0.0,-2.9908,-2.8148,0.0,0.0,0.0,0.0,-3.0806,-3.1971,-3.3011,-3.4126,-3.5526,-3.6452,-3.71,-3.7395,-3.7142,-3.6212,0.0,-3.326,-3.2183,-2.9562,0.0,0.0,0.0,0.0,-3.2691,-3.4502,-3.5759,-3.6731,-3.7345,-3.727,-3.6985,-3.6522,-3.6327,-3.6028,-3.5534,-3.4861,-3.4294,-3.3769,-3.1824,-2.9998,-2.8378,0.0,0.0,0.0,0.0,0.0,0.0,0.0,0.0,0.0,0.0,0.0,0.0,0.0,0.0,0.0,0.0,0.0,0.0,0.0,0.0,0.0,0.0,0.0,0.0,0.0,0.0,0.0,0.0,0.0,-2.652,-2.6622,0.0,0.0,0.0,0.0,-2.9464,-3.0545,-3.1888,-3.3596,-3.4198,-3.5265,-3.696,-3.701,-3.7312,-3.7914,-3.7952,-3.8241,-3.8831,-3.8856,-3.9094,-3.9609,-3.9609,-3.9609,-3.9584,-3.9057,-3.8479,-3.7839,-3.6719,-3.524,-3.3771,-3.3709,-3.3332,-3.2905,-3.347,-3.3696,-3.3784,-3.4412,-3.4274,-3.3884,-3.4361,-3.3056,-3.1185,-3.0597,-2.9693,0.0,0.0,-3.0147,-3.084,-3.1924,-3.2252,-3.247,-3.3136,-3.4095,-3.4856,-3.487,-3.5139,-3.5569,0.0,-3.5282,-3.4159,-3.3335,0.0,-3.2317,-3.2317,-3.2931,-3.3903,-3.528,-3.6058,-3.6731,-3.7345,-3.6881,-3.6522,-3.6492,-3.5908,-3.5549,-3.5504,-3.4861,-3.4488,-3.4459,-3.2527,-3.1092,-3.0372,-2.7814,0.0,0.0,0.0,0.0,0.0,0.0,0.0,0.0,0.0,0.0,0.0,0.0,0.0,0.0,0.0,0.0,0.0,0.0,0.0,0.0,0.0,0.0,0.0,0.0,0.0,0.0,0.0,0.0,-2.8459,-2.8327,0.0,-2.9579,-2.8567,-2.9106,-3.2184,-3.2332,-3.3346,-3.5871,-3.6194,-3.691,-3.8228,-3.8266,-3.853,-3.9082,-3.9094,-3.9195,-3.9396,-3.9396,-3.9496,-3.9697,-3.9697,-3.9697,-3.9685,-3.9484,-3.9082,-3.8442,-3.6837,-3.5633,-3.4919,-3.4919,-3.4625,-3.4198,-3.4705,-3.4919,-3.4994,-3.5592,-3.5416,-3.4893,-3.4731,-3.3947,-3.2905,-3.2365,-3.165,-3.1085,-3.1286,-3.1486,-3.1825,-3.2566,-3.2767,-3.3017,-3.3901,-3.4428,-3.4856,-3.5507,-3.577,-3.5964,-3.6269,-3.582,-3.5263,-3.4869,-3.4951,-3.4936,-3.4502,-3.4637,-3.5115,-3.6028,-3.5968,-3.5938,-3.6163,-3.5983,-3.5863,-3.5863,-3.5235,-3.4846,-3.4846,-3.4218,-3.3844,-3.3844,-3.2766,-3.1824,-3.1152,-2.9415,-2.7126,0.0,0.0,0.0,0.0,0.0,0.0,0.0,0.0,0.0,0.0,0.0,0.0,0.0,0.0,0.0,0.0,0.0,0.0,0.0,0.0,0.0,0.0,0.0,0.0,0.0,0.0,-2.8714,-2.9471,-2.9066,-2.9237,-3.0399,-3.0136,-3.1098,-3.4044,-3.4395,-3.5427,-3.7688,-3.7751,-3.8178,-3.912,-3.9145,-3.932,-3.9697,-3.9697,-3.9697,-3.9697,-3.9697,-3.9697,-3.9697,-3.9697,-3.9697,-3.9697,-3.9697,-3.9383,-3.8768,-3.729,-3.6419,-3.6034,-3.5365,-3.5208,-3.5316,-3.568,-3.5818,-3.5868,-3.6279,-3.6119,-3.573,-3.5132,-3.4705,-3.4349,-3.3796,-3.3357,-3.3056,-3.3056,-3.293,-3.2867,-3.3257,-3.3262,-3.3283,-3.3995,-3.415,-3.4345,-3.4993,-3.5143,-3.5265,-3.5628,-3.6129,-3.6404,-3.6001,-3.6618,-3.6836,-3.5968,-3.5833,-3.5908,-3.6133,-3.5774,-3.5504,-3.5504,-3.5504,-3.5504,-3.5504,-3.4876,-3.4503,-3.4503,-3.3649,-3.326,-3.3484,-3.2422,-3.172,-3.1511,-2.9625,-2.7869,-2.6258,0.0,0.0,0.0,0.0,0.0,0.0,0.0,0.0,0.0,0.0,0.0,0.0,0.0,0.0,0.0,0.0,0.0,0.0,0.0,0.0,0.0,0.0,0.0,-2.885,-2.8533,-2.8597,-2.9349,-2.8826,-2.8558,-2.8901,-3.1505,-3.364,-3.4881,-3.6749,-3.8129,-3.8818,-3.8843,-3.9145,-3.9672,-3.9697,-3.9697,-3.9697,-3.9697,-3.9697,-3.9697,-3.9697,-3.9697,-3.9697,-3.9697,-3.9697,-3.9697,-3.9697,-3.9383,-3.8831,-3.8191,-3.7627,-3.7027,-3.5187,-3.5271,-3.6405,-3.6405,-3.6405,-3.6405,-3.6405,-3.6405,-3.6317,-3.5696,-3.552,-3.542,-3.4868,-3.4705,-3.4705,-3.468,-3.4324,-3.3897,-3.3897,-3.3483,-3.3124,-3.3124,-3.3124,-3.3124,-3.3124,-3.3124,-3.3398,-3.447,-3.6292,-3.7514,-3.6942,-3.7687,-3.7953,-3.6761,-3.6537,0.0,-3.5654,-3.5534,-3.5504,-3.5504,-3.5489,-3.5489,-3.5504,-3.4846,-3.4459,-3.4474,-3.3185,-3.2751,-3.341,-3.1554,-3.0821,-3.1466,-2.8451,-2.7126,-2.76,0.0,0.0,0.0,0.0,0.0,0.0,0.0,0.0,0.0,0.0,0.0,0.0,0.0,0.0,0.0,0.0,0.0,0.0,0.0,0.0,0.0,0.0,-2.8221,-2.8,-2.9409,-3.0345,-3.0092,-3.0506,-3.122,-3.2197,-3.223,-3.2865,-3.4419,-3.4204,-3.5074,-3.7714,-3.7855,-3.8423,-3.9633,-3.9697,-3.9697,-3.9697,-3.9697,-3.9697,-3.9697,-3.9697,-3.9697,-3.9697,-3.9697,-3.9697,-3.9697,-3.9697,-3.9383,-3.8768,-3.7176,-3.6788,-3.7123,-3.6177,-3.6061,-3.6405,-3.6405,-3.6405,-3.6405,-3.6405,-3.6405,-3.638,-3.6194,-3.6132,-3.6031,-3.5433,-3.527,-3.5194,-3.4793,-3.4324,-3.3897,-3.3897,-3.3483,-3.3124,-3.3124,-3.3124,-3.3124,-3.3124,-3.3124,-3.3197,-3.3471,-3.4622,-3.596,-3.732,-3.7757,-3.8113,-3.8555,-3.7778,0.0,-3.6911,-3.6073,-3.5504,-3.5504,-3.5055,-3.4966,-3.5459,-3.3993,-3.326,-3.3739,-3.2063,-3.136,-3.2019,-3.1061,-3.0597,-3.0776,-2.9501,-2.8427,0.0,0.0,0.0,0.0,0.0,0.0,0.0,0.0,0.0,0.0,0.0,0.0,0.0,0.0,0.0,0.0,0.0,0.0,0.0,0.0,0.0,0.0,-2.8959,-3.0065,-3.0079,-3.0477,-3.1,-3.1639,-3.1373,-3.1464,-3.2369,-3.239,-3.3037,-3.4666,-3.4623,-3.5668,-3.8283,-3.8413,-3.8792,-3.9697,-3.9697,-3.9697,-3.9697,-3.9697,-3.9697,-3.9697,-3.9697,-3.9697,-3.9697,-3.9697,-3.9697,0.0,-3.9446,-3.917,-3.8755,-3.7145,-3.6788,0.0,0.0,0.0,0.0,0.0,-3.5918,-3.6405,-3.6405,-3.6405,-3.6405,-3.6405,-3.6405,-3.6342,-3.5981,-3.5893,-3.5818,-3.5504,-3.4839,-3.4248,-3.4248,-3.3658,-3.3124,-3.3124,-3.3124,-3.3124,-3.3124,-3.3124,-3.3124,-3.3124,-3.3598,0.0,-3.6213,-3.7242,-3.793,-3.8253,-3.802,-3.7629,-3.709,-3.6372,-3.5804,-3.5534,-3.5145,-3.507,-3.5474,-3.3918,0.0,0.0,0.0,-3.0957,-3.1077,-3.0717,0.0,0.0,0.0,0.0,0.0,0.0,0.0,0.0,-2.8064,-2.7839,0.0,0.0,0.0,0.0,0.0,0.0,0.0,0.0,0.0,0.0,0.0,0.0,0.0,0.0,0.0,0.0,-3.1364,-3.2818,-3.3493,-3.1644,-3.101,-3.3107,-3.1661,-3.0543,-3.084,-3.2369,-3.38,-3.4958,-3.6433,-3.7914,-3.9362,0.0,0.0,0.0,0.0,-3.9697,-3.9697,-3.9697,-3.9697,-3.9697,-3.9697,-3.9697,-3.9697,-3.9697,-3.9659,-3.9572,-3.9082,-3.8844,-3.8655,-3.76,-3.7149,-3.6939,-3.526,-3.4532,-3.4434,-3.4581,-3.5271,-3.6216,-3.6358,0.0,0.0,-3.6405,-3.6405,-3.6405,-3.6405,-3.6405,-3.6405,-3.6329,-3.5529,-3.4713,-3.465,-3.3859,-3.3124,-3.3124,-3.3124,-3.3124,-3.3124,-3.3124,-3.3124,-3.3124,-3.3124,-3.3398,-3.4345,-3.6134,-3.7287,-3.6799,-3.747,-3.7614,-3.6412,-3.6305,-3.6056,-3.5386,0.0,0.0,-3.5489,-3.4277,-3.3529,-3.3604,-3.2437,-3.1421,-3.0761,-3.0806,-3.0806,-3.0731,-3.0806,-3.139,-3.2512,-3.2587,-3.2617,-3.2557,-2.9609,-2.9157,0.0,0.0,0.0,0.0,0.0,0.0,0.0,0.0,0.0,0.0,0.0,0.0,0.0,0.0,0.0,-3.0612,-3.1274,-3.2334,-3.4002,-3.2276,-3.1126,-3.1889,-3.1981,-3.1697,-3.0956,-3.3314,-3.4515,-3.3575,-3.4902,-3.6379,-3.7861,-3.7914,-3.8465,-3.9645,-3.9697,-3.9697,-3.9697,-3.9697,-3.9697,-3.9697,0.0,0.0,-3.9697,-3.9697,-3.9446,-3.9032,-3.8969,-3.8354,-3.75,-3.7274,-3.6971,-3.6508,-3.6146,-3.5367,-3.4532,-3.5619,-3.5463,-3.4921,-3.6013,-3.6405,-3.6405,-3.6405,-3.6405,-3.6405,-3.6405,-3.6405,0.0,-3.583,-3.5182,-3.4625,-3.4173,-3.3571,-3.3124,-3.3124,-3.3124,-3.3124,-3.3124,-3.3124,-3.3124,-3.3124,-3.3124,-3.3154,-3.3356,-3.447,-3.5534,-3.6203,-3.6056,-3.5648,-3.489,-3.5046,-3.4984,-3.4351,-3.4531,-3.4906,-3.5459,-3.4277,-3.3724,-3.4279,-3.3544,-3.2811,-3.2153,-3.2632,-3.2662,-3.2138,-3.2647,-3.2781,-3.2512,-3.3036,-3.3305,-3.329,-3.2647,-3.2273,0.0,0.0,0.0,0.0,0.0,0.0,0.0,0.0,0.0,0.0,0.0,-2.3639,-2.5338,0.0,-3.0471,-3.1228,-3.2254,-3.3518,-3.5186,-3.3261,-3.2066,-3.3176,-3.2695,-3.2079,-3.1613,-3.3166,-3.4181,-3.4181,-3.5563,-3.7037,-3.8518,-3.8582,-3.8908,-3.9697,-3.9697,-3.9697,-3.9697,-3.9697,-3.9697,-3.9697,-3.9697,-3.9697,-3.9685,-3.9408,-3.9132,-3.8894,-3.8328,-3.7713,-3.7161,-3.6885,-3.6262,-3.5475,-3.6168,-3.6013,-3.5415,-3.5415,-3.5415,-3.5523,-3.6156,-3.6405,-3.6405,-3.6405,-3.6405,-3.6405,-3.6405,-3.6405,-3.6292,-3.5658,-3.5107,-3.46,-3.4035,-3.3483,-3.3124,-3.3124,-3.3124,-3.3124,-3.3124,-3.3124,-3.3124,-3.3124,-3.3124,-3.3124,-3.3124,-3.3556,-3.4262,-3.5278,-3.5792,-3.5639,-3.456,-3.4731,-3.4712,-3.4051,-3.417,-3.4584,-3.5442,-3.4577,-3.3978,-3.3978,-3.3679,-3.335,-3.3021,-3.332,-3.3335,-3.3021,-3.332,-3.3499,-3.3499,-3.3829,-3.4158,-3.4502,-3.4502,-3.4143,0.0,0.0,0.0,0.0,0.0,0.0,0.0,0.0,-2.1105,-2.2696,-2.3589,-2.4541,-2.5955,-2.8828,-3.1244,-3.1931,-3.3385,-3.4884,-3.6203,-3.4032,-3.3042,-3.5044,-3.3629,-3.2535,-3.2619,-3.3444,-3.4448,-3.5617,-3.7091,-3.8465,-3.9633,-3.9697,-3.9697,-3.9697,-3.9697,-3.9697,-3.9697,-3.9697,-3.9697,-3.9697,-3.9697,-3.9634,-3.9521,-3.9082,-3.8806,-3.8529,-3.7462,-3.6927,-3.6635,-3.6486,-3.5619,-3.4532,-3.587,-3.6405,-3.6263,-3.5174,-3.5319,-3.6061,-3.631,-3.6405,-3.6405,-3.6405,-3.6405,-3.6405,-3.6405,-3.6329,-3.6094,-3.5495,-3.4944,-3.4437,-3.3884,-3.3407,-3.3124,-3.3124,-3.3124,-3.3124,-3.3124,-3.3124,-3.3124,-3.3124,-3.3124,-3.3124,-3.3124,-3.3124,-3.3398,-3.4275,-3.5244,-3.5384,-3.3993,-3.4318,-3.4425,-3.3811,-3.4075,-3.461,-3.5424,-3.4996,-3.4442,-3.3918,-3.3888,-3.3888,-3.3888,-3.3888,-3.3888,-3.3888,-3.3888,-3.4143,-3.4698,-3.4698,-3.4966,-3.5504,-3.5446,-3.5207,-1.6746,-1.6904,-1.7686,-1.9238,-1.9668,-2.0332,0.0,0.0,-2.3638,-2.4592,-2.633,-2.7675,-2.7865,-3.0788,-3.3184,-3.3254,-3.3932,-3.4884,-3.6203,-3.4032,-3.3254,-3.5945,-3.468,-3.3737,-3.4105,-3.5895,-3.7079,-3.7252,-3.8635,-3.953,-3.9697,-3.9697,-3.9697,-3.9697,-3.9697,-3.9697,-3.9697,-3.9697,-3.9697,-3.9697,-3.9697,-3.9433,-3.9007,-3.8944,-3.8378,-3.7337,-3.6769,-3.5801,-3.4811,-3.5943,-3.5619,-3.4532,-3.587,-3.6405,-3.6358,-3.6216,-3.5523,-3.4775,-3.6013,-3.6405,-3.6405,-3.6405,-3.6405,-3.6405,-3.6405,-3.6031,-3.547,-3.4919,-3.4412,-3.3872,-3.3319,-3.3119,-3.3124,-3.3124,-3.3124,-3.3124,-3.3124,-3.3124,-3.3124,-3.3124,-3.3124,-3.3124,-3.3124,-3.3124,-3.3154,-3.3283,-3.2975,-3.2472,-3.1803,-3.2802,-3.3379,-3.2804,-3.4293,-3.5392,-3.5504,-3.5429,-3.5355,-3.528,-3.528,-3.528,-3.528,-3.528,-3.528,-3.528,-3.528,-3.531,-3.5385,-3.5385,-3.5429,-3.5487,-3.5195,-3.5497,-1.8926,-1.9102,-1.9568,-2.0752,-2.1435,-2.2217,-2.3799,-2.415,-2.4404,-2.5283,-2.6517,-2.7751,-2.8512,-3.0926,-3.3079,0.0,-3.4872,-3.5463,-3.5271,-3.4909,-3.48,-3.5174,-3.4866,-3.479,-3.5184,-3.6326,-3.7132,-3.7494,-3.8856,-3.9697,-3.9697,-3.9697,-3.9697,-3.9697,-3.9697,-3.9697,-3.9697,-3.9697,-3.9697,-3.9697,-3.9697,-3.9408,-3.8906,-3.853,-3.7764,-3.6732,-3.6505,-3.515,-3.3304,-3.4666,-3.441,-3.3304,-3.4715,-3.5715,-3.6405,-3.6405,-3.6061,-3.5619,-3.6216,-3.6405,-3.6405,-3.6405,-3.6405,-3.6405,-3.6405,-3.6194,-3.5843,-3.4964,-3.4562,-3.4173,-3.3307,-3.3124,-3.3124,-3.3124,-3.3124,-3.3124,-3.3124,-3.3124,-3.3124,-3.3124,-3.3124,-3.3124,-3.3124,-3.3124,-3.3124,-3.3124,-3.3059,-3.2881,-3.23,-3.2917,-3.3415,-3.3416,-3.4658,-3.5504,-3.5504,-3.5504,-3.5504,-3.5504,-3.5504,-3.5504,-3.5504,-3.5504,-3.5504,-3.5504,-3.5504,-3.5504,-3.5504,-3.5504,-3.5699,-3.6088,-3.5944,-3.6497,-2.0077,-2.0517,-2.0957,-2.1836,-2.2793,-2.3701,-2.4424,-2.4697,-2.4953,-2.5762,-2.6645,-2.7643,-2.8734,-3.0866,-3.2776,-3.3978,-3.5302,-3.5886,-3.5054,-3.5475,-3.5463,-3.4532,-3.4718,-3.5146,-3.5595,-3.6157,-3.6732,-3.7268,-3.8687,-3.9534,-3.9685,-3.9697,-3.9697,-3.9697,-3.9697,-3.9697,-3.9697,-3.9697,-3.9622,-3.9471,-3.9471,-3.9094,-3.8391,-3.7814,-3.7111,-3.6405,-3.6405,-3.5054,-3.2944,-3.397,-3.3822,-3.3005,-3.3981,-3.5223,-3.6405,-3.6405,-3.6405,-3.6405,-3.6405,-3.6405,-3.6405,-3.6405,-3.6405,-3.6405,-3.6405,-3.6191,-3.5742,-3.4951,-3.45,-3.4085,-3.3282,-3.3124,-3.3124,-3.3124,-3.3124,-3.3124,-3.3124,-3.3124,-3.3124,-3.3124,-3.3124,-3.3124,-3.3124,-3.3124,-3.3124,-3.3124,-3.3325,-3.3348,-3.2843,-3.3258,-3.3663,-3.3968,-3.4905,-3.5504,-3.5504,-3.5504,-3.5504,-3.5504,-3.5504,-3.5504,-3.5504,-3.5504,-3.5504,-3.5504,-3.5504,-3.5504,-3.5504,-3.5504,-3.5848,-3.6492,-3.6656,-3.733,-1.9316,-2.0254,-2.1385,-2.2275,-2.3437,-2.4492,-2.4988,-2.5381,-2.5781,-2.6279,-2.7327,-2.8321,-2.871,-3.0934,-3.2865,-3.3422,-3.4632,-3.5708,-3.6282,-3.5271,-3.4434,-3.4385,-3.4397,-3.4649,0.0,-3.5711,-3.6236,-3.6761,-3.812,-3.9132,-3.9672,-3.9697,-3.9697,-3.9697,-3.9697,-3.9697,-3.9697,-3.9697,-3.9421,-3.8944,-3.8944,-3.8366,-3.7211,-3.6707,-3.6443,-3.6405,-3.6405,-3.5619,-3.4337,-3.4385,-3.4385,-3.4337,-3.4385,-3.5223,-3.6405,-3.6405,-3.6405,-3.6405,-3.6405,-3.6405,-3.6405,-3.6405,-3.6405,-3.6405,-3.6405,-3.5617,-3.4718,-3.4726,-3.3947,-3.3162,-3.3124,-3.3124,-3.3124,-3.3124,-3.3124,-3.3124,-3.3124,-3.3124,-3.3124,-3.3124,-3.3124,-3.3124,-3.3124,-3.3124,-3.3124,-3.3124,-3.3099,-3.3038,-3.283,-3.3512,-3.3973,-3.3993,-3.4905,-3.5504,-3.5504,-3.5504,-3.5504,-3.5504,-3.5504,-3.5504,-3.5504,-3.5504,-3.5504,-3.5504,-3.5504,-3.5504,-3.5504,-3.5504,-3.5848,-3.6492,-3.7105,-3.7749,-2.0888,-2.1533,-2.2353,-2.3496,-2.4316,-2.4961,-2.541,-2.5586,-2.5877,-2.6465,-2.7173,-2.8125,-2.9612,-3.1145,-3.2632,-3.4087,-3.4968,-3.5391,-3.5101,-3.5463,-3.5415,-3.4532,-3.4385,0.0,0.0,0.0,0.0,-3.8135,-3.8641,-3.9107,-3.9659,-3.9697,-3.9697,-3.9697,-3.9697,-3.9521,-3.9145,-3.9145,-3.8868,-3.8291,-3.7927,-3.755,-3.7161,-3.6656,-3.6405,-3.6405,-3.6405,-3.5619,-3.4385,-3.4385,-3.4385,-3.4385,-3.4385,-3.5223,-3.6405,-3.6405,-3.6405,-3.6405,-3.6405,-3.6405,-3.6405,-3.6405,-3.6405,-3.6405,-3.6405,-3.6153,-3.5655,-3.4926,-3.4462,-3.3997,-3.3269,-3.3124,-3.3124,-3.3124,-3.3124,-3.3124,-3.3124,-3.3124,-3.3124,-3.3124,-3.3124,-3.3124,-3.3124,-3.3124,-3.3124,-3.3124,-3.2989,-3.3131,-3.3738,-3.3908,-3.4245,-3.4905,-3.5294,-3.5504,-3.5504,-3.5504,-3.5504,-3.5504,-3.5504,-3.5504,-3.5504,-3.5504,-3.5504,-3.5504,-3.5504,-3.5504,-3.5504,-3.5953,-3.6492,-3.7105,-3.7764,-3.8422,-2.2463,-2.2849,-2.333,-2.4896,-2.5665,-2.6161,-2.6863,-2.6849,-2.6879,-2.7296,-2.7655,-2.8299,-2.9597,-3.0553,-3.1735,-3.3527,-3.4299,-3.4657,-3.4773,-3.5746,-3.5906,-3.4581,-3.4992,-3.5198,0.0,0.0,0.0,-3.7839,-3.8529,-3.9107,-3.9659,-3.9697,-3.9697,-3.9697,-3.9496,-3.9233,-3.8919,-3.8668,-3.8278,-3.7701,-3.7149,-3.6885,-3.6872,-3.6568,-3.6405,-3.6405,-3.6405,-3.5918,-3.5078,-3.4581,-3.4678,-3.5078,-3.4581,-3.5223,-3.6405,-3.6405,-3.6405,-3.6405,-3.6405,-3.6405,-3.6405,-3.6405,-3.6405,-3.6405,-3.6405,-3.6267,-3.5931,-3.5169,-3.4831,-3.4512,-3.3608,-3.337,-3.3319,-3.3174,-3.3124,-3.3124,-3.3124,-3.3124,-3.3124,-3.3124,-3.3124,-3.3124,-3.3124,-3.3124,-3.324,-3.3598,-3.3372,-3.329,-3.3698,-3.4441,-3.4907,-3.4968,-3.5279,-3.5504,-3.5504,-3.5504,-3.5504,-3.5504,-3.5504,-3.5504,-3.5504,-3.5504,-3.5504,-3.5504,-3.5504,-3.5504,-3.5504,-3.6163,-3.6806,-3.7419,-3.8078,-3.8751,-2.4122,-2.4173,-2.4451,-2.6514,-2.7336,-2.797,-2.9098,-2.8925,-2.8489,-2.8533,-2.8618,-2.8668,-2.869,0.0,-3.0319,-3.1913,-3.2729,-3.3734,-3.5345,-3.6081,-3.5968,0.0,0.0,0.0,0.0,0.0,0.0,-3.6213,0.0,-3.9082,-3.9659,-3.9697,-3.9697,-3.9697,-3.9157,-3.8906,-3.8831,-3.8228,-3.7663,-3.7136,-3.6656,-3.6405,-3.6405,-3.6405,-3.6405,-3.6405,-3.6405,-3.6405,-3.631,-3.503,-3.5271,-3.625,-3.4981,-3.5271,-3.6405,-3.6405,-3.6405,-3.6405,-3.6405,-3.6405,-3.6405,-3.6405,-3.6405,-3.6405,-3.6405,-3.5994,-3.5533,-3.5508,-3.5119,-3.4625,-3.4048,-3.3897,-3.3759,-3.3206,-3.3124,-3.3124,-3.3124,-3.3124,-3.3124,-3.3124,-3.3124,-3.3124,-3.3124,-3.3124,-3.3441,-3.447,-3.4216,-3.3701,-3.3053,-3.4975,-3.5811,-3.4235,-3.4953,-3.5504,-3.5504,-3.5504,-3.5504,-3.5504,-3.5534,-3.5549,-3.5504,-3.5534,-3.5549,-3.5504,-3.5504,-3.5504,-3.5504,-3.6163,-3.6806,-3.7419,-3.8078,-3.8751,-2.6672,-2.6611,-2.6539,-2.8342,-2.8549,-2.8418,-2.8723,-2.8054,-2.7357,-2.7463,-2.7202,-2.6957,-2.7077,-2.8562,0.0,-3.1399,-3.3119,0.0,-3.6533,-3.6885,0.0,-3.7084,0.0,-3.7641,-3.732,-3.7979,0.0,0.0,-3.8179,-3.8655,-3.9647,-3.9697,-3.9697,-3.9697,-3.9157,-3.8668,-3.8228,-3.7262,-3.6757,-3.6619,-3.648,-3.6405,-3.6405,-3.6405,-3.6405,-3.6405,-3.6405,-3.6405,-3.6358,-3.6013,-3.6108,-3.6358,-3.6013,-3.6108,-3.6405,-3.6405,-3.6405,-3.6405,-3.6405,-3.6405,-3.6405,-3.6405,-3.6405,-3.6405,-3.6405,-3.6304,-3.6069,-3.5621,-3.5395,-3.5069,-3.4148,-3.3897,-3.3759,-3.3206,-3.3124,-3.3124,-3.3124,-3.3124,-3.3124,-3.3124,-3.3124,-3.3124,-3.3124,-3.3124,-3.3197,-3.3471,-3.4669,-3.5487,-3.5129,-3.526,-3.5327,-3.5126,-3.5359,-3.5504,-3.5504,-3.5504,-3.5504,-3.5504,-3.5968,-3.6013,-3.5534,-3.5968,-3.6013,-3.5519,-3.5504,-3.5504,-3.5504,-3.6163,-3.6806,-3.7419,-3.8078,-3.8751,-2.8694,-2.8578,-2.8287,-2.9511,-2.9584,-2.9337,-2.916,-2.8416,-2.7584,-2.6962,-2.6384,-2.5859,-2.5473,-2.7027,-2.8687,0.0,0.0,0.0,-3.5868,-3.6521,-3.7023,0.0,-3.7864,0.0,-3.8366,-3.868,-3.902,0.0,-3.8931,-3.9032,-3.9659,-3.9697,-3.9697,-3.9697,-3.8906,-3.8103,-3.7299,-3.6719,-3.6405,-3.6405,-3.6405,-3.6405,-3.6405,-3.6405,-3.6405,-3.6405,0.0,-3.6405,-3.6405,-3.6405,-3.6405,-3.6405,-3.6405,-3.6405,-3.6405,-3.6405,-3.6405,-3.6405,-3.6405,-3.6405,-3.6405,-3.6405,-3.6405,-3.6405,-3.6405,-3.6405,-3.6342,-3.5994,-3.5893,-3.5705,-3.4851,-3.4449,-3.4123,-3.3571,-3.3257,-3.3124,-3.3124,-3.3124,-3.3124,-3.3124,-3.3124,-3.3124,-3.3124,-3.3124,-3.3283,-3.3713,-3.5156,-3.6217,-3.6278,-3.6154,-3.6143,-3.6305,-3.5833,-3.5624,-3.5908,-3.5669,-3.5504,-3.5504,-3.6118,-3.6193,-3.5534,-3.6402,-3.6462,-3.5534,-3.5789,-3.5789,-3.5504,-3.6432,-3.7075,-3.7434,-3.8392,-3.905,-3.0455,-3.0204,-2.9783,-3.0482,-3.0515,-3.029,-2.9783,-2.9063,-2.8047,-2.6499,0.0,-2.4958,-2.3954,-2.528,-2.6876,-2.8021,0.0,-3.2855,-3.4688,-3.5755,-3.6669,-3.7324,-3.7826,-3.8354,-3.8931,-3.9032,-3.9182,-3.9659,-3.9697,-3.9697,-3.9697,-3.9622,-3.9521,-3.9371,-3.8404,-3.74,-3.6417,-3.6405,-3.6405,-3.6405,-3.6405,-3.6405,-3.6405,-3.6405,-3.6405,-3.6405,0.0,0.0,-3.6405,-3.6405,-3.6405,-3.6405,-3.6405,-3.6405,-3.6405,-3.6405,-3.6405,-3.6405,-3.6405,-3.6405,-3.6405,-3.6405,-3.6405,-3.6405,-3.6405,-3.6405,-3.6405,-3.6405,-3.6405,-3.6267,-3.5558,-3.5044,-3.4562,-3.3935,-3.342,-3.3124,-3.3124,-3.3124,-3.3124,-3.3124,-3.3124,-3.3124,-3.3124,-3.3124,-3.3441,-3.4345,-3.5467,-3.6331,-3.6687,-3.7181,-3.7509,-3.7419,-3.6417,-3.5953,-3.6447,-3.5968,-3.5594,-3.5504,-3.6193,-3.6312,-3.5669,-3.6866,-3.6985,-3.5789,-3.6312,-3.6327,-3.5759,-3.6866,-3.7464,-3.7569,-3.8736,-3.9334,-3.2148,-3.1804,-3.1048,-3.1723,-3.1236,-3.0278,-2.9276,-2.757,0.0,0.0,-2.3966,-2.3333,-2.2723,-2.472,-2.7002,-2.8499,-3.0721,-3.3119,-3.5764,-3.6292,-3.6958,0.0,-3.8668,0.0,0.0,0.0,0.0,0.0,0.0,-3.9697,-3.9697,-3.9258,-3.8592,-3.7651,-3.7425,-3.7023,-3.6417,-3.6405,-3.6405,-3.6405,-3.6405,-3.6405,-3.6405,-3.6405,-3.6405,-3.6405,-3.6405,0.0,-3.6405,-3.6405,-3.6405,-3.6405,-3.6405,-3.6405,-3.6405,-3.6405,-3.6405,-3.6405,-3.6405,-3.6405,-3.6405,-3.6405,-3.6405,-3.6405,-3.6405,-3.6405,-3.6405,-3.6405,-3.6405,-3.6179,-3.5127,-3.4756,-3.4462,-3.3458,-3.3187,-3.3124,-3.3124,-3.3124,-3.3124,-3.3124,-3.3124,-3.3124,-3.3124,-3.3124,-3.3154,-3.3356,-3.4993,-3.6249,-3.6295,-3.7412,-3.8003,-3.7464,-3.721,-3.6926,-3.6522,-3.6372,-3.6088,-3.5549,-3.6611,-3.6971,-3.6342,-3.7539,-3.7853,-3.709,-3.718,-3.7195,-3.7075,-3.73,-3.7689,-3.8227,-3.8467,-3.8871,-3.2702,-3.2655,-3.2191,-3.2214,-3.1411,-3.0093,-2.8097,0.0,0.0,0.0,-2.2498,-2.2418,-2.1606,-2.3728,-2.595,-2.7017,-2.9051,-3.1474,-3.4306,-3.514,-3.6232,-3.8191,-3.8693,-3.9082,0.0,0.0,0.0,0.0,0.0,-3.927,-3.927,-3.873,-3.804,-3.7211,-3.7186,-3.6923,-3.6417,-3.6405,-3.6405,-3.6405,-3.6405,-3.6405,-3.6405,-3.6405,-3.6405,-3.6405,-3.6405,0.0,-3.6405,-3.6405,-3.6405,-3.6405,-3.6405,-3.6405,-3.6405,-3.6405,-3.6405,-3.6405,-3.6405,-3.6405,-3.6405,-3.6405,-3.6405,-3.6405,-3.6405,-3.6405,-3.6405,-3.6405,-3.6405,-3.6279,-3.5717,-3.5366,-3.4969,-3.4487,-3.4135,-3.3859,-3.3571,-3.3508,-3.342,-3.3131,-3.3124,-3.3124,-3.3124,-3.3124,-3.3283,-3.3839,-3.5238,-3.6408,-3.6982,-3.8142,-3.8811,-3.8497,-3.7823,-3.7419,-3.7464,-3.7165,-3.6836,-3.6522,-3.7389,-3.7629,-3.6985,-3.8227,-3.8452,-3.7434,-3.7749,-3.7749,-3.7404,-3.7749,-3.8078,-3.8407,-3.8751,-3.9095,-3.2654,-3.298,-3.2943,-3.2353,-3.1323,-2.9741,-2.7102,-2.5423,0.0,-2.1219,-2.1443,-2.187,-2.1031,-2.2924,-2.4895,0.0,-2.7444,-2.9716,-3.2503,-3.3847,-3.5366,0.0,-3.8341,0.0,0.0,0.0,0.0,0.0,0.0,0.0,-3.8554,-3.8078,-3.7575,-3.7023,-3.701,-3.6845,-3.6417,-3.6405,-3.6405,-3.6405,-3.6405,-3.6405,-3.6405,-3.6405,-3.6405,-3.6405,-3.6405,0.0,0.0,-3.6405,-3.6405,-3.6405,-3.6405,-3.6405,-3.6405,-3.6405,-3.6405,-3.6405,-3.6405,-3.6405,-3.6405,-3.6405,-3.6405,-3.6405,-3.6405,-3.6405,-3.6405,-3.6405,-3.6405,-3.638,-3.6267,-3.5868,-3.547,-3.5357,-3.4994,-3.4555,-3.4173,-3.3985,-3.3771,-3.3332,-3.3156,-3.3124,-3.3124,-3.3124,-3.3484,-3.4553,-3.5547,-3.6565,-3.7663,-3.8745,-3.9388,-3.9388,-3.8467,-3.7988,-3.8362,-3.7913,-3.7554,-3.7419,-3.8018,-3.8153,-3.7644,-3.8745,-3.888,-3.7853,-3.8347,-3.8362,-3.7838,-3.8362,-3.8601,-3.8616,-3.917,-3.9388,-3.2265,-3.2679,-3.2943,-3.2353,-3.1035,-2.9264,-2.7014,0.0,-2.2757,-2.1056,-2.1169,-2.1531,-2.143,-2.2874,-2.4582,-2.616,-2.7394,-2.9151,-3.1901,-3.3269,-3.4788,-3.6998,0.0,0.0,0.0,0.0,0.0,0.0,0.0,0.0,-3.7337,-3.7287,-3.7059,-3.6505,-3.648,-3.6455,-3.6405,-3.6405,-3.6405,-3.6405,-3.6405,-3.6405,-3.6405,-3.6405,-3.6405,-3.6405,-3.6405,0.0,0.0,-3.6405,-3.6405,-3.6405,-3.6405,-3.6405,-3.6405,-3.6405,-3.6405,-3.6405,-3.6405,-3.6405,-3.6405,-3.6405,-3.6405,-3.6405,-3.6405,-3.6405,-3.6405,-3.6405,-3.6405,-3.6292,-3.5696,-3.5533,-3.537,-3.4868,-3.4763,-3.4713,-3.4663,-3.4248,-3.3884,-3.3834,-3.342,-3.3124,-3.3124,-3.3124,-3.3484,-3.4553,-3.5547,-3.6565,-3.7663,-3.8745,-3.9388,-3.9388,-3.9269,-3.9005,-3.8437,-3.8332,-3.8048,-3.7449,-3.8018,-3.8362,-3.8302,-3.902,-3.9328,-3.9209,-3.929,-3.929,-3.923,-3.929,-3.9334,-3.9334,-3.9394,-3.9388,-3.1951,-3.2641,-3.3018,-3.2792,-3.1248,-2.9289,-2.7417,-2.4971,-2.2732,-2.1458,-2.1358,-2.1594,-2.192,-2.2799,-2.3885,-2.5259,-2.5837,-2.7057,-2.9816,-3.121,-3.2855,-3.5403,-3.6772,0.0,0.0,0.0,0.0,0.0,0.0,0.0,-3.6757,-3.6732,-3.6631,-3.6417,-3.6405,-3.6405,-3.6405,-3.6405,-3.6405,-3.6405,-3.6405,-3.6405,-3.6405,-3.6405,-3.6405,-3.6405,-3.6405,0.0,0.0,-3.6405,-3.6405,-3.6405,-3.6405,-3.6405,-3.6405,-3.6405,-3.6405,-3.6405,-3.6405,-3.6405,-3.6405,-3.6405,-3.6405,-3.6405,-3.6405,-3.6405,-3.6405,-3.6405,-3.6405,-3.6355,-3.6094,-3.6031,-3.5981,-3.5755,-3.5705,-3.5617,-3.5245,-3.4994,-3.4655,-3.4035,-3.3721,-3.347,-3.3174,-3.3124,-3.3484,-3.4553,-3.5047,-3.5922,-3.7587,-3.8182,-3.8671,-3.9337,-3.9388,-3.9305,-3.9035,-3.9005,-3.8901,-3.8631,-3.8856,-3.9005,-3.9005,-3.9275,-3.9388,-3.9388,-3.9388,-3.9388,-3.9388,-3.9388,-3.9388,-3.9388,-3.9388,-3.9388,-3.1135,-3.2026,-3.2579,-3.2579,-3.0922,-2.89,-2.7381,-2.5021,-2.2794,-2.1719,-2.1619,-2.1845,-2.2234,-2.2732,-2.3421,-2.4387,-2.4845,-2.59,-2.8311,-2.9765,-3.1512,0.0,0.0,0.0,0.0,0.0,0.0,0.0,0.0,0.0,-3.643,-3.6405,-3.6405,-3.6405,-3.6405,-3.6405,-3.6405,-3.6405,-3.6405,-3.6405,-3.6405,-3.6405,-3.6405,-3.6405,-3.6405,-3.6405,0.0,0.0,0.0,-3.6405,-3.6405,-3.6405,-3.6405,-3.6405,-3.6405,-3.6405,-3.6405,-3.6405,-3.6405,-3.6405,-3.6405,-3.6405,-3.6405,-3.6405,-3.6405,-3.6405,-3.6405,-3.6405,-3.6405,-3.6405,-3.6405,-3.6405,-3.6405,-3.6405,-3.6405,-3.6304,-3.5868,-3.5621,-3.527,-3.4537,-3.4123,-3.3771,-3.3382,-3.3224,-3.3484,-3.4553,-3.4938,-3.5802,-3.7563,-3.8069,-3.8546,-3.9301,-3.9388,-3.9388,-3.9388,-3.9388,-3.9388,-3.9388,-3.9388,-3.9388,-3.9388,-3.9388,-3.9388,-3.9388,-3.9388,-3.9388,-3.9388,-3.9388,-3.9388,-3.9388,-3.9388,-3.9388,-2.9654,-3.0595,-3.1411,-3.1411,-2.9741,-2.7833,-2.6751,-2.4732,-2.2794,-2.1719,-2.192,-2.2297,-2.2309,-2.2732,-2.3296,-2.3916,-2.4895,-2.6176,-2.7883,-2.9566,-3.1235,0.0,0.0,0.0,0.0,0.0,0.0,0.0,0.0,0.0,-3.6405,-3.6405,-3.6405,-3.6405,-3.6405,-3.6405,-3.6405,-3.6405,-3.6405,-3.6405,-3.6405,-3.6405,-3.6405,-3.6405,-3.6405,0.0,0.0,0.0,0.0,-3.6405,-3.6405,-3.6405,-3.6405,-3.6405,-3.6405,-3.6405,-3.6405,-3.6405,-3.6405,-3.6405,-3.6405,-3.6405,-3.6405,-3.6405,-3.6405,-3.6405,-3.6405,-3.6405,-3.6405,-3.6405,-3.6405,-3.6405,-3.6405,-3.6405,-3.6405,-3.6405,-3.6405,-3.5931,-3.5495,-3.5483,-3.465,-3.3897,-3.3884,-3.3432,-3.3484,-3.4553,-3.5547,-3.6565,-3.7663,-3.8745,-3.9388,-3.9388,-3.9388,-3.9388,-3.9388,-3.9388,-3.9388,-3.9388,-3.9388,-3.9388,-3.9388,-3.9388,-3.9388,-3.9388,-3.9388,-3.9388,-3.9388,-3.9388,-3.9388,-3.9388,-3.9388,-3.9388,-2.7821,-2.8875,-2.9616,-2.9239,-2.8059,-2.6826,-2.6072,-2.4456,-2.3007,-2.2656,-2.2447,-2.2393,-2.2782,-2.2995,-2.3534,-2.4883,-2.5372,-2.6189,-2.7871,0.0,0.0,-3.229,0.0,0.0,0.0,0.0,0.0,0.0,0.0,0.0,-3.6405,-3.6405,-3.6405,-3.6405,-3.6405,-3.6405,-3.6405,-3.6405,-3.6405,-3.6405,-3.6405,-3.6405,-3.6405,-3.6405,0.0,0.0,0.0,0.0,0.0,-3.6405,-3.6405,-3.6405,-3.6405,-3.6405,-3.6405,-3.6405,-3.6405,-3.6405,-3.6405,-3.6405,-3.6405,-3.6405,-3.6405,-3.6405,-3.6405,-3.6405,-3.6405,-3.6405,-3.6405,-3.6405,-3.6405,-3.6405,-3.6405,-3.6405,-3.6405,-3.6405,-3.6405,-3.6267,-3.5994,-3.5571,-3.4919,-3.4349,-3.396,-3.3445,-3.3484,-3.4553,-3.4979,-3.5802,-3.7548,-3.8107,-3.8583,-3.9301,-3.9388,-3.9388,-3.9388,-3.9388,-3.9388,-3.9388,-3.9388,-3.9388,-3.9388,-3.9388,-3.9388,-3.9388,-3.9388,-3.9388,-3.9388,-3.9388,-3.9388,-3.9388,-3.9388,-3.9388,-2.6644,-2.7506,-2.7908,-2.757,-2.6653,-2.5749,-2.5385,-2.4148,-2.3108,-2.3108,-2.2832,-2.2694,-2.3045,-2.2932,-2.3195,-2.4469,-2.4858,-2.5573,0.0,0.0,0.0,-3.1989,0.0,0.0,0.0,0.0,0.0,0.0,0.0,0.0,-3.6405,-3.6405,-3.6405,-3.6405,-3.6405,-3.6405,-3.6405,-3.6405,-3.6405,-3.6405,-3.6405,-3.6405,-3.6405,-3.6405,0.0,0.0,0.0,0.0,0.0,-3.6405,-3.6405,-3.6405,-3.6405,-3.6405,-3.6405,-3.6405,-3.6405,-3.6405,-3.6405,-3.6405,-3.6405,-3.6405,-3.6405,-3.6405,-3.6405,-3.6405,-3.6405,-3.6405,-3.6405,-3.6405,-3.6405,-3.6405,-3.6405,-3.6405,-3.6405,-3.6405,-3.6405,-3.6194,-3.6019,-3.5881,-3.524,-3.4568,-3.4274,-3.3759,-3.3682,-3.4579,-3.502,-3.5882,-3.7601,-3.8144,-3.8671,-3.9337,-3.9388,-3.9388,-3.9388,-3.9388,-3.9388,-3.9388,-3.9388,-3.9388,-3.9388,-3.9388,-3.9388,-3.9388,-3.9388,-3.9388,-3.9388,-3.9388,-3.9388,-3.9388,-3.9388,-3.9388,0.0,-2.6407,-2.6316,-2.626,-2.5448,-2.4675,-2.4675,-2.386,0.0,-2.3108,-2.3108,-2.3108,-2.3158,-2.2706,-2.2543,-2.3183,-2.3791,-2.4732,0.0,-2.8109,0.0,0.0,0.0,0.0,0.0,0.0,0.0,0.0,0.0,0.0,-3.6405,-3.6405,-3.6405,-3.6405,-3.6405,-3.6405,-3.6405,-3.6405,-3.6405,-3.6405,-3.6405,-3.6405,-3.6405,-3.6405,0.0,0.0,0.0,0.0,0.0,-3.6405,-3.6405,-3.6405,-3.6405,-3.6405,-3.6405,-3.6405,-3.6405,-3.6405,-3.6405,-3.6405,-3.6405,-3.6405,-3.6405,-3.6405,-3.6405,-3.6405,-3.6405,-3.6405,-3.6405,-3.6405,-3.6405,-3.6405,-3.6405,-3.6405,-3.6405,-3.6405,-3.6367,-3.5931,-3.573,-3.6204,-3.5454,-3.4705,-3.4675,-3.428,-3.4193,-3.4714,-3.5668,-3.6682,-3.7791,-3.8782,-3.9388,-3.9388,-3.9388,-3.9388,-3.9388,-3.9388,-3.9388,-3.9388,-3.9388,-3.9388,-3.9388,-3.9388,-3.9388,-3.9388,-3.9388,-3.9388,-3.9388,-3.9388,-3.9388,-3.9388,-3.9388,-3.9388,-2.4161,0.0,-2.4542,-2.4028,-2.3697,-2.3496,0.0,-2.3296,-2.3108,-2.3108,-2.3108,-2.3246,-2.3715,-2.3296,-2.3358,-2.4795,-2.5498,-2.6348,-2.7544,0.0,0.0,0.0,0.0,0.0,0.0,0.0,0.0,0.0,0.0,-3.6405,0.0,-3.6405,-3.6405,-3.6405,-3.6405,-3.6405,-3.6405,-3.6405,-3.6405,-3.6405,-3.6405,-3.6405,-3.6405,-3.6405,-3.6405,0.0,0.0,0.0,-3.6405,-3.6405,-3.6405,-3.6405,-3.6405,-3.6405,-3.6405,-3.6405,-3.6405,-3.6405,-3.6405,-3.6405,-3.6405,-3.6405,-3.6405,-3.6405,-3.6405,-3.6405,-3.6405,-3.6405,-3.6405,-3.6405,-3.6405,-3.6405,-3.6405,-3.6405,-3.6405,-3.6292,-3.583,-3.5968,-3.5956,-3.524,-3.5194,-3.5044,-3.4236,-3.4679,-3.5281,-3.5749,-3.6749,-3.7829,-3.8907,-3.9228,-3.9388,-3.9388,-3.9388,-3.9388,-3.9388,-3.9388,-3.9388,-3.9388,-3.9388,-3.9388,-3.9388,-3.9388,-3.9388,-3.9388,-3.9388,-3.9388,-3.9388,-3.9388,-3.9388,-3.9388,-3.9388,-3.9388,-2.354,-2.4119,-2.454,-2.3859,-2.3875,-2.4004,-2.3747,-2.3208,-2.2656,-2.2406,-2.2385,-2.2548,-2.3125,-2.2945,-2.3271,-2.4971,-2.5699,0.0,0.0,0.0,0.0,0.0,0.0,0.0,0.0,0.0,0.0,0.0,0.0,-3.6405,0.0,-3.6405,-3.6405,-3.6405,-3.6405,-3.6405,-3.6405,-3.6405,-3.6405,-3.6405,-3.6405,-3.6405,-3.6405,-3.6405,-3.6405,0.0,0.0,0.0,-3.6405,-3.6405,-3.6405,-3.6405,-3.6405,-3.6405,-3.6405,-3.6405,-3.6405,-3.6405,-3.6405,-3.6405,-3.6405,-3.6405,-3.6405,-3.6405,-3.6405,-3.6405,-3.6405,-3.6405,-3.6405,-3.6405,-3.6405,-3.6405,-3.6405,-3.6405,-3.6405,-3.6329,-3.5981,-3.5755,-3.5516,-3.5119,-3.4893,-3.46,-3.401,-3.4385,-3.5083,-3.6056,-3.6682,-3.761,-3.9177,-3.9388,-3.9388,-3.9388,-3.9388,-3.9388,-3.9388,-3.9388,-3.9388,-3.9388,-3.9388,-3.9388,-3.9388,-3.9388,-3.9388,-3.9388,-3.9388,-3.9388,-3.9388,-3.9388,-3.9388,-3.9388,-3.9388,-3.9388,-2.3681,-2.4694,-2.5536,-2.4605,-2.4813,-2.507,-2.4516,-2.338,-2.2297,-2.1832,-2.1744,-2.1933,-2.2585,-2.2669,0.0,0.0,0.0,0.0,0.0,0.0,0.0,0.0,0.0,0.0,0.0,0.0,0.0,0.0,0.0,-3.6405,0.0,-3.6405,-3.6405,-3.6405,-3.6405,-3.6405,-3.6405,-3.6405,-3.6405,-3.6405,-3.6405,-3.6405,-3.6405,-3.6405,-3.6405,-3.6405,0.0,0.0,-3.6405,-3.6405,-3.6405,-3.6405,-3.6405,-3.6405,-3.6405,-3.6405,-3.6405,-3.6405,-3.6405,-3.6405,-3.6405,-3.6405,-3.6405,-3.6405,-3.6405,-3.6405,-3.6405,-3.6405,-3.6405,-3.6405,-3.6405,-3.6405,-3.6405,-3.6405,-3.6405,-3.638,-3.6304,-3.5579,-3.5039,-3.5207,-3.4675,-3.4073,-3.3822,-3.3966,-3.4555,-3.579,-3.6251,-3.7084,-3.8943,-3.9301,-3.9388,-3.9388,-3.9388,-3.9388,-3.9388,-3.9388,-3.9388,-3.9388,-3.9388,-3.9388,-3.9388,-3.9388,-3.9388,-3.9388,-3.9388,-3.9388,-3.9388,-3.9388,-3.9388,-3.9388,-3.9388,-3.9388,-2.436,-2.5862,-2.681,-2.4882,-2.4793,-2.5041,-2.444,-2.3614,-2.2957,-2.2869,-2.2844,-2.317,-2.4211,-2.4412,-2.4938,0.0,0.0,0.0,0.0,0.0,0.0,0.0,0.0,0.0,0.0,0.0,0.0,0.0,0.0,0.0,0.0,-3.6405,-3.6405,-3.6405,-3.6405,-3.6405,-3.6405,-3.6405,-3.6405,-3.6405,-3.6405,-3.6405,-3.6405,-3.6405,-3.6405,-3.6405,0.0,-3.6405,-3.6405,-3.6405,-3.6405,-3.6405,-3.6405,-3.6405,-3.6405,-3.6405,-3.6405,-3.6405,-3.6405,-3.6405,-3.6405,-3.6405,-3.6405,-3.6405,-3.6405,-3.6405,-3.6405,-3.6405,-3.6405,-3.6405,-3.6405,-3.6405,-3.6405,-3.6405,-3.6405,-3.6279,-3.5768,-3.5906,-3.5717,-3.4412,-3.4731,-3.4806,-3.3445,-3.4354,-3.5168,-3.4936,-3.6436,-3.7663,-3.7994,-3.8819,-3.9388,-3.9388,-3.9388,-3.9388,-3.9388,-3.9388,-3.9388,-3.9388,-3.9388,-3.9388,-3.9388,-3.9388,-3.9388,-3.9388,-3.9388,-3.9388,-3.9388,-3.9388,-3.9388,-3.9388,-3.9388,-3.9388,-2.4013,-2.5292,-2.6366,-2.5745,-2.6204,-2.665,-2.6052,-2.4696,-2.3484,-2.317,-2.3108,-2.3446,0.0,0.0,-2.5988,-2.8273,0.0,0.0,0.0,0.0,0.0,0.0,0.0,0.0,0.0,0.0,0.0,0.0,0.0,0.0,0.0,0.0,-3.6405,-3.6405,-3.6405,-3.6405,-3.6405,-3.6405,-3.6405,-3.6405,-3.6405,-3.6405,-3.6405,-3.6405,-3.6405,-3.6405,0.0,-3.6405,-3.6405,-3.6405,-3.6405,-3.6405,-3.6405,-3.6405,-3.6405,-3.6405,-3.6405,-3.6405,-3.6405,-3.6405,-3.6405,-3.6405,-3.6405,-3.6405,-3.6405,-3.6405,-3.6405,-3.6405,-3.6405,-3.6405,-3.6405,-3.6405,-3.6405,-3.6405,-3.6405,-3.6329,-3.6044,-3.5956,-3.5692,-3.4926,-3.4668,-3.4412,-3.3658,-3.389,-3.4335,-3.4662,-3.6001,-3.7137,-3.7715,-3.8745,-3.9388,-3.9388,-3.9388,-3.9388,-3.9388,-3.9388,-3.9388,-3.9388,-3.9388,-3.9388,-3.9388,-3.9388,-3.9388,-3.9388,-3.9388,-3.9388,-3.9388,-3.9388,-3.9388,-3.9388,-3.9388,-3.9568,-2.3759,-2.4575,-2.557,-2.6378,-2.7108,-2.7617,-2.7759,-2.6035,-2.4367,-2.4238,-2.416,-2.4299,0.0,-2.5963,0.0,-2.9779,0.0,0.0,0.0,0.0,0.0,0.0,0.0,0.0,0.0,0.0,0.0,0.0,0.0,0.0,0.0,-3.6405,-3.6405,-3.6405,-3.6405,-3.6405,-3.6405,-3.6405,-3.6405,-3.6405,-3.6405,-3.6405,-3.6405,-3.6405,-3.6405,-3.6405,-3.6405,-3.6405,-3.6405,-3.6405,-3.6405,-3.6405,-3.6405,-3.6405,-3.6405,-3.6405,-3.6405,-3.6405,-3.6405,-3.6405,-3.6405,-3.6405,-3.6405,-3.6405,-3.6405,-3.6405,-3.6405,-3.6405,-3.6405,-3.6405,-3.6405,-3.6405,-3.6405,-3.6405,-3.6405,-3.6405,-3.6405,-3.6031,-3.5658,-3.552,-3.4763,-3.4048,-3.3922,-3.3445,-3.3484,-3.4553,-3.5547,-3.6565,-3.7663,-3.8745,-3.9388,-3.9388,-3.9388,-3.9388,-3.9388,-3.9388,-3.9388,-3.9388,-3.9388,-3.9388,-3.9388,-3.9388,-3.9388,-3.9388,-3.9388,-3.9388,-3.9388,-3.9388,-3.9388,-3.9388,-3.9388,-3.9768,-2.4201,-2.4605,-2.4978,-2.6273,-2.6132,-2.6316,-2.8713,-2.7402,-2.6026,-2.7307,-2.7275,-2.6854,0.0,-2.8108,-2.988,-3.1085,0.0,0.0,0.0,0.0,0.0,0.0,0.0,0.0,0.0,0.0,0.0,0.0,0.0,0.0,-3.6405,-3.6405,-3.6405,-3.6405,-3.6405,-3.6405,-3.6405,-3.6405,-3.6405,-3.6405,-3.6405,-3.6405,-3.6405,-3.6405,-3.6405,-3.6405,-3.6405,-3.6405,-3.6405,-3.6405,-3.6405,-3.6405,-3.6405,-3.6405,-3.6405,-3.6405,-3.6405,-3.6405,-3.6405,-3.6405,-3.6405,-3.6405,-3.6405,-3.6405,-3.6405,-3.6405,-3.6405,-3.6405,-3.6405,-3.6405,-3.6405,-3.6405,-3.6405,-3.6405,-3.6405,-3.6405,-3.6405,-3.638,-3.6157,-3.5596,-3.5019,-3.45,-3.3985,-3.3445,-3.3484,-3.4553,-3.5547,-3.6565,-3.7663,-3.8745,-3.9388,-3.9388,-3.9388,-3.9388,-3.9388,-3.9388,-3.9388,-3.9388,-3.9388,-3.9388,-3.9388,-3.9388,-3.9388,-3.9388,-3.9388,-3.9388,-3.9388,-3.9388,-3.9388,-3.9388,-3.9388,-3.9768,-2.3281,-2.4014,-2.4829,-2.5749,-2.6401,-2.7354,-2.9464,-2.8642,-2.7827,-2.9233,-2.9166,-2.8674,0.0,0.0,-3.0821,0.0,0.0,0.0,0.0,0.0,0.0,0.0,0.0,0.0,0.0,0.0,0.0,0.0,0.0,0.0,0.0,-3.5529,-3.5504,-3.5843,-3.5855,-3.6019,-3.6405,-3.6405,-3.6405,-3.6405,-3.6405,-3.6405,-3.6405,-3.6405,-3.6405,-3.6405,-3.6405,-3.6405,-3.6405,-3.6405,-3.6405,-3.6405,-3.6405,-3.6405,-3.6405,-3.6405,-3.6405,-3.6405,-3.6405,-3.6405,-3.6405,-3.6405,-3.6405,-3.6405,-3.6405,-3.6405,-3.6405,-3.6405,-3.6405,-3.6405,-3.6405,-3.6405,-3.6405,-3.6405,-3.6405,-3.6405,-3.6405,-3.6405,-3.6342,-3.6094,-3.5604,-3.538,-3.5921,-3.5578,-3.5575,-3.6714,-3.7402,-3.7965,-3.8381,-3.8996,-3.9388,-3.9388,-3.9388,-3.9388,-3.9388,-3.9388,-3.9388,-3.9388,-3.9388,-3.9388,-3.9388,-3.9388,-3.9388,-3.9388,-3.9388,-3.9388,-3.9388,-3.9388,-3.9388,-3.9388,-3.9843,-4.0382,-2.2748,-2.3475,-2.45,-2.5367,-2.6602,-2.8204,-3.047,-3.0199,-2.995,-3.1599,-3.0903,-2.9897,-2.9504,0.0,0.0,0.0,0.0,0.0,0.0,0.0,0.0,0.0,0.0,0.0,0.0,0.0,0.0,0.0,0.0,0.0,0.0,-3.4881,-3.4856,-3.5232,-3.5245,-3.5466,-3.5843,-3.5843,-3.5843,-3.5889,-3.6189,-3.6366,-3.6405,-3.6405,-3.6405,-3.6405,-3.6405,-3.6405,-3.6405,-3.6405,-3.6405,-3.6405,-3.6405,-3.6405,-3.6452,-3.6803,-3.6709,-3.6452,-3.6803,-3.6709,-3.6405,-3.6405,-3.6405,-3.6405,-3.6405,-3.6405,-3.6405,-3.6405,-3.6405,-3.6405,-3.6405,-3.6405,-3.6405,-3.6405,-3.6405,-3.6405,-3.6405,-3.6405,-3.6405,-3.6405,-3.6219,-3.6315,-3.7161,-3.7154,-3.7421,-3.8543,-3.8931,-3.9165,-3.9284,-3.9558,-3.9649,-3.9403,-3.9388,-3.9388,-3.9388,-3.9388,-3.9388,-3.9388,-3.9388,-3.9388,-3.9388,-3.9388,-3.9388,-3.9388,-3.9388,-3.9388,-3.9388,-3.9388,-3.9388,-3.9439,-4.0098,-4.0756,-2.2853,-2.3152,-2.3924,-2.527,-2.6617,-2.8498,-3.1764,-3.2194,-3.2491,-3.4554,-3.2636,-3.0558,-3.0591,-3.022,0.0,0.0,0.0,0.0,0.0,0.0,0.0,0.0,0.0,0.0,0.0,0.0,0.0,0.0,0.0,0.0,0.0,-3.47,-3.47,-3.4713,-3.4713,-3.4713,-3.4726,-3.4726,-3.4726,-3.4726,-3.5807,-3.6315,-3.6392,-3.6392,-3.6392,-3.6392,-3.6392,-3.6392,-3.6392,-3.6405,-3.6405,-3.6405,-3.6405,-3.6405,-3.6534,-3.7678,-3.7368,-3.6581,-3.7723,-3.7368,-3.6405,-3.6405,-3.6405,-3.6405,-3.6405,-3.6405,-3.6405,-3.6452,-3.6405,-3.6405,-3.6405,-3.6405,-3.6405,-3.6405,-3.6405,-3.6405,-3.6405,-3.6405,-3.6405,-3.6405,-3.6916,-3.7294,-3.7338,-3.7842,-3.8612,-3.969,-3.9809,-3.9945,-4.036,-4.0397,-4.0142,-3.9448,-3.9388,-3.9388,-3.9388,-3.9388,-3.9388,-3.9388,-3.9388,-3.9388,-3.9388,-3.9388,-3.9388,-3.9388,-3.9388,-3.9388,-3.9388,-3.9388,-3.9388,-3.9439,-4.0098,-4.0756,-2.2179,-2.3131,-2.4619,-2.5974,-2.8338,-3.0866,-3.2766,-3.2898,-3.2877,-3.3881,-3.3693,-3.3159,-3.2398,0.0,0.0,0.0,0.0,0.0,0.0,0.0,0.0,0.0,0.0,0.0,0.0,0.0,0.0,0.0,0.0,0.0,0.0,-3.599,-3.5949,-3.6379,-3.5657,-3.5449,-3.5794,-3.5092,-3.5092,-3.5851,-3.6144,-3.6315,-3.6313,-3.6313,-3.6313,-3.6313,-3.6313,-3.5891,-3.524,-3.5629,-3.6493,-3.7494,-3.6709,-3.6883,-3.7632,-3.7984,-3.7893,-3.7632,-3.7984,-3.7893,-3.7461,-3.6675,-3.6405,-3.6534,-3.7368,-3.7586,-3.7769,-3.8617,-3.8257,-3.7586,-3.7586,-3.7023,-3.6405,-3.6405,-3.6405,-3.6405,-3.6405,-3.6405,-3.6628,-3.7461,-3.7749,-3.8381,-4.0053,-4.0462,-4.0984,-4.2109,-4.1898,-4.1332,-4.0509,-3.9993,-3.9634,-3.9403,-3.9388,-3.9388,-3.9388,-3.9388,-3.9388,-3.9388,-3.9388,-3.9388,-3.9388,-3.9388,-3.9388,-3.9388,-3.9388,-3.9388,-3.9388,-3.9388,-3.9388,-3.9454,-4.0561,-4.119,-2.361,-2.4702,-2.6243,-2.8098,-3.0031,-3.1989,-3.3873,0.0,0.0,0.0,-3.5085,-3.4976,-3.4111,-3.4569,0.0,0.0,0.0,0.0,0.0,0.0,0.0,0.0,0.0,0.0,0.0,0.0,0.0,0.0,0.0,0.0,0.0,-3.618,-3.6377,-3.6724,-3.613,-3.5936,-3.6257,-3.5608,-3.5608,-3.6257,-3.6673,-3.6893,-3.6907,-3.6922,-3.6681,-3.6305,-3.6305,-3.6056,-3.566,-3.6005,-3.6897,-3.8017,-3.7322,-3.7769,-3.8872,-3.9332,-3.92,-3.8827,-3.8827,-3.8514,-3.7893,-3.6756,-3.6405,-3.6534,-3.7243,-3.7756,-3.8243,-3.8961,-3.9006,-3.8827,-3.8827,-3.7939,-3.6977,-3.6499,-3.6405,-3.6546,-3.6977,-3.7057,-3.7415,-3.8604,-3.9169,-3.9931,-4.1378,-4.1988,-4.2508,-4.321,-4.2566,-4.1722,-4.0891,-3.9993,-3.9388,-3.9388,-3.9388,-3.9388,-3.9388,-3.9388,-3.9493,-3.9783,-3.9813,-3.9813,-3.9813,-3.9559,-3.9388,-3.9388,-3.9388,-3.9388,-3.9388,-3.9388,-3.9559,-3.9828,-4.0891,-4.1557,-2.6004,-2.6911,-2.8154,-3.0823,-3.169,0.0,-3.4951,-3.6447,-3.7189,-3.6707,0.0,-3.6216,-3.5627,0.0,0.0,0.0,0.0,0.0,0.0,0.0,0.0,0.0,0.0,0.0,0.0,0.0,0.0,0.0,0.0,0.0,0.0,-3.5948,-3.6487,-3.6487,-3.6408,-3.6369,-3.6369,-3.6237,-3.6237,-3.6369,-3.7343,-3.7829,-3.7947,-3.7912,-3.7342,-3.6436,-3.635,-3.6594,-3.7091,-3.7144,-3.759,-3.8164,-3.8217,-3.9006,-4.0189,-4.1211,-4.0958,-4.0073,-4.0073,-3.9271,-3.8075,-3.693,-3.6499,-3.6405,-3.6546,-3.7276,-3.8153,-3.8366,-3.9125,-3.9942,-4.0029,-3.9183,-3.7984,-3.6977,-3.6628,-3.6849,-3.7893,-3.8198,-3.8604,-3.9798,-4.0873,-4.1629,-4.1726,-4.2589,-4.329,-4.329,-4.2252,-4.1429,-4.1422,-4.0232,-3.9388,-3.9388,-3.9388,-3.9388,-3.9388,-3.9388,-3.9709,-4.0382,-4.0502,-4.0531,-4.0487,-3.9858,-3.9448,-3.9388,-3.9388,-3.9388,-3.9388,-3.9448,-3.9813,-4.0412,-4.113,-4.1826,-2.4163,-2.5495,0.0,-3.0718,-3.308,-3.4801,-3.537,-3.6118,-3.6431,-3.5486,-3.6708,-3.7617,0.0,0.0,0.0,0.0,0.0,0.0,0.0,0.0,0.0,0.0,0.0,0.0,0.0,0.0,0.0,0.0,0.0,0.0,-3.7151,-3.8144,-3.8694,-3.8694,-3.789,-3.7472,-3.7472,-3.6604,-3.6604,0.0,-3.7715,-3.8234,-3.9031,-3.8193,-3.7717,-3.743,-3.6572,-3.6552,-3.7125,-3.7673,-3.8262,-3.8851,-3.9344,-4.0232,-4.1253,-4.1504,-4.1462,-4.1211,-4.1211,-4.049,-3.9316,-3.8121,-3.715,-3.6581,-3.7461,-3.7893,-3.8456,-4.0333,-4.039,-4.0116,-4.1,-4.039,-3.9461,-3.9197,-3.8424,-3.7802,-3.8062,-3.8827,-3.9842,-4.1,-4.142,-4.1891,-4.2765,-4.3155,-4.329,-4.329,-4.2467,-4.1773,-4.1429,-4.0232,-3.9388,-3.9388,-3.9388,-3.9388,-3.9388,-3.9388,-3.9732,-4.0569,-4.1257,-4.1519,-4.119,-4.0531,-3.9948,-3.9388,-3.9388,-3.9388,-3.9388,-3.9933,-4.0262,-4.0427,-4.1647,-4.2261,-2.4687,-2.6258,0.0,-3.1644,0.0,-3.5504,-3.5504,-3.5774,-3.5866,-3.5286,-3.666,0.0,0.0,0.0,0.0,0.0,0.0,0.0,0.0,0.0,0.0,0.0,0.0,0.0,0.0,0.0,0.0,0.0,0.0,-3.8345,-3.7829,-3.8819,-3.9388,-3.9388,-3.887,-3.8583,-3.8583,-3.8003,-3.8003,-3.8583,-3.8583,-3.887,-3.9337,-3.8308,-3.8069,-3.8509,-3.742,-3.7465,-3.8297,-3.8661,-3.9195,-3.9815,-4.0464,-4.1248,-4.2041,-4.2309,-4.2412,-4.233,-4.1809,-4.0873,-3.9724,-3.8514,-3.7322,-3.6499,-3.7103,-3.8075,-3.9227,-4.0447,-4.1141,-4.1657,-4.2249,-4.156,-4.0703,-4.0703,-3.9828,-3.9125,-3.9683,-4.0261,-4.1042,-4.2193,-4.2412,-4.2589,-4.321,-4.329,-4.329,-4.329,-4.2901,-4.2342,-4.1489,-4.0786,-4.0113,-3.9484,-3.9388,-3.9896,-4.1152,-4.1257,-4.1272,-4.1302,-4.1735,-4.1968,-4.1886,-4.1557,-4.1025,-4.0367,-4.0367,-4.0367,-4.0367,-4.0711,-4.1025,-4.1354,-4.2081,-4.256,-2.5323,-2.732,-2.9535,-3.2706,-3.4412,0.0,-3.5474,-3.5504,-3.5504,-3.5504,0.0,0.0,0.0,0.0,0.0,0.0,0.0,0.0,0.0,0.0,0.0,0.0,0.0,0.0,0.0,0.0,0.0,0.0,0.0,-3.8943,-3.7866,-3.8819,-3.9388,-3.9388,-3.9388,-3.9388,-3.9388,-3.9388,-3.9388,-3.9388,-3.9388,-3.9388,-3.9373,-3.8472,-3.8546,-3.9337,-3.8472,-3.8548,-3.9305,-3.9632,-4.0011,-4.055,-4.1389,-4.2081,-4.262,-4.3015,-4.3125,-4.2976,-4.1916,-4.0885,-3.982,-3.8622,-3.7554,-3.6675,-3.6675,-3.7906,-3.9417,-4.0015,-4.1393,-4.282,-4.321,-4.2589,-4.1891,-4.1891,-4.1169,-4.0717,-4.142,-4.1767,-4.2152,-4.3115,-4.329,-4.329,-4.329,-4.329,-4.329,-4.329,-4.329,-4.2901,-4.1848,-4.1713,-4.1294,-4.0202,-4.0061,-4.0943,-4.311,-4.329,-4.2991,-4.2258,-4.2213,-4.2342,-4.256,-4.2575,-4.2267,-4.1728,-4.1489,-4.1422,-4.1422,-4.1527,-4.1871,-4.2396,-4.2515,-4.2821,-2.2972,0.0,-3.0131,0.0,-3.4053,-3.4771,0.0,0.0,-3.5504,0.0,0.0,0.0,0.0,0.0,0.0,0.0,0.0,0.0,0.0,0.0,0.0,0.0,0.0,0.0,0.0,0.0,0.0,0.0,-3.8782,-3.8943,-3.7866,-3.8819,-3.9388,-3.9388,-3.9388,-3.9388,-3.9388,-3.9388,-3.9388,-3.9388,-3.9388,-3.9388,-3.9388,-3.9265,-3.9265,-3.9388,-3.9265,-3.876,-3.8169,-3.9689,-4.0127,-4.0061,-4.1671,-4.2658,-4.315,-4.2671,-4.253,-4.2417,-4.1665,-4.1042,-4.0315,-3.9155,-3.8397,-3.7848,-3.7848,-3.7415,-3.7507,-4.0504,-4.0873,-4.0802,-4.278,-4.321,-4.3076,-4.3076,-4.2955,-4.2603,-4.1767,-4.2371,-4.3115,-4.325,-4.329,-4.329,-4.329,-4.329,-4.329,-4.329,-4.329,-4.323,-4.305,-4.3035,-4.2961,-4.2781,-4.2766,-4.2916,-4.326,-4.329,-4.3245,-4.3125,-4.3125,-4.3125,-4.317,-4.317,-4.3125,-4.3035,-4.1953,-4.1422,-4.1422,-4.1991,-4.2306,-4.241,-4.294,-4.32,-2.4215,-2.6926,-2.9759,0.0,-3.3978,-3.4698,-3.5355,0.0,-3.5504,0.0,0.0,0.0,0.0,0.0,0.0,0.0,0.0,0.0,0.0,0.0,0.0,0.0,0.0,0.0,0.0,0.0,0.0,0.0,-3.9141,-3.9177,-3.8708,-3.9141,-3.9388,-3.9388,-3.9388,-3.9388,-3.9388,-3.9388,-3.9388,-3.9388,-3.9388,-3.9388,-3.9388,-3.9388,-3.9388,-3.9388,-3.9388,-3.9349,-3.9334,-4.0479,-4.0612,-4.0271,-4.1799,-4.2087,-4.1698,-4.1788,-4.1856,-4.1811,-4.1512,-4.0431,-3.9196,-3.9278,-3.8552,-3.7753,-3.8361,-3.8898,-3.9626,-4.1155,-4.1684,-4.2044,-4.3036,-4.329,-4.329,-4.329,-4.329,-4.3155,-4.2684,-4.2941,-4.329,-4.329,-4.329,-4.329,-4.329,-4.329,-4.329,-4.329,-4.329,-4.329,-4.329,-4.329,-4.329,-4.329,-4.329,-4.329,-4.329,-4.329,-4.329,-4.329,-4.329,-4.329,-4.329,-4.329,-4.329,-4.329,-4.2776,-4.2476,-4.2476,-4.2761,-4.2895,-4.291,-4.317,-4.329,-2.4657,-2.6572,-2.8382,-3.1674,-3.3125,-3.3993,0.0,0.0,0.0,0.0,0.0,0.0,0.0,0.0,0.0,0.0,0.0,0.0,0.0,0.0,0.0,0.0,0.0,0.0,0.0,0.0,0.0,0.0,-3.9388,-3.9388,-3.9388,-3.9388,-3.9388,-3.9388,-3.9388,-3.9388,-3.9388,-3.9388,-3.9388,-3.9388,-3.9388,-3.9388,-3.9388,-3.9388,-3.9388,-3.9388,-3.9388,-3.9694,-4.0187,-4.0681,-4.0786,-4.0726,-4.1587,-4.1564,-4.116,-4.1324,-4.1422,-4.1392,-4.119,-4.0164,-3.9005,-3.9462,-3.9061,-3.8534,-3.9351,-4.0323,-4.1295,-4.185,-4.2426,-4.2941,-4.321,-4.329,-4.329,-4.329,-4.329,-4.329,-4.329,-4.329,-4.329,-4.329,-4.329,-4.329,-4.329,-4.329,-4.329,-4.329,-4.329,-4.329,-4.329,-4.329,-4.329,-4.329,-4.329,-4.329,-4.329,-4.329,-4.329,-4.329,-4.329,-4.329,-4.329,-4.329,-4.329,-4.329,-4.329,-4.329,-4.329,-4.329,-4.329,-4.329,-4.329,-4.329,-2.2328,-2.3834,-2.5606,-2.8978,-3.0746,0.0,0.0,0.0,0.0,0.0,0.0,0.0,0.0,0.0,0.0,0.0,0.0,0.0,0.0,0.0,0.0,0.0,0.0,0.0,0.0,0.0,0.0,0.0,-3.9388,-3.9388,-3.9388,-3.9388,-3.9388,-3.9388,-3.9388,-3.9388,-3.9388,-3.9388,-3.9388,-3.9388,-3.9388,-3.9388,-3.9388,-3.9388,-3.9388,-3.9388,-3.9388,-3.9403,-3.9433,-3.9514,-4.0232,-4.1265,-4.0726,-4.1594,-4.2991,-4.1818,-4.1422,-4.1294,-4.0666,-4.0771,-4.105,-3.9967,-4.0414,-4.1363,-4.1446,-4.076,-4.0461,-4.2603,-4.2467,-4.1932,-4.3036,-4.329,-4.329,-4.329,-4.329,-4.329,-4.329,-4.329,-4.329,-4.329,-4.329,-4.329,-4.329,-4.329,-4.329,-4.329,-4.329,-4.329,-4.329,-4.329,-4.329,-4.329,-4.329,-4.329,-4.329,-4.329,-4.329,-4.329,-4.329,-4.329,-4.329,-4.329,-4.329,-4.329,-4.329,-4.329,-4.329,-4.329,-4.329,-4.329,-4.329,-4.329,-2.2269,-2.331,0.0,-2.76,-2.9295,-3.0687,-3.2228,0.0,0.0,0.0,0.0,0.0,0.0,0.0,0.0,0.0,0.0,0.0,0.0,0.0,0.0,0.0,0.0,0.0,0.0,0.0,0.0,0.0,0.0,-3.9388,-3.9388,-3.9388,-3.9388,-3.9388,-3.9388,-3.9388,-3.9388,-3.9388,-3.9388,-3.9388,-3.9388,-3.9388,-3.9388,-3.9388,-3.9388,-3.9388,-3.9388,-3.9388,-3.9484,-4.0337,-4.0711,-4.0771,-4.095,-4.1459,-4.1968,-4.1085,-4.101,-4.1392,-4.1115,-4.0766,-4.0412,-4.0674,-4.0919,-4.1064,-4.0982,-4.149,-4.2085,-4.2193,-4.2426,-4.2805,-4.321,-4.329,-4.3115,-4.2371,-4.2029,-4.207,-4.3076,-4.329,-4.329,-4.329,-4.329,-4.329,-4.329,-4.329,-4.329,-4.329,-4.329,-4.329,-4.329,-4.329,-4.329,-4.329,-4.329,-4.329,-4.329,-4.329,-4.329,-4.329,-4.329,-4.329,-4.329,-4.329,-4.329,-4.329,-4.329,-4.329,-4.329,-4.329,-4.329,-4.329,-4.329,-4.3514,-2.152,-2.2478,0.0,0.0,0.0,-2.8891,-3.1286,0.0,0.0,0.0,0.0,0.0,0.0,0.0,0.0,0.0,0.0,0.0,0.0,0.0,0.0,0.0,0.0,0.0,0.0,0.0,0.0,0.0,0.0,0.0,-3.9388,-3.9388,-3.9388,-3.9388,-3.9388,-3.9388,-3.9388,-3.9388,-3.9388,-3.9388,-3.9388,-3.9388,-3.9388,-3.9388,-3.9388,-3.9388,-3.9388,-3.9388,-3.9514,-4.0591,-4.092,-4.0771,-4.1205,-4.1654,-4.1953,-4.1294,-4.119,-4.1414,-4.1677,-4.1098,-4.0495,-4.1418,-4.169,-4.1565,-4.109,-4.2034,-4.3076,-4.1932,-4.2152,-4.2805,-4.321,-4.3036,-4.2548,-4.1767,-4.142,-4.1587,-4.2981,-4.329,-4.329,-4.329,-4.329,-4.329,-4.329,-4.329,-4.329,-4.329,-4.329,-4.329,-4.329,-4.329,-4.329,-4.329,-4.329,-4.329,-4.329,-4.329,-4.329,-4.329,-4.329,-4.329,-4.329,-4.329,-4.329,-4.329,-4.329,-4.329,-4.329,-4.329,-4.329,-4.329,-4.329,-4.3768,0.0,0.0,0.0,0.0,0.0,0.0,0.0,0.0,0.0,0.0,0.0,0.0,0.0,0.0,0.0,0.0,0.0,0.0,0.0,0.0,0.0,0.0,0.0,0.0,0.0,0.0,0.0,0.0,-3.9388,-3.9388,-3.9388,-3.9388,-3.9388,-3.9388,-3.9388,-3.9388,-3.9388,-3.9388,-3.9388,-3.9388,-3.9388,-3.9388,-3.9388,-3.9388,-3.9388,-3.9388,-3.9403,-3.9454,-3.9463,-4.0157,-4.0816,-4.1452,-4.1452,-4.2207,-4.3215,-4.2635,-4.2006,-4.1572,-4.2216,-4.2006,-4.1549,-4.2231,-4.2821,-4.3076,-4.1932,-4.2412,-4.3076,-4.1932,-4.1587,-4.185,-4.29,-4.2371,-4.1545,-4.1545,-4.1587,-4.1891,-4.2981,-4.325,-4.329,-4.329,-4.329,-4.329,-4.329,-4.329,-4.329,-4.329,-4.329,-4.329,-4.329,-4.329,-4.329,-4.329,-4.329,-4.329,-4.329,-4.329,-4.329,-4.329,-4.329,-4.329,-4.329,-4.329,-4.329,-4.329,-4.329,-4.329,-4.329,-4.329,-4.329,-4.329,-4.3319,-4.4062,-2.0617,0.0,0.0,0.0,0.0,0.0,0.0,0.0,0.0,0.0,0.0,0.0,0.0,0.0,0.0,0.0,0.0,0.0,0.0,0.0,0.0,0.0,0.0,0.0,0.0,0.0,0.0,0.0,-3.9388,-3.9388,-3.9388,-3.9388,-3.9388,-3.9388,-3.9388,-3.9388,-3.9388,-3.9388,-3.9388,-3.9388,-3.9388,-3.9388,-3.9388,-3.9388,-3.9388,-3.9454,-3.9918,-4.0127,-4.0187,-4.0846,-4.1527,-4.2126,-4.2126,-4.2596,-4.3215,-4.2635,-4.2551,-4.2821,-4.3,-4.294,-4.2821,-4.3,-4.314,-4.3076,-4.1932,-4.2412,-4.3076,-4.1932,-4.1587,-4.1462,-4.0972,-4.0632,-4.0361,-4.0361,-4.0788,-4.1239,-4.1587,-4.2508,-4.329,-4.329,-4.329,-4.329,-4.329,-4.329,-4.329,-4.329,-4.329,-4.329,-4.329,-4.329,-4.329,-4.329,-4.329,-4.329,-4.329,-4.329,-4.329,-4.329,-4.329,-4.329,-4.329,-4.329,-4.329,-4.329,-4.329,-4.329,-4.329,-4.329,-4.329,-4.3305,-4.3783,-4.4496,-2.138,-2.1605,-2.2233,0.0,0.0,0.0,0.0,-2.6737,0.0,0.0,0.0,0.0,0.0,0.0,0.0,0.0,0.0,0.0,0.0,0.0,0.0,0.0,0.0,0.0,0.0,-3.9388,-3.9388,-3.9388,-3.9388,-3.9388,-3.9388,-3.9388,-3.9388,-3.9388,-3.9388,-3.9388,-3.9388,-3.9388,-3.9388,-3.9388,-3.9388,-3.9388,-3.9388,-3.9388,-3.9388,-3.9403,-3.9828,-4.0307,-4.0846,-4.122,-4.1811,-4.2425,-4.2671,-4.3,-4.3245,-4.291,-4.2836,-4.297,-4.32,-4.3125,-4.297,-4.32,-4.329,-4.2996,-4.1393,-4.1699,-4.233,-4.1211,-4.1211,-4.1112,-3.9006,-3.9152,-3.9812,-3.9492,-4.0218,-4.1197,-4.1809,-4.2684,-4.329,-4.329,-4.329,-4.329,-4.329,-4.329,-4.329,-4.329,-4.329,-4.329,-4.329,-4.329,-4.329,-4.329,-4.329,-4.3738,-4.4859,-4.3932,-4.329,-4.329,-4.329,-4.329,-4.329,-4.329,-4.329,-4.329,-4.329,-4.329,-4.329,-4.329,-4.329,-4.3305,-4.4003,-4.4661,-2.2353,-2.2458,-2.3146,-2.4216,0.0,0.0,-2.7036,-2.7126,0.0,0.0,0.0,0.0,0.0,0.0,0.0,0.0,0.0,0.0,0.0,0.0,0.0,0.0,0.0,0.0,-3.9388,-3.9388,-3.9388,-3.9388,-3.9388,-3.9388,-3.9388,-3.9388,-3.9388,-3.9388,-3.9388,-3.9388,-3.9388,-3.9388,-3.9388,-3.9388,-3.9388,-3.9388,-3.9388,-3.9388,-3.9388,-3.9388,-3.9499,-4.0232,-4.1422,-4.1422,-4.1841,-4.256,-4.3105,-4.329,-4.329,-4.329,-4.297,-4.259,-4.3135,-4.2955,-4.2605,-4.315,-4.321,-4.2725,-4.0717,-4.0788,-4.1378,-4.0232,-4.0532,-4.0462,-3.7243,-3.8134,-3.9724,-3.8903,-4.0017,-4.1629,-4.2981,-4.329,-4.329,-4.329,-4.329,-4.329,-4.329,-4.329,-4.329,-4.329,-4.329,-4.329,-4.329,-4.329,-4.329,-4.329,-4.3559,-4.4695,-4.71,-4.5098,-4.3604,-4.3319,-4.329,-4.329,-4.329,-4.329,-4.329,-4.329,-4.329,-4.329,-4.329,-4.329,-4.329,-4.3305,-4.3888,-4.4601,-2.4246,-2.4126,-2.4156,-2.3879,0.0,0.0,-2.3886,-2.4448,-2.5472,0.0,0.0,0.0,0.0,0.0,0.0,0.0,0.0,0.0,0.0,0.0,0.0,0.0,0.0,0.0,-3.9388,-3.9388,-3.9388,-3.9388,-3.9388,-3.9388,-3.9388,-3.9388,-3.9388,-3.9388,-3.9388,-3.9388,-3.9388,-3.9388,-3.9388,-3.9388,-3.9388,-3.9388,-3.9388,-3.9388,-3.9388,-3.9454,-3.9978,-4.0651,-4.1422,-4.1422,-4.2073,-4.3125,-4.3245,-4.329,-4.329,-4.329,-4.3215,-4.3125,-4.3245,-4.32,-4.3125,-4.3245,-4.2684,-4.185,-4.142,-4.142,-4.1378,-4.0232,-3.9346,-3.8411,-3.6803,-3.8134,-3.9724,-3.8903,-4.0845,-4.2941,-4.325,-4.329,-4.329,-4.329,-4.329,-4.329,-4.329,-4.329,-4.329,-4.329,-4.329,-4.329,-4.329,-4.329,-4.329,-4.329,-4.5244,-4.6741,-4.7264,-4.683,-4.5618,-4.3424,-4.329,-4.329,-4.329,-4.329,-4.329,-4.329,-4.329,-4.329,-4.329,-4.329,-4.329,-4.329,-4.3424,-4.4152,-2.5367,-2.5098,-2.5098,-2.5106,0.0,0.0,0.0,0.0,-2.4687,-2.6686,0.0,0.0,0.0,0.0,0.0,0.0,0.0,0.0,0.0,0.0,0.0,0.0,0.0,0.0,-3.9388,-3.9388,-3.9388,-3.9388,-3.9388,-3.9388,-3.9388,-3.9388,-3.9388,-3.9388,-3.9388,-3.9388,-3.9388,-3.9388,-3.9388,-3.9388,-3.9388,-3.9388,-3.9388,-3.9388,-3.9388,-3.9439,-3.9768,-4.0292,-4.0891,-4.0891,-4.1474,-4.2402,-4.2716,-4.2656,-4.2432,-4.305,-4.3135,-4.2895,-4.3185,-4.329,-4.321,-4.2644,-4.207,-4.1378,-4.0204,-3.9844,-3.964,-3.8482,-3.8121,-3.7848,-3.6709,-3.7861,-3.9316,-3.9316,-4.1351,-4.329,-4.329,-4.329,-4.329,-4.329,-4.329,-4.329,-4.329,-4.329,-4.329,-4.329,-4.329,-4.329,-4.329,-4.329,-4.329,-4.329,-4.4485,-4.5858,-4.7189,-4.7309,-4.6172,-4.3469,-4.329,-4.329,-4.329,-4.329,-4.329,-4.329,-4.329,-4.329,-4.329,-4.329,-4.329,-4.329,-4.329,-4.4032,0.0,0.0,0.0,0.0,0.0,-2.4822,0.0,0.0,0.0,-2.6447,0.0,0.0,0.0,0.0,0.0,0.0,0.0,0.0,0.0,0.0,0.0,0.0,0.0,0.0,0.0,-3.8931,-3.9005,-3.9358,-3.9065,-3.902,-3.9394,-3.9388,-3.9388,-3.9388,-3.9388,-3.9388,-3.9388,-3.9388,-3.9388,-3.9388,-3.9388,-3.9388,-3.9388,-3.9388,-3.9388,-3.9388,-3.9388,-3.9783,-4.0382,-4.0262,-4.0591,-4.125,-4.1961,-4.1961,-4.1698,-4.2761,-4.2895,-4.2626,-4.315,-4.3155,-4.2805,-4.1891,-4.128,-4.059,-3.868,-3.7939,-3.7632,-3.693,-3.7243,-3.754,-3.6628,-3.754,-3.8903,-3.9724,-4.1657,-4.329,-4.329,-4.2589,-4.2249,-4.3115,-4.329,-4.329,-4.329,-4.329,-4.329,-4.329,-4.329,-4.329,-4.329,-4.329,-4.329,-4.329,-4.329,-4.4381,-4.707,-4.683,-4.5618,-4.3424,-4.329,-4.329,-4.329,-4.329,-4.329,-4.329,-4.329,-4.329,-4.329,-4.329,-4.329,-4.329,-4.3424,-4.4152,0.0,0.0,0.0,0.0,-2.732,0.0,0.0,0.0,-2.5121,-2.4238,0.0,0.0,0.0,0.0,0.0,0.0,0.0,0.0,0.0,0.0,0.0,0.0,0.0,0.0,0.0,-3.7135,-3.7539,-3.9254,-3.7808,-3.7584,-3.9334,-3.9388,-3.9388,-3.9388,-3.9388,-3.9388,-3.9388,-3.9388,-3.9388,-3.9388,-3.9388,-3.9388,-3.9388,-3.9388,-3.9388,-3.9388,-3.9388,-3.9783,-4.0352,-3.9768,-3.9918,-4.0576,-4.1235,-4.1841,-4.2306,-4.2455,-4.2791,-4.32,-4.3275,-4.2644,-4.1767,-4.1629,-4.0204,-3.8456,-3.8198,-3.7368,-3.6803,-3.7678,-3.7276,-3.6534,-3.6452,-3.754,-3.8903,-3.9724,-4.1657,-4.329,-4.329,-4.006,-3.8411,-4.2508,-4.329,-4.329,-4.329,-4.329,-4.329,-4.329,-4.329,-4.329,-4.329,-4.329,-4.329,-4.329,-4.329,-4.4381,-4.707,-4.514,-4.3618,-4.3319,-4.329,-4.329,-4.329,-4.329,-4.329,-4.329,-4.329,-4.329,-4.329,-4.329,-4.329,-4.3305,-4.3888,-4.4601,0.0,0.0,0.0,0.0,0.0,0.0,-2.5255,0.0,-2.4507,0.0,0.0,0.0,0.0,0.0,0.0,0.0,0.0,0.0,0.0,0.0,0.0,0.0,0.0,0.0,0.0,0.0,0.0,0.0,-3.715,-3.7165,-3.8736,-3.92,-3.9388,-3.9388,-3.9388,-3.9388,-3.9388,-3.9388,-3.9388,-3.9388,-3.9388,-3.9388,-3.9388,-3.9388,-3.9388,-3.9388,-3.9388,-3.9574,-3.9813,-3.9529,-3.9813,-4.0427,-4.0711,-4.098,-4.1369,-4.2506,-4.2865,-4.2727,-4.2416,-4.1988,-4.1378,-4.0017,-3.8456,-3.7103,-3.7103,-3.6803,-3.6499,-3.6977,-3.6756,-3.6534,-3.7196,-3.7368,-3.7678,-3.8903,-4.1295,-4.2548,-3.9887,-3.7756,-3.7756,-4.2412,-4.329,-4.329,-4.329,-4.329,-4.329,-4.329,-4.329,-4.329,-4.329,-4.329,-4.329,-4.329,-4.329,-4.3753,-4.4859,-4.3932,-4.329,-4.329,-4.329,-4.329,-4.329,-4.329,-4.329,-4.329,-4.329,-4.329,-4.329,-4.329,-4.3484,-4.3873,-4.4182,-4.4885,-3.0342,0.0,0.0,0.0,0.0,0.0,0.0,0.0,0.0,0.0,0.0,0.0,0.0,0.0,0.0,0.0,0.0,0.0,0.0,0.0,0.0,0.0,0.0,0.0,0.0,0.0,0.0,0.0,0.0,-3.6267,-3.8287,-3.8871,-3.923,-3.9373,-3.9388,-3.9388,-3.9388,-3.9388,-3.9388,-3.9388,-3.9388,-3.9388,-3.9388,-3.9388,-3.9388,-3.9388,-3.9388,-3.9388,-3.9388,-3.9388,-3.9709,-4.0172,-4.0531,-4.0666,-4.0861,-4.2476,-4.2669,-4.2129,-4.1732,-4.1197,-4.0333,-3.8289,-3.7057,-3.6405,-3.6405,-3.6405,-3.6405,-3.6405,-3.6405,-3.6581,-3.7415,-3.7322,-3.7196,-3.7893,-3.9757,-4.0504,-3.715,-3.6405,-3.7756,-4.2412,-4.329,-4.329,-4.329,-4.329,-4.329,-4.329,-4.3917,-4.4127,-4.3379,-4.329,-4.329,-4.329,-4.329,-4.329,-4.329,-4.329,-4.329,-4.329,-4.329,-4.329,-4.329,-4.329,-4.329,-4.329,-4.329,-4.329,-4.329,-4.3469,-4.3943,-4.4586,-4.4586,-4.52,0.0,0.0,0.0,-2.8438,0.0,0.0,0.0,0.0,-2.6318,0.0,0.0,0.0,0.0,0.0,0.0,0.0,0.0,0.0,0.0,0.0,0.0,0.0,0.0,0.0,0.0,0.0,0.0,0.0,0.0,0.0,-3.8182,-3.8407,-3.8736,-3.9394,-3.9388,-3.9388,-3.9388,-3.9388,-3.9388,-3.9388,-3.9388,-3.9388,-3.9388,-3.9388,-3.9388,-3.9388,-3.9388,-3.9388,-3.9388,-3.9388,-3.9388,-3.9574,-4.0846,-4.1392,-4.1467,-4.2171,-4.2084,-4.16,-4.1629,-4.0118,-3.8017,-3.6849,-3.6452,-3.6405,-3.6405,-3.6405,-3.6405,-3.6405,-3.6405,-3.6405,-3.6452,-3.754,-3.8243,-3.6803,-3.6534,-3.6581,-3.6452,-3.6405,-3.7756,-4.2412,-4.329,-4.329,-4.329,-4.329,-4.329,-4.329,-4.5529,-4.6247,-4.3618,-4.329,-4.329,-4.329,-4.329,-4.329,-4.329,-4.329,-4.329,-4.329,-4.329,-4.329,-4.329,-4.329,-4.329,-4.329,-4.329,-4.329,-4.329,-4.3932,-4.4616,-4.5259,-4.5259,-4.5648,0.0,0.0,-3.3125,-3.0238,0.0,0.0,0.0,0.0,0.0,0.0,0.0,0.0,0.0,0.0,0.0,0.0,0.0,0.0,0.0,0.0,0.0,0.0,0.0,0.0,0.0,0.0,0.0,0.0,-3.3664,0.0,0.0,-3.7287,-3.7456,-3.7675,-3.7419,-3.7276,-3.7276,-3.7276,-3.7648,-3.8345,-3.8345,-3.8708,-3.9388,-3.9388,-3.9017,-3.8383,-3.9104,-3.898,-3.8383,-3.9104,-3.9679,-4.0157,-4.104,-4.1692,-4.2156,-4.2761,-4.2412,-4.1378,-3.98,-3.8289,-3.6883,-3.6534,-3.6405,-3.6405,-3.6405,-3.6405,-3.6405,-3.6405,-3.6405,-3.6581,-3.7322,-3.7368,-3.7243,-3.7461,-3.693,-3.6405,-3.6405,-3.8801,-4.142,-4.2981,-4.329,-4.3858,-4.5663,-4.5963,-4.5323,-4.3559,-4.5603,-4.698,-4.6082,-4.4381,-4.329,-4.329,-4.329,-4.329,-4.329,-4.329,-4.3484,-4.3917,-4.3544,-4.329,-4.329,-4.329,-4.329,-4.329,-4.329,-4.3499,-4.3947,-4.4212,-4.4885,-4.5978,-4.5978,-4.6337,-3.3559,-3.3978,0.0,-3.148,-3.0567,0.0,-2.723,0.0,0.0,0.0,0.0,0.0,0.0,0.0,0.0,0.0,0.0,0.0,0.0,0.0,0.0,0.0,0.0,0.0,0.0,0.0,-3.0842,-3.2536,0.0,0.0,0.0,0.0,-3.6961,-3.6798,-3.6797,-3.6565,-3.6198,-3.6565,-3.7137,-3.7791,-3.8196,-3.8745,-3.9388,-3.9388,-3.8819,-3.7866,-3.8943,-3.8782,-3.7829,-3.8546,-3.9202,-3.9852,-4.0539,-4.1189,-4.1839,-4.2434,-4.1726,-4.006,-3.8153,-3.7023,-3.6405,-3.6405,-3.6405,-3.6405,-3.6405,-3.6405,-3.6405,-3.6405,-3.6405,-3.6581,-3.7276,-3.693,-3.6581,-3.7322,-3.693,-3.6534,-3.7103,-3.977,-4.2345,-4.3155,-4.4067,-4.5248,-4.701,-4.7309,-4.6726,-4.4964,-4.6202,-4.7309,-4.7309,-4.5813,-4.4695,-4.4695,-4.4695,-4.4575,-4.4302,-4.3873,-4.3828,-4.4287,-4.3663,-4.329,-4.329,-4.329,-4.329,-4.329,-4.3529,-4.3883,-4.4317,-4.4796,-4.5484,-4.6337,-4.6518,-4.6905]},{"header":{"parameterUnit":"m.s-1","parameterCategory":1,"la1":30.6,"la2":29.2853,"lo1":-89.7004,"lo2":-87.6739,"dy":0.0162,"dx":0.0183,"nx":112,"ny":82,"refTime":"2026-05-24T12:00:00:Z","depth":0,"parameterNumber":3,"parameterNumberName":"V-component_of_WINDS"},"data":[0.0,0.0,0.0,0.0,0.0,0.0,0.0,0.0,0.0,0.0,0.0,0.0,0.0,0.0,0.0,0.0,0.0,0.0,0.0,0.0,0.0,0.0,0.0,0.0,0.0,0.0,0.0,0.0,0.0,0.0,0.0,0.0,0.0,0.0,0.0,0.0,0.0,0.0,0.0,0.0,0.0,0.0,0.0,0.0,0.0,0.0,0.0,0.0,0.0,0.0,0.0,0.0,0.0,0.0,0.0,0.0,0.0,0.0,0.0,0.0,0.0,0.0,0.0,0.0,0.0,0.0,0.0,0.0,0.0,0.0,0.0,0.0,0.0,0.0,0.0,0.0,0.0,0.0,0.0,0.0,0.0,0.0,0.0,0.0,0.0,0.0,0.0,0.0,0.0,0.0,0.0,2.3926,2.6338,2.7559,2.706,2.6562,2.4678,2.0948,0.0,0.0,0.0,0.0,0.0,0.0,0.0,0.0,0.0,0.0,0.0,0.0,0.0,0.0,0.0,0.0,0.0,0.0,0.0,0.0,0.0,0.0,0.0,0.0,0.0,0.0,0.0,0.0,0.0,0.0,0.0,0.0,0.0,0.0,0.0,0.0,0.0,0.0,0.0,0.0,0.0,0.0,0.0,0.0,0.0,0.0,0.0,0.0,0.0,0.0,0.0,0.0,0.0,0.0,0.0,0.0,0.0,0.0,0.0,0.0,0.0,0.0,0.0,0.0,0.0,0.0,0.0,0.0,0.0,0.0,0.0,0.0,0.0,0.0,0.0,0.0,0.0,0.0,0.0,0.0,0.0,0.0,0.0,0.0,0.0,0.0,0.0,0.0,0.0,0.0,0.0,0.0,0.0,0.0,0.0,0.0,0.0,0.0,0.0,0.0,0.0,0.0,0.0,0.0,2.1553,2.5566,2.7314,2.7871,2.708,2.6289,2.4446,2.1288,0.0,0.0,0.0,0.0,0.0,0.0,0.0,0.0,0.0,0.0,0.0,0.0,0.0,0.0,0.0,0.0,0.0,0.0,0.0,0.0,0.0,0.0,0.0,0.0,0.0,0.0,0.0,0.0,0.0,0.0,0.0,0.0,0.0,0.0,0.0,0.0,0.0,0.0,0.0,0.0,0.0,0.0,0.0,0.0,0.0,0.0,0.0,0.0,0.0,0.0,0.0,0.0,0.0,0.0,0.0,0.0,0.0,0.0,0.0,0.0,0.0,0.0,0.0,0.0,0.0,0.0,0.0,0.0,0.0,0.0,0.0,0.0,0.0,0.0,0.0,0.0,0.0,0.0,0.0,0.0,0.0,0.0,0.0,0.0,0.0,0.0,0.0,0.0,0.0,0.0,0.0,0.0,0.0,0.0,0.0,0.0,0.0,0.0,0.0,0.0,0.0,0.0,0.0,2.125,2.3223,2.6387,2.7461,2.7695,2.707,2.6006,2.4189,2.1366,2.037,0.0,0.0,0.0,0.0,0.0,0.0,0.0,0.0,0.0,0.0,0.0,0.0,0.0,0.0,0.0,0.0,0.0,0.0,0.0,0.0,0.0,0.0,0.0,0.0,0.0,0.0,0.0,0.0,0.0,0.0,0.0,0.0,0.0,0.0,0.0,0.0,0.0,0.0,0.0,0.0,0.0,0.0,0.0,0.0,0.0,0.0,0.0,0.0,0.0,0.0,0.0,0.0,0.0,0.0,0.0,0.0,0.0,0.0,0.0,0.0,0.0,0.0,0.0,0.0,0.0,0.0,0.0,0.0,0.0,0.0,0.0,0.0,0.0,0.0,0.0,0.0,0.0,0.0,0.0,0.0,0.0,0.0,0.0,0.0,0.0,0.0,0.0,0.0,0.0,0.0,0.0,0.0,0.0,0.0,0.0,0.0,0.0,0.0,0.0,0.0,0.0,0.0,2.3242,2.4805,2.667,2.7256,2.7334,2.6904,2.5488,2.3652,2.1337,1.9889,0.0,0.0,0.0,0.0,0.0,0.0,0.0,0.0,0.0,0.0,0.0,0.0,0.0,0.0,0.0,0.0,0.0,0.0,0.0,0.0,0.0,0.0,0.0,0.0,0.0,0.0,0.0,0.0,0.0,0.0,0.0,0.0,0.0,0.0,0.0,0.0,0.0,0.0,0.0,0.0,0.0,0.0,0.0,0.0,0.0,0.0,0.0,0.0,0.0,0.0,0.0,0.0,0.0,0.0,0.0,0.0,0.0,0.0,0.0,0.0,0.0,0.0,0.0,0.0,0.0,0.0,0.0,0.0,0.0,0.0,0.0,0.0,0.0,0.0,0.0,0.0,0.0,0.0,0.0,0.0,0.0,0.0,0.0,0.0,0.0,0.0,0.0,0.0,0.0,0.0,0.0,0.0,0.0,0.0,0.0,0.0,0.0,0.0,0.0,0.0,0.0,0.0,2.3247,2.5399,2.6328,2.6816,2.6894,2.6465,2.4548,2.2705,2.1278,1.8903,0.0,0.0,0.0,0.0,0.0,0.0,0.0,0.0,0.0,0.0,0.0,0.0,0.0,0.0,0.0,0.0,0.0,0.0,0.0,0.0,0.0,0.0,0.0,0.0,0.0,0.0,0.0,0.0,0.0,0.0,0.0,0.0,0.0,0.0,0.0,0.0,0.0,0.0,0.0,0.0,0.0,0.0,0.0,0.0,0.0,0.0,0.0,0.0,0.0,0.0,0.0,0.0,0.0,0.0,0.0,0.0,0.0,0.0,0.0,0.0,0.0,0.0,0.0,0.0,0.0,0.0,0.0,0.0,0.0,0.0,0.0,0.0,0.0,0.0,0.0,0.0,0.0,0.0,0.0,0.0,0.0,0.0,0.0,0.0,0.0,0.0,0.0,0.0,0.0,0.0,0.0,0.0,0.0,0.0,0.0,0.0,0.0,0.0,0.0,0.0,0.0,0.0,2.2552,2.4568,0.0,2.6533,2.6562,2.6396,2.4883,2.3174,2.1307,0.0,0.0,0.0,0.0,0.0,0.0,0.0,0.0,0.0,0.0,0.0,0.0,0.0,0.0,0.0,0.0,0.0,0.0,0.0,0.0,0.0,0.0,0.0,0.0,0.0,0.0,0.0,0.0,0.0,0.0,0.0,0.0,0.0,0.0,0.0,0.0,0.0,0.0,0.0,0.0,0.0,0.0,0.0,0.0,0.0,0.0,0.0,0.0,0.0,0.0,0.0,0.0,0.0,0.0,0.0,0.0,0.0,0.0,0.0,0.0,0.0,0.0,0.0,0.0,0.0,0.0,0.0,0.0,0.0,0.0,0.0,0.0,0.0,0.0,0.0,0.0,0.0,0.0,0.0,0.0,0.0,0.0,0.0,0.0,0.0,0.0,0.0,0.0,0.0,0.0,0.0,0.0,0.0,0.0,0.0,0.0,0.0,0.0,0.0,0.0,0.0,0.0,2.0518,2.2402,2.4238,0.0,2.6182,2.6182,2.6182,2.4858,2.3272,2.1481,0.0,0.0,0.0,0.0,0.0,0.0,0.0,0.0,0.0,0.0,0.0,0.0,0.0,0.0,0.0,0.0,0.0,0.0,0.0,0.0,0.0,0.0,0.0,0.0,0.0,0.0,0.0,0.0,0.0,0.0,0.0,0.0,0.0,0.0,0.0,0.0,0.0,0.0,0.0,0.0,0.0,0.0,0.0,0.0,0.0,0.0,0.0,0.0,0.0,0.0,0.0,0.0,0.0,0.0,0.0,0.0,0.0,0.0,0.0,0.0,0.0,0.0,0.0,0.0,0.0,0.0,0.0,0.0,0.0,0.0,0.0,0.0,0.0,0.0,0.0,0.0,0.0,0.0,0.0,0.0,0.0,0.0,0.0,0.0,0.0,0.0,0.0,0.0,0.0,0.0,0.0,0.0,0.0,0.0,0.0,0.0,0.0,0.0,0.0,0.0,0.0,0.0,2.0976,2.3052,2.4709,2.5596,2.5693,2.5693,2.5693,2.4229,2.2847,0.0,0.0,0.0,0.0,0.0,0.0,0.0,0.0,0.0,0.0,0.0,0.0,0.0,0.0,0.0,0.0,0.0,0.0,0.0,0.0,0.0,0.0,0.0,0.0,0.0,0.0,0.0,0.0,0.0,0.0,0.0,0.0,0.0,0.0,0.0,0.0,0.0,0.0,0.0,0.0,0.0,0.0,0.0,0.0,0.0,0.0,0.0,0.0,0.0,0.0,0.0,0.0,0.0,0.0,0.0,0.0,0.0,0.0,0.0,0.0,0.0,0.0,0.0,0.0,0.0,0.0,0.0,0.0,0.0,0.0,0.0,0.0,0.0,0.0,0.0,0.0,0.0,0.0,0.0,0.0,0.0,0.0,0.0,0.0,0.0,0.0,0.0,0.0,0.0,0.0,0.0,0.0,0.0,0.0,0.0,0.0,0.0,0.0,0.0,0.0,0.0,0.0,0.0,2.0976,2.3052,2.4709,2.5596,2.5693,2.5693,2.5693,2.5102,2.3846,2.1814,0.0,0.0,0.0,0.0,0.0,0.0,0.0,0.0,0.0,0.0,0.0,0.0,0.0,0.0,0.0,0.0,0.0,0.0,0.0,0.0,0.0,0.0,0.0,0.0,0.0,0.0,0.0,0.0,0.0,0.0,0.0,0.0,0.0,0.0,0.0,0.0,0.0,0.0,0.0,0.0,0.0,0.0,0.0,0.0,0.0,0.0,0.0,0.0,0.0,0.0,0.0,0.0,0.0,0.0,0.0,0.0,0.0,0.0,0.0,0.0,0.0,0.0,0.0,0.0,0.0,0.0,0.0,0.0,0.0,0.0,0.0,0.0,0.0,0.0,0.0,0.0,0.0,0.0,0.0,0.0,0.0,0.0,0.0,0.0,0.0,0.0,0.0,0.0,0.0,0.0,0.0,0.0,0.0,0.0,0.0,0.0,0.0,0.0,0.0,0.0,0.0,0.0,2.1221,2.362,2.5516,2.6386,2.6887,2.7163,2.7163,2.687,2.5703,2.3324,0.0,0.0,0.0,0.0,0.0,0.0,0.0,0.0,0.0,0.0,0.0,0.0,0.0,0.0,0.0,0.0,0.0,0.0,0.0,0.0,0.0,0.0,0.0,0.0,0.0,0.0,0.0,0.0,0.0,0.0,0.0,0.0,0.0,0.0,0.0,0.0,0.0,0.0,0.0,0.0,0.0,0.0,0.0,0.0,0.0,0.0,0.0,0.0,0.0,0.0,0.0,0.0,0.0,0.0,0.0,0.0,0.0,0.0,0.0,0.0,0.0,0.0,0.0,0.0,0.0,0.0,0.0,0.0,0.0,0.0,0.0,0.0,0.0,0.0,0.0,0.0,0.0,0.0,0.0,0.0,0.0,0.0,0.0,0.0,0.0,0.0,0.0,0.0,0.0,0.0,0.0,0.0,0.0,0.0,0.0,0.0,0.0,0.0,0.0,0.0,0.0,0.0,2.1593,2.4467,2.663,2.7495,2.8588,2.9269,2.9407,2.9048,2.7841,2.561,0.0,0.0,0.0,0.0,0.0,0.0,0.0,0.0,0.0,0.0,0.0,0.0,0.0,0.0,0.0,0.0,0.0,0.0,0.0,0.0,0.0,0.0,0.0,0.0,0.0,0.0,0.0,0.0,0.0,0.0,0.0,0.0,0.0,0.0,0.0,0.0,0.0,0.0,0.0,0.0,0.0,0.0,0.0,0.0,0.0,0.0,0.0,0.0,0.0,0.0,0.0,0.0,0.0,0.0,0.0,0.0,0.0,0.0,0.0,0.0,3.0208,0.0,0.0,0.0,0.0,0.0,0.0,0.0,0.0,0.0,0.0,0.0,0.0,0.0,0.0,0.0,0.0,0.0,0.0,0.0,0.0,0.0,0.0,0.0,0.0,0.0,0.0,0.0,0.0,0.0,0.0,0.0,0.0,0.0,0.0,0.0,0.0,0.0,0.0,0.0,0.0,0.0,2.1665,2.439,2.6515,2.7495,2.7814,2.8366,2.9315,2.9048,2.8047,2.6226,2.4569,0.0,0.0,0.0,0.0,0.0,0.0,0.0,0.0,0.0,0.0,0.0,0.0,0.0,0.0,0.0,0.0,0.0,0.0,0.0,0.0,0.0,0.0,0.0,0.0,0.0,0.0,0.0,0.0,0.0,0.0,0.0,0.0,0.0,0.0,0.0,0.0,0.0,0.0,0.0,0.0,0.0,0.0,0.0,0.0,0.0,0.0,0.0,0.0,0.0,0.0,0.0,0.0,0.0,0.0,0.0,0.0,0.0,0.0,0.0,0.0,3.1629,0.0,0.0,0.0,0.0,0.0,0.0,0.0,0.0,0.0,0.0,0.0,0.0,0.0,0.0,0.0,0.0,0.0,0.0,0.0,0.0,0.0,0.0,0.0,0.0,0.0,0.0,0.0,0.0,0.0,0.0,0.0,0.0,0.0,0.0,0.0,0.0,0.0,0.0,0.0,0.0,2.3158,2.6017,2.8232,2.9215,2.9875,3.0358,3.0734,3.0302,2.9346,2.766,2.5797,0.0,0.0,0.0,0.0,0.0,0.0,0.0,0.0,0.0,0.0,0.0,0.0,0.0,0.0,0.0,0.0,0.0,0.0,0.0,0.0,0.0,0.0,0.0,0.0,0.0,0.0,0.0,0.0,0.0,0.0,0.0,0.0,0.0,0.0,0.0,0.0,0.0,0.0,0.0,0.0,0.0,0.0,0.0,0.0,0.0,0.0,0.0,0.0,0.0,0.0,0.0,0.0,0.0,3.727,3.7958,3.8437,3.8556,3.8841,3.9095,3.6267,3.534,3.5624,0.0,0.0,0.0,0.0,0.0,0.0,0.0,0.0,0.0,0.0,0.0,0.0,0.0,0.0,0.0,0.0,0.0,0.0,0.0,0.0,0.0,0.0,0.0,0.0,0.0,2.8622,2.8058,0.0,0.0,0.0,0.0,0.0,0.0,0.0,0.0,0.0,0.0,0.0,0.0,2.4841,2.786,3.0112,3.1104,3.2066,3.2504,3.221,3.1625,3.0633,2.9126,2.7168,2.5084,0.0,0.0,0.0,0.0,0.0,0.0,0.0,0.0,0.0,0.0,0.0,0.0,0.0,0.0,0.0,0.0,0.0,0.0,0.0,0.0,0.0,0.0,0.0,0.0,0.0,0.0,0.0,0.0,0.0,0.0,0.0,0.0,2.736,2.8113,0.0,0.0,0.0,0.0,0.0,0.0,0.0,0.0,0.0,0.0,0.0,0.0,0.0,3.5684,3.6881,3.8138,3.9095,3.9783,4.1609,4.2506,4.2527,4.315,4.3135,4.2587,4.1624,0.0,3.712,3.6686,0.0,0.0,0.0,0.0,0.0,0.0,0.0,0.0,0.0,0.0,0.0,0.0,0.0,0.0,0.0,0.0,0.0,0.0,0.0,0.0,0.0,0.0,3.2722,3.2904,3.2304,3.154,0.0,2.7185,2.3565,2.2807,2.1537,0.0,0.0,0.0,0.0,0.0,0.0,0.0,2.5515,2.7987,3.0015,3.1116,3.095,3.1137,3.2131,3.1298,3.0419,2.9716,2.8473,2.6992,2.5234,2.3622,0.0,0.0,0.0,0.0,0.0,0.0,0.0,0.0,0.0,0.0,0.0,0.0,0.0,0.0,0.0,0.0,0.0,0.0,0.0,0.0,0.0,0.0,0.0,0.0,0.0,0.0,0.0,0.0,0.0,2.7979,2.9325,2.9639,2.9744,2.9355,0.0,0.0,0.0,0.0,0.0,0.0,0.0,0.0,0.0,3.8153,3.8257,3.905,4.0689,4.1683,4.2312,4.2611,4.3868,4.4451,4.4451,4.4736,4.4706,4.4421,4.4137,4.2761,4.0584,3.9155,3.7419,3.5564,0.0,0.0,0.0,0.0,3.3769,3.3992,3.5756,3.5953,0.0,0.0,0.0,0.0,0.0,0.0,0.0,0.0,0.0,0.0,0.0,0.0,0.0,3.3851,3.3698,3.337,3.2417,3.0063,2.762,0.0,2.4883,2.3922,2.2322,0.0,0.0,0.0,0.0,2.5888,2.7342,2.908,3.0474,3.1234,3.1099,3.1062,3.1295,3.0884,3.0382,2.9829,2.9026,2.8097,2.7055,2.541,2.3615,0.0,0.0,0.0,0.0,0.0,0.0,0.0,0.0,0.0,0.0,0.0,0.0,0.0,0.0,0.0,0.0,0.0,0.0,0.0,0.0,0.0,0.0,0.0,0.0,0.0,0.0,0.0,0.0,3.0033,3.1594,3.1524,3.2675,3.2593,0.0,0.0,0.0,0.0,0.0,0.0,3.6626,3.6926,3.8362,4.1309,4.1399,4.2177,4.3783,4.4332,4.4646,4.484,4.5319,4.5648,4.5798,4.5798,4.5798,4.5798,4.5633,4.49,4.3618,4.1331,3.9529,3.8078,3.712,3.6043,3.516,3.6327,3.6761,3.706,3.9185,3.9469,3.8781,3.7988,0.0,3.5407,3.231,0.0,0.0,0.0,0.0,3.2748,3.3986,3.4938,3.5494,3.5294,3.5355,3.513,3.3893,3.3005,3.1548,0.0,2.7908,2.7005,2.475,0.0,0.0,0.0,0.0,2.7431,2.895,3.0005,3.0821,3.1336,3.1273,3.1035,3.0645,3.0482,3.0231,2.9817,2.9252,2.8712,2.8335,2.6703,2.5172,2.376,0.0,0.0,0.0,0.0,0.0,0.0,0.0,0.0,0.0,0.0,0.0,0.0,0.0,0.0,0.0,0.0,0.0,0.0,0.0,0.0,0.0,0.0,0.0,0.0,0.0,0.0,0.0,0.0,0.0,3.4328,3.698,0.0,0.0,0.0,0.0,3.5269,3.6402,3.8003,4.0038,4.0756,4.2028,4.4047,4.4107,4.4466,4.5185,4.5229,4.5574,4.6175,4.6204,4.6591,4.7204,4.7204,4.7204,4.7174,4.6546,4.5858,4.5095,4.3663,4.1998,4.0247,4.0172,3.9723,3.9215,3.9888,4.0157,4.0262,4.101,4.0846,4.0382,4.095,3.9394,3.7165,3.6384,3.523,0.0,0.0,3.569,3.6511,3.7794,3.8182,3.8355,3.8969,3.8368,3.7625,3.7558,3.6308,3.4273,0.0,2.954,2.8599,2.7971,0.0,2.7118,2.7118,2.7632,2.8448,2.9603,3.0256,3.0821,3.1336,3.0947,3.0645,3.062,3.0131,2.9829,2.9792,2.9252,2.8875,2.885,2.7293,2.6147,2.5485,2.3339,0.0,0.0,0.0,0.0,0.0,0.0,0.0,0.0,0.0,0.0,0.0,0.0,0.0,0.0,0.0,0.0,0.0,0.0,0.0,0.0,0.0,0.0,0.0,0.0,0.0,0.0,0.0,0.0,3.7173,3.9531,0.0,3.6691,3.8169,3.9156,3.8697,4.0016,4.1456,4.2845,4.3135,4.3988,4.5559,4.5603,4.5918,4.6576,4.6591,4.6711,4.695,4.695,4.707,4.7309,4.7309,4.7309,4.7294,4.7055,4.6576,4.5915,4.5591,4.4003,4.1707,4.1707,4.1265,4.0756,4.1452,4.1707,4.1796,4.2417,4.2207,4.1677,4.1482,4.0457,3.9215,3.8571,3.7719,3.7045,3.7285,3.7524,3.7928,3.8811,3.905,3.8916,3.8487,3.8069,3.7625,3.693,3.632,3.5574,3.4418,3.2751,3.1061,2.9454,2.9327,2.9315,2.895,2.9063,2.9465,3.0231,3.0181,3.0156,3.0344,3.0193,3.0093,3.0093,2.9566,2.9239,2.9239,2.8712,2.8398,2.8398,2.7494,2.6763,2.6197,2.4682,2.2913,0.0,0.0,0.0,0.0,0.0,0.0,0.0,0.0,0.0,0.0,0.0,0.0,0.0,0.0,0.0,0.0,0.0,0.0,0.0,0.0,0.0,0.0,0.0,0.0,0.0,0.0,3.9251,3.9737,4.2589,4.3346,4.0433,4.2055,4.2999,4.2323,4.3143,4.4043,4.4915,4.499,4.5499,4.6621,4.6651,4.686,4.7309,4.7309,4.7309,4.7309,4.7309,4.7309,4.7309,4.7309,4.7309,4.7309,4.7309,4.6935,4.6304,4.6255,4.4974,4.3039,4.3188,4.2711,4.2087,4.2521,4.2686,4.2746,4.314,4.3045,4.2581,4.1961,4.1452,4.0935,4.0277,3.9753,3.9394,3.9394,3.9245,3.917,3.9634,3.9553,3.9228,3.8509,3.8345,3.8144,3.7444,3.7276,3.7161,3.6813,3.5042,3.3067,3.1434,3.1137,3.0909,3.0181,3.0068,3.0131,3.0319,3.0018,2.9792,2.9792,2.9792,2.9792,2.9792,2.9264,2.8888,2.8888,2.8235,2.7908,2.8097,2.7205,2.6675,2.6499,2.519,2.3697,2.2033,0.0,0.0,0.0,0.0,0.0,0.0,0.0,0.0,0.0,0.0,0.0,0.0,0.0,0.0,0.0,0.0,0.0,0.0,0.0,0.0,0.0,0.0,0.0,3.4688,3.856,4.1609,4.211,4.6243,4.8121,4.5805,4.6599,4.6945,4.6079,4.5687,4.5743,4.6364,4.6394,4.6651,4.7279,4.7309,4.7309,4.7309,4.7309,4.7309,4.7309,4.7309,4.7309,4.7309,4.7309,4.7309,4.7309,4.7309,4.6935,4.6277,4.5615,4.4941,4.4323,4.4634,4.4143,4.329,4.329,4.329,4.329,4.329,4.329,4.3185,4.2635,4.2425,4.2306,4.1647,4.1452,4.1452,4.1422,4.0905,4.0397,4.0397,3.9903,3.9388,3.9388,3.9388,3.9388,3.9388,3.9388,3.9104,3.8032,3.6213,3.4602,3.3925,3.2978,3.1917,3.0846,3.0658,0.0,2.9917,2.9817,2.9792,2.9792,2.9779,2.9779,2.9792,2.9239,2.885,2.8863,2.7846,2.7482,2.8034,2.6477,2.5862,2.6461,2.4787,2.3632,2.3108,0.0,0.0,0.0,0.0,0.0,0.0,0.0,0.0,0.0,0.0,0.0,0.0,0.0,0.0,0.0,0.0,0.0,0.0,0.0,0.0,0.0,0.0,3.8401,3.8539,4.1805,4.4672,4.5898,4.8117,4.9006,4.7734,4.8464,4.8839,4.8477,4.8962,4.8945,4.8163,4.8127,4.7874,4.7337,4.7309,4.7309,4.7309,4.7309,4.7309,4.7309,4.7309,4.7309,4.7309,4.7309,4.7309,4.7309,4.7309,4.6935,4.6304,4.6321,4.553,4.4242,4.3886,4.3551,4.329,4.329,4.329,4.329,4.329,4.329,4.326,4.3135,4.306,4.294,4.2321,4.2126,4.2036,4.1557,4.0905,4.0397,4.0397,3.9903,3.9388,3.9388,3.9388,3.9388,3.9388,3.9388,3.9301,3.9017,3.7866,3.6434,3.4725,3.4221,3.3646,3.2567,3.17,0.0,3.0972,3.0269,2.9792,2.9792,2.9415,2.934,2.9754,2.8524,2.7908,2.831,2.6904,2.6314,2.6927,2.6063,2.5674,2.5824,2.4974,2.4066,0.0,0.0,0.0,0.0,0.0,0.0,0.0,0.0,0.0,0.0,0.0,0.0,0.0,0.0,0.0,0.0,0.0,0.0,0.0,0.0,0.0,0.0,3.9046,4.1191,4.1591,4.4345,4.6726,4.7802,4.9603,5.0721,5.0566,5.0599,5.0389,4.9855,4.9909,4.9432,4.8236,4.8183,4.7904,4.7309,4.7309,4.7309,4.7309,4.7309,4.7309,4.7309,4.7309,4.7309,4.7309,4.7309,4.7309,0.0,4.701,4.6681,4.6289,4.587,4.5127,0.0,0.0,0.0,0.0,0.0,4.3669,4.329,4.329,4.329,4.329,4.329,4.329,4.3215,4.288,4.2776,4.2686,4.2312,4.1519,4.0816,4.0816,4.0113,3.9388,3.9388,3.9388,3.9388,3.9388,3.9388,3.9388,3.9388,3.8907,0.0,3.6292,3.5264,3.4378,3.3547,3.2472,3.1574,3.1122,3.052,3.0043,2.9817,2.949,2.9428,2.9767,2.8461,0.0,0.0,0.0,2.6034,2.6135,2.5774,0.0,0.0,0.0,0.0,0.0,0.0,0.0,0.0,2.3496,2.3308,0.0,0.0,0.0,0.0,0.0,0.0,0.0,0.0,0.0,0.0,0.0,0.0,0.0,0.0,0.0,0.0,4.1246,4.3256,4.3847,4.615,4.798,4.851,5.0667,5.2504,5.3416,5.2435,5.1431,5.0627,4.9575,4.8527,4.7538,0.0,0.0,0.0,0.0,4.7309,4.7309,4.7309,4.7309,4.7309,4.7309,4.7309,4.7309,4.7309,4.7264,4.716,4.6576,4.619,4.5965,4.4811,4.4272,4.4218,4.4527,4.4699,4.4774,4.4662,4.4143,4.3448,4.3329,0.0,0.0,4.329,4.329,4.329,4.329,4.329,4.329,4.32,4.2342,4.1369,4.1294,4.0352,3.9388,3.9388,3.9388,3.9388,3.9388,3.9388,3.9388,3.9388,3.9388,3.9104,3.8144,3.6371,3.4847,3.4166,3.3224,3.2196,3.1168,3.0871,3.0591,3.0023,0.0,0.0,2.9779,2.8762,2.8134,2.8197,2.7218,2.6424,2.5812,2.585,2.585,2.5787,2.585,2.6339,2.7281,2.7344,2.7369,2.7318,2.4845,2.4412,0.0,0.0,0.0,0.0,0.0,0.0,0.0,0.0,0.0,0.0,0.0,0.0,0.0,0.0,0.0,4.0075,4.2848,4.4709,4.4614,4.6853,4.8741,4.9458,5.0443,5.1724,5.3349,5.1793,5.093,5.1578,5.0665,4.9615,4.8569,4.8527,4.8141,4.7352,4.7309,4.7309,4.7309,4.7309,4.7309,4.7309,0.0,0.0,4.7309,4.7309,4.701,4.6516,4.6339,4.5708,4.4691,4.4421,4.3962,4.3509,4.3557,4.4066,4.4699,4.3888,4.3989,4.4396,4.3591,4.329,4.329,4.329,4.329,4.329,4.329,4.329,0.0,4.2701,4.2021,4.1265,4.0726,4.0008,3.9388,3.9388,3.9388,3.9388,3.9388,3.9388,3.9388,3.9388,3.9388,3.9337,3.9141,3.8032,3.6877,3.5888,3.5201,3.45,3.3767,3.261,3.1638,3.0998,2.982,2.9289,2.9754,2.8762,2.8298,2.87,2.8147,2.7532,2.6979,2.7381,2.7406,2.6967,2.7394,2.7507,2.7281,2.772,2.7946,2.7934,2.7394,2.708,0.0,0.0,0.0,0.0,0.0,0.0,0.0,0.0,0.0,0.0,0.0,3.7739,3.7566,0.0,4.1086,4.2687,4.409,4.4783,4.4136,4.5991,4.754,4.7822,4.9632,5.1212,5.2096,5.1563,5.1155,5.1155,5.0204,4.915,4.8099,4.8072,4.7834,4.7309,4.7309,4.7309,4.7309,4.7309,4.7309,4.7309,4.7309,4.7309,4.7294,4.6965,4.6636,4.6249,4.5577,4.4945,4.4287,4.3958,4.3892,4.4004,4.3488,4.3591,4.4028,4.4028,4.4028,4.3966,4.3472,4.329,4.329,4.329,4.329,4.329,4.329,4.329,4.3155,4.259,4.1931,4.1235,4.0561,3.9903,3.9388,3.9388,3.9388,3.9388,3.9388,3.9388,3.9388,3.9388,3.9388,3.9388,3.9388,3.8943,3.8219,3.7175,3.5636,3.4566,3.441,3.303,3.1878,3.127,3.0498,2.9997,2.9805,2.9013,2.8511,2.8511,2.826,2.7984,2.7708,2.7959,2.7971,2.7708,2.7959,2.8109,2.8109,2.8386,2.8662,2.895,2.895,2.8649,0.0,0.0,0.0,0.0,0.0,0.0,0.0,0.0,3.6099,3.7128,3.9259,4.1147,4.1841,4.2539,4.34,4.4662,4.481,4.445,4.3433,4.4958,4.6004,4.5464,4.8363,5.046,5.0591,5.101,5.0951,5.0165,4.911,4.8141,4.7337,4.7309,4.7309,4.7309,4.7309,4.7309,4.7309,4.7309,4.7309,4.7309,4.7309,4.7234,4.71,4.6576,4.6145,4.5816,4.4646,4.4203,4.4343,4.3579,4.3888,4.4699,4.3708,4.329,4.3409,4.422,4.4105,4.3551,4.3369,4.329,4.329,4.329,4.329,4.329,4.329,4.32,4.3015,4.2396,4.1737,4.104,4.0382,3.9813,3.9388,3.9388,3.9388,3.9388,3.9388,3.9388,3.9388,3.9388,3.9388,3.9388,3.9388,3.9388,3.9104,3.8234,3.6179,3.4772,3.4971,3.3431,3.2102,3.1529,3.1156,3.062,2.9856,2.9365,2.89,2.8461,2.8436,2.8436,2.8436,2.8436,2.8436,2.8436,2.8436,2.8649,2.9051,2.9051,2.934,2.9792,3.0073,2.9871,2.9077,2.9279,3.0632,3.3322,3.4066,3.5216,0.0,0.0,4.084,4.2274,4.3285,4.3968,4.4056,4.3868,4.3738,4.393,4.4421,4.445,4.3433,4.4958,4.5561,4.3799,4.6548,4.8859,4.9507,4.9292,4.9094,4.8988,4.803,4.7424,4.7309,4.7309,4.7309,4.7309,4.7309,4.7309,4.7309,4.7309,4.7309,4.7309,4.7309,4.6995,4.6384,4.6309,4.5636,4.4496,4.3723,4.3916,4.4656,4.3699,4.3888,4.4699,4.3708,4.329,4.3329,4.3448,4.3966,4.451,4.3591,4.329,4.329,4.329,4.329,4.329,4.329,4.294,4.2366,4.1707,4.101,4.0367,3.9709,3.9469,3.9388,3.9388,3.9388,3.9388,3.9388,3.9388,3.9388,3.9388,3.9388,3.9388,3.9388,3.9388,3.9337,3.9228,3.8438,3.7686,3.7154,3.4946,3.3161,3.2519,3.0945,2.9895,2.9792,2.9729,2.9666,2.9603,2.9603,2.9603,2.9603,2.9603,2.9603,2.9603,2.9603,2.9628,2.9691,2.9691,2.9729,2.9843,3.1138,3.1268,3.278,3.3085,3.3808,3.5943,3.7127,3.8481,4.1221,4.183,4.2269,4.3792,4.5017,4.5621,4.508,4.5103,4.5011,0.0,4.4136,4.3989,4.4143,4.4381,4.4441,4.422,4.5748,4.7123,4.7876,4.8097,4.8391,4.8753,4.7876,4.7309,4.7309,4.7309,4.7309,4.7309,4.7309,4.7309,4.7309,4.7309,4.7309,4.7309,4.7309,4.6965,4.6264,4.5918,4.5005,4.3678,4.3409,4.419,4.5525,4.4571,4.4743,4.5525,4.4533,4.381,4.329,4.329,4.3551,4.3888,4.3448,4.329,4.329,4.329,4.329,4.329,4.329,4.3135,4.2716,4.1669,4.119,4.0726,3.9694,3.9388,3.9388,3.9388,3.9388,3.9388,3.9388,3.9388,3.9388,3.9388,3.9388,3.9388,3.9388,3.9388,3.9388,3.9388,3.8366,3.7329,3.667,3.4839,3.3124,3.1919,3.0595,2.9792,2.9792,2.9792,2.9792,2.9792,2.9792,2.9792,2.9792,2.9792,2.9792,2.9792,2.9792,2.9792,2.9792,2.9792,2.9955,3.0281,3.0903,3.1309,3.4687,3.5447,3.6299,3.7821,3.9478,4.1052,4.2303,4.2777,4.3328,4.4621,4.5575,4.6006,4.554,4.5333,4.5112,4.4583,4.3692,4.3341,4.4266,4.4004,4.3989,4.4699,4.5246,4.5804,4.6493,4.7121,4.7762,4.8459,4.7561,4.7115,4.7294,4.7309,4.7309,4.7309,4.7309,4.7309,4.7309,4.7309,4.7219,4.704,4.704,4.6591,4.5753,4.5065,4.4227,4.329,4.329,4.4266,4.5762,4.5079,4.519,4.5742,4.5095,4.4182,4.329,4.329,4.329,4.329,4.329,4.329,4.329,4.329,4.329,4.329,4.329,4.3035,4.2596,4.1654,4.1115,4.0621,3.9664,3.9388,3.9388,3.9388,3.9388,3.9388,3.9388,3.9388,3.9388,3.9388,3.9388,3.9388,3.9388,3.9388,3.9388,3.9388,3.842,3.7281,3.6158,3.4214,3.2508,3.1331,3.0343,2.9792,2.9792,2.9792,2.9792,2.9792,2.9792,2.9792,2.9792,2.9792,2.9792,2.9792,2.9792,2.9792,2.9792,2.9792,3.008,3.062,3.0758,3.1323,3.3457,3.5081,3.7134,3.8582,4.0595,4.2422,4.3172,4.3961,4.4767,4.5517,4.5033,4.4669,4.5393,4.4076,4.3122,4.3754,4.3054,4.265,4.324,4.4143,4.4774,4.4812,4.4827,4.5053,0.0,4.633,4.7011,4.7691,4.6864,4.6636,4.7279,4.7309,4.7309,4.7309,4.7309,4.7309,4.7309,4.7309,4.698,4.6309,4.6309,4.5622,4.4347,4.3648,4.3334,4.329,4.329,4.3888,4.4849,4.4812,4.4812,4.4849,4.4812,4.4182,4.329,4.329,4.329,4.329,4.329,4.329,4.329,4.329,4.329,4.329,4.329,4.2447,4.1467,4.1384,4.0457,3.9433,3.9388,3.9388,3.9388,3.9388,3.9388,3.9388,3.9388,3.9388,3.9388,3.9388,3.9388,3.9388,3.9388,3.9388,3.9388,3.9388,3.9358,3.8513,3.6302,3.3221,3.1267,3.1217,3.0343,2.9792,2.9792,2.9792,2.9792,2.9792,2.9792,2.9792,2.9792,2.9792,2.9792,2.9792,2.9792,2.9792,2.9792,2.9792,3.008,3.062,3.1135,3.1675,3.5728,3.7297,3.8717,4.0696,4.2117,4.3234,4.4012,4.4429,4.4373,4.3614,4.3591,4.3309,4.1901,4.1899,4.2144,4.2188,4.2326,4.2838,4.4129,4.3989,4.4028,4.4699,4.4812,0.0,0.0,0.0,0.0,4.6675,4.6461,4.6606,4.7264,4.7309,4.7309,4.7309,4.7309,4.71,4.6651,4.6651,4.6322,4.5633,4.52,4.4751,4.4287,4.3589,4.329,4.329,4.329,4.3888,4.4812,4.4812,4.4812,4.4812,4.4812,4.4182,4.329,4.329,4.329,4.329,4.329,4.329,4.329,4.329,4.329,4.329,4.329,4.2991,4.2491,4.1624,4.107,4.0516,3.9649,3.9388,3.9388,3.9388,3.9388,3.9388,3.9388,3.9388,3.9388,3.9388,3.9388,3.9388,3.9388,3.9388,3.9388,3.9388,3.8117,3.6635,3.5243,3.2816,3.097,3.0343,3.0011,2.9792,2.9792,2.9792,2.9792,2.9792,2.9792,2.9792,2.9792,2.9792,2.9792,2.9792,2.9792,2.9792,2.9792,3.0168,3.062,3.1135,3.1687,3.224,3.711,3.879,4.0206,4.1846,4.2819,4.3432,4.3623,4.3494,4.3015,4.2032,4.1585,4.0888,3.9277,3.9283,3.9718,4.0222,4.0876,4.1949,4.3716,4.3557,4.3654,4.4662,4.4688,4.4749,0.0,0.0,0.0,4.6312,4.6326,4.6606,4.7264,4.7309,4.7309,4.7309,4.707,4.6756,4.6279,4.6082,4.5618,4.493,4.4272,4.3958,4.3943,4.3484,4.329,4.329,4.329,4.3669,4.4297,4.4662,4.4586,4.4297,4.4662,4.4182,4.329,4.329,4.329,4.329,4.329,4.329,4.329,4.329,4.329,4.329,4.329,4.3125,4.2821,4.2006,4.1602,4.113,4.0053,3.9768,3.9709,3.9448,3.9388,3.9388,3.9388,3.9388,3.9388,3.9388,3.9388,3.9388,3.9388,3.9388,3.9265,3.8907,3.739,3.6013,3.5201,3.2683,3.0815,3.033,2.9998,2.9792,2.9792,2.9792,2.9792,2.9792,2.9792,2.9792,2.9792,2.9792,2.9792,2.9792,2.9792,2.9792,2.9792,3.0344,3.0884,3.1399,3.1951,3.2516,3.7502,3.9544,4.1405,4.2022,4.2703,4.2968,4.2141,4.1405,4.0876,4.075,3.9031,3.753,3.739,0.0,3.6133,3.8033,3.9005,4.0202,4.2216,4.3,4.3729,0.0,0.0,0.0,0.0,0.0,0.0,4.6559,0.0,4.6576,4.7264,4.7309,4.7309,4.7309,4.6666,4.6264,4.6277,4.5559,4.4885,4.4257,4.3589,4.329,4.329,4.329,4.329,4.329,4.329,4.329,4.3369,4.4335,4.4143,4.3394,4.4373,4.4143,4.329,4.329,4.329,4.329,4.329,4.329,4.329,4.329,4.329,4.329,4.329,4.2895,4.244,4.241,4.1946,4.1265,4.0576,4.0397,4.0232,3.9574,3.9388,3.9388,3.9388,3.9388,3.9388,3.9388,3.9388,3.9388,3.9388,3.9388,3.9068,3.8032,3.7258,3.6538,3.5913,3.2829,3.0788,3.1097,3.0317,2.9792,2.9792,2.9792,2.9792,2.9792,2.9817,2.9829,2.9792,2.9817,2.9829,2.9792,2.9792,2.9792,2.9792,3.0344,3.0884,3.1399,3.1951,3.2516,3.8808,4.0589,4.196,4.2019,4.1831,4.1542,4.1308,4.0346,3.907,3.7455,3.6263,3.5052,3.3363,3.4419,0.0,3.7419,3.9469,0.0,4.3539,4.3958,0.0,4.5087,0.0,4.5158,4.5374,4.5665,0.0,0.0,4.5905,4.6067,4.7249,4.7309,4.7309,4.7309,4.6666,4.6082,4.5559,4.4407,4.3708,4.3544,4.3379,4.329,4.329,4.329,4.329,4.329,4.329,4.329,4.3329,4.3591,4.3512,4.3329,4.3591,4.3512,4.329,4.329,4.329,4.329,4.329,4.329,4.329,4.329,4.329,4.329,4.329,4.317,4.2985,4.2545,4.2276,4.1886,4.0696,4.0397,4.0232,3.9574,3.9388,3.9388,3.9388,3.9388,3.9388,3.9388,3.9388,3.9388,3.9388,3.9388,3.9301,3.9017,3.7505,3.572,3.3998,3.2523,3.1254,3.0267,2.9934,2.9792,2.9792,2.9792,2.9792,2.9792,3.0181,3.0218,2.9817,3.0181,3.0218,2.9804,2.9792,2.9792,2.9792,3.0344,3.0884,3.1399,3.1951,3.2516,3.9314,4.0909,4.1938,4.1182,4.0719,4.0102,3.8872,3.7795,3.644,3.4355,3.3393,3.2364,3.0561,3.2138,3.4188,0.0,0.0,0.0,4.2746,4.3524,4.4122,0.0,4.5125,0.0,4.5723,4.6097,4.6399,0.0,4.6396,4.6516,4.7264,4.7309,4.7309,4.7309,4.6367,4.5409,4.4451,4.3663,4.329,4.329,4.329,4.329,4.329,4.329,4.329,4.329,0.0,4.329,4.329,4.329,4.329,4.329,4.329,4.329,4.329,4.329,4.329,4.329,4.329,4.329,4.329,4.329,4.329,4.329,4.329,4.329,4.3215,4.2895,4.2776,4.2551,4.1534,4.1055,4.0666,4.0008,3.9634,3.9388,3.9388,3.9388,3.9388,3.9388,3.9388,3.9388,3.9388,3.9388,3.9228,3.8782,3.7291,3.5512,3.3608,3.2411,3.1419,3.0599,3.0068,2.9892,3.0131,2.993,2.9792,2.9792,3.0306,3.0369,2.9817,3.0545,3.0595,2.9817,3.003,3.003,2.9792,3.057,3.111,3.1411,3.2215,3.2767,3.9334,4.0725,4.1467,3.9905,3.9411,3.8596,3.5969,3.4637,3.3425,3.1511,0.0,2.9744,2.8547,3.0061,3.1959,3.3395,0.0,3.9155,4.1339,4.2611,4.3604,4.4481,4.508,4.5708,4.6396,4.6414,4.6696,4.7264,4.7309,4.7309,4.7309,4.7219,4.71,4.692,4.5768,4.4571,4.3305,4.329,4.329,4.329,4.329,4.329,4.329,4.329,4.329,4.329,0.0,0.0,4.329,4.329,4.329,4.329,4.329,4.329,4.329,4.329,4.329,4.329,4.329,4.329,4.329,4.329,4.329,4.329,4.329,4.329,4.329,4.329,4.329,4.3125,4.247,4.1856,4.119,4.0442,3.9828,3.9388,3.9388,3.9388,3.9388,3.9388,3.9388,3.9388,3.9388,3.9388,3.9068,3.8144,3.6968,3.5702,3.4286,3.2607,3.1474,3.1399,3.0557,3.0168,3.0583,3.0181,2.9867,2.9792,3.0369,3.047,2.993,3.0934,3.1035,3.003,3.047,3.0482,3.0005,3.0934,3.1436,3.1524,3.2503,3.3006,3.9435,4.0163,4.0554,3.9001,3.7809,3.6649,3.5045,3.2856,0.0,0.0,2.8562,2.7869,2.7081,2.946,3.2108,3.4039,3.6611,3.9469,4.2527,4.3155,4.3947,0.0,4.6082,0.0,0.0,0.0,0.0,0.0,0.0,4.7309,4.7309,4.6785,4.5992,4.487,4.4601,4.4122,4.3305,4.329,4.329,4.329,4.329,4.329,4.329,4.329,4.329,4.329,4.329,0.0,4.329,4.329,4.329,4.329,4.329,4.329,4.329,4.329,4.329,4.329,4.329,4.329,4.329,4.329,4.329,4.329,4.329,4.329,4.329,4.329,4.329,4.3021,4.1863,4.1512,4.107,3.9873,3.9463,3.9388,3.9388,3.9388,3.9388,3.9388,3.9388,3.9388,3.9388,3.9388,3.9337,3.9141,3.7444,3.6091,3.5823,3.3612,3.1888,3.1436,3.1223,3.0984,3.0645,3.052,3.0281,2.9829,3.0721,3.1022,3.0495,3.1499,3.1763,3.1122,3.1198,3.121,3.111,3.1298,3.1625,3.2077,3.2277,3.2616,3.9232,3.9702,3.9753,3.8647,3.7434,3.5863,3.3484,0.0,0.0,0.0,2.6811,2.6776,2.5749,2.8278,3.0926,3.2198,3.4622,3.7509,4.0793,4.1878,4.318,4.5514,4.6112,4.6576,0.0,0.0,0.0,0.0,0.0,4.68,4.68,4.6157,4.5334,4.4347,4.4317,4.4003,4.3305,4.329,4.329,4.329,4.329,4.329,4.329,4.329,4.329,4.329,4.329,0.0,4.329,4.329,4.329,4.329,4.329,4.329,4.329,4.329,4.329,4.329,4.329,4.329,4.329,4.329,4.329,4.329,4.329,4.329,4.329,4.329,4.329,4.314,4.2566,4.2147,4.1767,4.11,4.0681,4.0352,4.0008,3.9933,3.9828,3.9484,3.9388,3.9388,3.9388,3.9388,3.9228,3.8671,3.7214,3.6013,3.548,3.382,3.2566,3.2303,3.1738,3.1399,3.1436,3.1185,3.0909,3.0645,3.1373,3.1574,3.1035,3.2077,3.2265,3.1411,3.1675,3.1675,3.1386,3.1675,3.1951,3.2227,3.2516,3.2805,3.8916,3.9305,3.926,3.8556,3.733,3.5444,3.2228,3.0298,0.0,2.5232,2.5555,2.6063,2.5008,2.732,2.9669,0.0,3.2706,3.5415,3.8736,4.0337,4.2147,0.0,4.5693,0.0,0.0,0.0,0.0,0.0,0.0,0.0,4.5846,4.5379,4.4781,4.4122,4.4107,4.3813,4.3305,4.329,4.329,4.329,4.329,4.329,4.329,4.329,4.329,4.329,4.329,0.0,0.0,4.329,4.329,4.329,4.329,4.329,4.329,4.329,4.329,4.329,4.329,4.329,4.329,4.329,4.329,4.329,4.329,4.329,4.329,4.329,4.329,4.326,4.3125,4.2746,4.2366,4.2231,4.1796,4.1272,4.0726,4.0502,4.0247,3.9723,3.9514,3.9388,3.9388,3.9388,3.9031,3.7956,3.6891,3.5854,3.4815,3.3755,3.3124,3.3124,3.2277,3.1876,3.219,3.1813,3.1512,3.1399,3.1901,3.2014,3.1587,3.2583,3.2696,3.1763,3.2177,3.219,3.175,3.219,3.239,3.2403,3.2867,3.3124,3.8452,3.8945,3.926,3.8556,3.6985,3.4876,3.2123,0.0,2.718,2.5038,2.5173,2.5659,2.554,2.726,2.9295,3.1107,3.2647,3.4741,3.8018,3.9649,4.1459,4.4092,0.0,0.0,0.0,0.0,0.0,0.0,0.0,0.0,4.4496,4.4436,4.4067,4.3409,4.3379,4.3349,4.329,4.329,4.329,4.329,4.329,4.329,4.329,4.329,4.329,4.329,4.329,0.0,0.0,4.329,4.329,4.329,4.329,4.329,4.329,4.329,4.329,4.329,4.329,4.329,4.329,4.329,4.329,4.329,4.329,4.329,4.329,4.329,4.329,4.3155,4.2635,4.244,4.2246,4.1647,4.1429,4.1369,4.1309,4.0816,4.0382,4.0322,3.9828,3.9388,3.9388,3.9388,3.9031,3.7956,3.6891,3.5854,3.4815,3.3755,3.3124,3.3124,3.3023,3.2729,3.2252,3.2164,3.1926,3.1424,3.1901,3.219,3.2139,3.2742,3.3074,3.2973,3.2968,3.2968,3.2918,3.2968,3.3006,3.3006,3.3056,3.3124,3.8078,3.8901,3.9349,3.908,3.724,3.4906,3.2602,2.9759,2.7151,2.5516,2.5397,2.5734,2.6123,2.7171,2.8528,3.0103,3.0791,3.2317,3.5612,3.7195,3.9155,4.2192,4.3823,0.0,0.0,0.0,0.0,0.0,0.0,0.0,4.3708,4.3678,4.3559,4.3305,4.329,4.329,4.329,4.329,4.329,4.329,4.329,4.329,4.329,4.329,4.329,4.329,4.329,0.0,0.0,4.329,4.329,4.329,4.329,4.329,4.329,4.329,4.329,4.329,4.329,4.329,4.329,4.329,4.329,4.329,4.329,4.329,4.329,4.329,4.329,4.323,4.3015,4.294,4.288,4.2611,4.2551,4.2447,4.2096,4.1796,4.1392,4.0561,4.0187,3.9888,3.9448,3.9388,3.9031,3.7956,3.742,3.6554,3.4897,3.4304,3.3839,3.3154,3.3124,3.298,3.2754,3.2729,3.2641,3.2416,3.2604,3.2729,3.2729,3.2955,3.3124,3.3124,3.3124,3.3124,3.3124,3.3124,3.3124,3.3124,3.3124,3.3124,3.7105,3.8167,3.8826,3.8826,3.6851,3.4442,3.2632,2.9819,2.7225,2.5884,2.5764,2.6033,2.6497,2.7151,2.7974,2.9127,2.9609,3.0866,3.3815,3.5552,3.7554,0.0,0.0,0.0,0.0,0.0,0.0,0.0,0.0,0.0,4.3319,4.329,4.329,4.329,4.329,4.329,4.329,4.329,4.329,4.329,4.329,4.329,4.329,4.329,4.329,4.329,0.0,0.0,0.0,4.329,4.329,4.329,4.329,4.329,4.329,4.329,4.329,4.329,4.329,4.329,4.329,4.329,4.329,4.329,4.329,4.329,4.329,4.329,4.329,4.329,4.329,4.329,4.329,4.329,4.329,4.317,4.2746,4.2545,4.2126,4.116,4.0666,4.0247,3.9783,3.9508,3.9031,3.7956,3.7548,3.6671,3.4951,3.4428,3.3953,3.3197,3.3124,3.3124,3.3124,3.3124,3.3124,3.3124,3.3124,3.3124,3.3124,3.3124,3.3124,3.3124,3.3124,3.3124,3.3124,3.3124,3.3124,3.3124,3.3124,3.3124,3.534,3.6462,3.7434,3.7434,3.5444,3.317,3.1809,2.9475,2.7225,2.5884,2.6123,2.6572,2.6587,2.7151,2.7824,2.8502,2.9669,3.1195,3.323,3.5235,3.7225,0.0,0.0,0.0,0.0,0.0,0.0,0.0,0.0,0.0,4.329,4.329,4.329,4.329,4.329,4.329,4.329,4.329,4.329,4.329,4.329,4.329,4.329,4.329,4.329,0.0,0.0,0.0,0.0,4.329,4.329,4.329,4.329,4.329,4.329,4.329,4.329,4.329,4.329,4.329,4.329,4.329,4.329,4.329,4.329,4.329,4.329,4.329,4.329,4.329,4.329,4.329,4.329,4.329,4.329,4.329,4.329,4.2821,4.2396,4.2381,4.1294,4.0397,4.0382,3.9843,3.9031,3.7956,3.6891,3.5854,3.4815,3.3755,3.3124,3.3124,3.3124,3.3124,3.3124,3.3124,3.3124,3.3124,3.3124,3.3124,3.3124,3.3124,3.3124,3.3124,3.3124,3.3124,3.3124,3.3124,3.3124,3.3124,3.3124,3.3124,3.3155,3.4412,3.5295,3.4846,3.344,3.1899,3.1002,2.9146,2.748,2.7061,2.6752,2.6746,2.721,2.7465,2.8109,2.9654,3.0238,3.121,3.3215,0.0,0.0,3.8482,0.0,0.0,0.0,0.0,0.0,0.0,0.0,0.0,4.329,4.329,4.329,4.329,4.329,4.329,4.329,4.329,4.329,4.329,4.329,4.329,4.329,4.329,0.0,0.0,0.0,0.0,0.0,4.329,4.329,4.329,4.329,4.329,4.329,4.329,4.329,4.329,4.329,4.329,4.329,4.329,4.329,4.329,4.329,4.329,4.329,4.329,4.329,4.329,4.329,4.329,4.329,4.329,4.329,4.329,4.329,4.3125,4.2895,4.2485,4.1707,4.0935,4.0472,3.9858,3.9031,3.7956,3.751,3.6671,3.4938,3.4387,3.3911,3.3197,3.3124,3.3124,3.3124,3.3124,3.3124,3.3124,3.3124,3.3124,3.3124,3.3124,3.3124,3.3124,3.3124,3.3124,3.3124,3.3124,3.3124,3.3124,3.3124,3.3124,3.0719,3.2348,3.326,3.2856,3.1764,3.0687,3.0253,2.8843,2.76,2.76,2.727,2.7106,2.7525,2.739,2.7705,2.916,2.9624,3.0477,0.0,0.0,0.0,3.8123,0.0,0.0,0.0,0.0,0.0,0.0,0.0,0.0,4.329,4.329,4.329,4.329,4.329,4.329,4.329,4.329,4.329,4.329,4.329,4.329,4.329,4.329,0.0,0.0,0.0,0.0,0.0,4.329,4.329,4.329,4.329,4.329,4.329,4.329,4.329,4.329,4.329,4.329,4.329,4.329,4.329,4.329,4.329,4.329,4.329,4.329,4.329,4.329,4.329,4.329,4.329,4.329,4.329,4.329,4.329,4.3135,4.2925,4.2761,4.1998,4.1287,4.0846,4.0232,3.935,3.7985,3.7472,3.6593,3.491,3.4345,3.3839,3.3154,3.3124,3.3124,3.3124,3.3124,3.3124,3.3124,3.3124,3.3124,3.3124,3.3124,3.3124,3.3124,3.3124,3.3124,3.3124,3.3124,3.3124,3.3124,3.3124,3.3124,0.0,3.0045,3.1154,3.1227,3.0328,2.9472,2.9472,2.8498,0.0,2.76,2.76,2.76,2.766,2.7121,2.6926,2.769,2.8353,2.9475,0.0,3.3499,0.0,0.0,0.0,0.0,0.0,0.0,0.0,0.0,0.0,0.0,4.329,4.329,4.329,4.329,4.329,4.329,4.329,4.329,4.329,4.329,4.329,4.329,4.329,4.329,0.0,0.0,0.0,0.0,0.0,4.329,4.329,4.329,4.329,4.329,4.329,4.329,4.329,4.329,4.329,4.329,4.329,4.329,4.329,4.329,4.329,4.329,4.329,4.329,4.329,4.329,4.329,4.329,4.329,4.329,4.329,4.329,4.3245,4.2821,4.2581,4.305,4.2252,4.1452,4.1324,4.0763,3.9683,3.7967,3.6774,3.5734,3.4705,3.3713,3.3124,3.3124,3.3124,3.3124,3.3124,3.3124,3.3124,3.3124,3.3124,3.3124,3.3124,3.3124,3.3124,3.3124,3.3124,3.3124,3.3124,3.3124,3.3124,3.3124,3.3124,3.3124,2.4479,0.0,2.7861,2.8383,2.8304,2.8064,0.0,2.7824,2.76,2.76,2.76,2.7764,2.8263,2.7824,2.7899,2.9549,3.0387,3.1331,3.2826,0.0,0.0,0.0,0.0,0.0,0.0,0.0,0.0,0.0,0.0,4.329,0.0,4.329,4.329,4.329,4.329,4.329,4.329,4.329,4.329,4.329,4.329,4.329,4.329,4.329,4.329,0.0,0.0,0.0,4.329,4.329,4.329,4.329,4.329,4.329,4.329,4.329,4.329,4.329,4.329,4.329,4.329,4.329,4.329,4.329,4.329,4.329,4.329,4.329,4.329,4.329,4.329,4.329,4.329,4.329,4.329,4.3155,4.2701,4.2865,4.2851,4.1998,4.2036,4.1856,4.0801,3.9805,3.8587,3.6858,3.5722,3.4664,3.3598,3.3283,3.3124,3.3124,3.3124,3.3124,3.3124,3.3124,3.3124,3.3124,3.3124,3.3124,3.3124,3.3124,3.3124,3.3124,3.3124,3.3124,3.3124,3.3124,3.3124,3.3124,3.3124,3.3124,2.2436,2.4383,2.6201,2.6849,2.7225,2.7372,2.7078,2.7054,2.7061,2.6761,2.6677,2.6871,2.756,2.7405,2.7794,2.9759,3.0627,0.0,0.0,0.0,0.0,0.0,0.0,0.0,0.0,0.0,0.0,0.0,0.0,4.329,0.0,4.329,4.329,4.329,4.329,4.329,4.329,4.329,4.329,4.329,4.329,4.329,4.329,4.329,4.329,0.0,0.0,0.0,4.329,4.329,4.329,4.329,4.329,4.329,4.329,4.329,4.329,4.329,4.329,4.329,4.329,4.329,4.329,4.329,4.329,4.329,4.329,4.329,4.329,4.329,4.329,4.329,4.329,4.329,4.329,4.32,4.288,4.2611,4.2327,4.1946,4.1677,4.1235,4.0531,3.9905,3.8793,3.6531,3.5734,3.4843,3.3313,3.3124,3.3124,3.3124,3.3124,3.3124,3.3124,3.3124,3.3124,3.3124,3.3124,3.3124,3.3124,3.3124,3.3124,3.3124,3.3124,3.3124,3.3124,3.3124,3.3124,3.3124,3.3124,3.3124,2.151,2.3434,2.5204,2.5871,2.6667,2.7121,2.6463,2.6542,2.6572,2.6019,2.5914,2.6138,2.6916,2.7076,0.0,0.0,0.0,0.0,0.0,0.0,0.0,0.0,0.0,0.0,0.0,0.0,0.0,0.0,0.0,4.329,0.0,4.329,4.329,4.329,4.329,4.329,4.329,4.329,4.329,4.329,4.329,4.329,4.329,4.329,4.329,4.329,0.0,0.0,4.329,4.329,4.329,4.329,4.329,4.329,4.329,4.329,4.329,4.329,4.329,4.329,4.329,4.329,4.329,4.329,4.329,4.329,4.329,4.329,4.329,4.329,4.329,4.329,4.329,4.329,4.329,4.326,4.317,4.2402,4.1758,4.2051,4.1324,4.0606,4.0307,4.0211,3.9316,3.6819,3.6172,3.5346,3.3556,3.3197,3.3124,3.3124,3.3124,3.3124,3.3124,3.3124,3.3124,3.3124,3.3124,3.3124,3.3124,3.3124,3.3124,3.3124,3.3124,3.3124,3.3124,3.3124,3.3124,3.3124,3.3124,3.3124,2.1837,2.2881,2.3667,2.4559,2.6069,2.7148,2.6613,2.6986,2.742,2.7315,2.7285,2.7675,2.8918,2.9157,2.9786,0.0,0.0,0.0,0.0,0.0,0.0,0.0,0.0,0.0,0.0,0.0,0.0,0.0,0.0,0.0,0.0,4.329,4.329,4.329,4.329,4.329,4.329,4.329,4.329,4.329,4.329,4.329,4.329,4.329,4.329,4.329,0.0,4.329,4.329,4.329,4.329,4.329,4.329,4.329,4.329,4.329,4.329,4.329,4.329,4.329,4.329,4.329,4.329,4.329,4.329,4.329,4.329,4.329,4.329,4.329,4.329,4.329,4.329,4.329,4.329,4.314,4.2626,4.2791,4.2566,4.101,4.1482,4.1572,3.9858,3.9259,3.8717,3.7711,3.6041,3.4815,3.4511,3.367,3.3124,3.3124,3.3124,3.3124,3.3124,3.3124,3.3124,3.3124,3.3124,3.3124,3.3124,3.3124,3.3124,3.3124,3.3124,3.3124,3.3124,3.3124,3.3124,3.3124,3.3124,3.3124,2.0783,2.1602,2.2419,2.313,2.5527,2.7536,2.6919,2.7488,2.8049,2.7675,2.76,2.8004,0.0,0.0,3.0971,3.3694,0.0,0.0,0.0,0.0,0.0,0.0,0.0,0.0,0.0,0.0,0.0,0.0,0.0,0.0,0.0,0.0,4.329,4.329,4.329,4.329,4.329,4.329,4.329,4.329,4.329,4.329,4.329,4.329,4.329,4.329,0.0,4.329,4.329,4.329,4.329,4.329,4.329,4.329,4.329,4.329,4.329,4.329,4.329,4.329,4.329,4.329,4.329,4.329,4.329,4.329,4.329,4.329,4.329,4.329,4.329,4.329,4.329,4.329,4.329,4.32,4.2955,4.2851,4.2536,4.1624,4.1407,4.101,4.0113,3.9506,3.8808,3.791,3.6476,3.5319,3.4787,3.3755,3.3124,3.3124,3.3124,3.3124,3.3124,3.3124,3.3124,3.3124,3.3124,3.3124,3.3124,3.3124,3.3124,3.3124,3.3124,3.3124,3.3124,3.3124,3.3124,3.3124,3.3124,3.3275,1.9936,2.0666,2.1455,2.2133,2.4623,2.6903,2.6924,2.7797,2.853,2.8254,2.8476,2.9022,0.0,3.0941,0.0,3.5489,0.0,0.0,0.0,0.0,0.0,0.0,0.0,0.0,0.0,0.0,0.0,0.0,0.0,0.0,0.0,4.329,4.329,4.329,4.329,4.329,4.329,4.329,4.329,4.329,4.329,4.329,4.329,4.329,4.329,4.329,4.329,4.329,4.329,4.329,4.329,4.329,4.329,4.329,4.329,4.329,4.329,4.329,4.329,4.329,4.329,4.329,4.329,4.329,4.329,4.329,4.329,4.329,4.329,4.329,4.329,4.329,4.329,4.329,4.329,4.329,4.329,4.294,4.259,4.2425,4.1429,4.0576,4.0427,3.9858,3.9031,3.7956,3.6891,3.5854,3.4815,3.3755,3.3124,3.3124,3.3124,3.3124,3.3124,3.3124,3.3124,3.3124,3.3124,3.3124,3.3124,3.3124,3.3124,3.3124,3.3124,3.3124,3.3124,3.3124,3.3124,3.3124,3.3124,3.337,2.0352,2.0691,2.1006,2.2046,2.3018,2.4273,2.6253,2.7702,2.8841,2.9735,3.1101,3.2003,0.0,3.3424,3.5609,3.7045,0.0,0.0,0.0,0.0,0.0,0.0,0.0,0.0,0.0,0.0,0.0,0.0,0.0,0.0,4.329,4.329,4.329,4.329,4.329,4.329,4.329,4.329,4.329,4.329,4.329,4.329,4.329,4.329,4.329,4.329,4.329,4.329,4.329,4.329,4.329,4.329,4.329,4.329,4.329,4.329,4.329,4.329,4.329,4.329,4.329,4.329,4.329,4.329,4.329,4.329,4.329,4.329,4.329,4.329,4.329,4.329,4.329,4.329,4.329,4.329,4.329,4.326,4.309,4.2515,4.1826,4.1115,4.0502,3.9858,3.9031,3.7956,3.6891,3.5854,3.4815,3.3755,3.3124,3.3124,3.3124,3.3124,3.3124,3.3124,3.3124,3.3124,3.3124,3.3124,3.3124,3.3124,3.3124,3.3124,3.3124,3.3124,3.3124,3.3124,3.3124,3.3124,3.3124,3.337,1.9535,2.015,2.088,2.1606,2.2499,2.3936,2.6705,2.8893,3.0635,3.1625,3.3184,3.4173,0.0,0.0,3.6731,0.0,0.0,0.0,0.0,0.0,0.0,0.0,0.0,0.0,0.0,0.0,0.0,0.0,0.0,0.0,0.0,4.2342,4.2312,4.2716,4.2731,4.2925,4.329,4.329,4.329,4.329,4.329,4.329,4.329,4.329,4.329,4.329,4.329,4.329,4.329,4.329,4.329,4.329,4.329,4.329,4.329,4.329,4.329,4.329,4.329,4.329,4.329,4.329,4.329,4.329,4.329,4.329,4.329,4.329,4.329,4.329,4.329,4.329,4.329,4.329,4.329,4.329,4.329,4.329,4.3215,4.3015,4.2432,4.1701,4.069,3.995,3.9165,3.8018,3.6675,3.5636,3.5246,3.3973,3.3124,3.3124,3.3124,3.3124,3.3124,3.3124,3.3124,3.3124,3.3124,3.3124,3.3124,3.3124,3.3124,3.3124,3.3124,3.3124,3.3124,3.3124,3.3124,3.3124,3.3432,3.3884,1.9045,1.9698,2.0603,2.1333,2.2322,2.3876,2.6899,2.929,3.1218,3.2367,3.3725,3.4774,3.5083,0.0,0.0,0.0,0.0,0.0,0.0,0.0,0.0,0.0,0.0,0.0,0.0,0.0,0.0,0.0,0.0,0.0,0.0,4.1662,4.1632,4.2081,4.2096,4.2267,4.2716,4.2716,4.2716,4.2677,4.2372,4.258,4.329,4.329,4.329,4.329,4.329,4.329,4.329,4.329,4.329,4.329,4.329,4.329,4.325,4.29,4.2981,4.325,4.29,4.2981,4.329,4.329,4.329,4.329,4.329,4.329,4.329,4.329,4.329,4.329,4.329,4.329,4.329,4.329,4.329,4.329,4.329,4.329,4.329,4.329,4.25,4.1592,4.0732,3.9755,3.8666,3.7547,3.6463,3.5575,3.5063,3.401,3.3269,3.3136,3.3124,3.3124,3.3124,3.3124,3.3124,3.3124,3.3124,3.3124,3.3124,3.3124,3.3124,3.3124,3.3124,3.3124,3.3124,3.3124,3.3124,3.3093,3.3646,3.4198,1.9133,1.9384,2.0075,2.1204,2.2334,2.386,2.6653,2.8546,3.0166,3.1732,3.2494,3.3642,3.6056,3.5935,0.0,0.0,0.0,0.0,0.0,0.0,0.0,0.0,0.0,0.0,0.0,0.0,0.0,0.0,0.0,0.0,0.0,4.1354,4.1354,4.1369,4.1369,4.1369,4.1384,4.1384,4.1384,4.1384,4.0295,4.1046,4.3275,4.3275,4.3275,4.3275,4.3275,4.3275,4.3275,4.329,4.329,4.329,4.329,4.329,4.3155,4.2029,4.233,4.3115,4.1988,4.233,4.329,4.329,4.329,4.329,4.329,4.329,4.329,4.325,4.329,4.329,4.329,4.329,4.329,4.329,4.329,4.329,4.329,4.329,4.329,4.329,4.1818,4.061,4.057,3.9101,3.7532,3.6449,3.6318,3.5731,3.4092,3.3897,3.3684,3.3174,3.3124,3.3124,3.3124,3.3124,3.3124,3.3124,3.3124,3.3124,3.3124,3.3124,3.3124,3.3124,3.3124,3.3124,3.3124,3.3124,3.3124,3.3093,3.3646,3.4198,1.8569,1.9409,2.0704,2.1794,2.3778,2.59,2.7494,2.9106,3.1267,3.478,3.4663,3.4337,3.5824,0.0,0.0,0.0,0.0,0.0,0.0,0.0,0.0,0.0,0.0,0.0,0.0,0.0,0.0,0.0,0.0,0.0,0.0,3.8008,3.7965,3.8419,3.9169,3.9804,4.0281,4.0997,4.0997,4.0256,3.9967,4.0155,4.0865,4.0865,4.0865,4.0865,4.0865,4.1288,4.1998,4.2462,4.2446,4.2193,4.2981,4.2805,4.207,4.1726,4.1809,4.207,4.1726,4.1809,4.2249,4.3036,4.329,4.3155,4.233,4.2111,4.1947,4.1141,4.1476,4.2111,4.2111,4.2684,4.329,4.329,4.329,4.329,4.329,4.329,4.3076,4.2249,4.1649,4.08,3.9104,3.8397,3.7638,3.6524,3.6022,3.5301,3.4067,3.3558,3.3257,3.3136,3.3124,3.3124,3.3124,3.3124,3.3124,3.3124,3.3124,3.3124,3.3124,3.3124,3.3124,3.3124,3.3124,3.3124,3.3124,3.3124,3.3124,3.3106,3.4035,3.4562,1.9811,2.0727,2.202,2.3577,2.5255,2.6901,2.8423,0.0,0.0,0.0,3.4629,3.4072,3.54,3.5254,0.0,0.0,0.0,0.0,0.0,0.0,0.0,0.0,0.0,0.0,0.0,0.0,0.0,0.0,0.0,0.0,0.0,3.6656,3.6377,3.6804,3.7414,3.7951,3.8374,3.903,3.903,3.8374,3.7976,3.7789,3.7803,3.8738,3.9422,3.9794,3.9794,4.0309,4.1204,4.1602,4.1704,4.167,4.2371,4.1947,4.0873,4.0376,4.0504,4.0916,4.0916,4.1211,4.1809,4.2941,4.329,4.3155,4.2467,4.1932,4.1462,4.0788,4.0746,4.0916,4.0916,4.1767,4.2725,4.321,4.329,4.317,4.2725,4.2629,4.229,4.1127,4.0561,3.9757,3.8334,3.7723,3.7196,3.6499,3.5717,3.4931,3.4311,3.3558,3.3124,3.3124,3.3124,3.3124,3.3124,3.3124,3.3212,3.3382,3.3407,3.3407,3.3407,3.3194,3.3124,3.3124,3.3124,3.3124,3.3124,3.3124,3.3194,3.342,3.4311,3.4793,2.182,2.2531,2.3572,2.5921,2.665,0.0,2.9327,3.0583,3.1762,3.3342,0.0,3.3186,3.4858,0.0,0.0,0.0,0.0,0.0,0.0,0.0,0.0,0.0,0.0,0.0,0.0,0.0,0.0,0.0,0.0,0.0,0.0,3.6501,3.5934,3.5934,3.6013,3.6053,3.6053,3.6158,3.6158,3.6053,3.5129,3.4664,3.462,3.6852,3.8416,3.933,3.9409,3.9848,4.0478,4.0536,4.0843,4.1376,4.1433,4.0746,3.9579,3.8514,3.8783,3.9724,3.9724,4.049,4.1643,4.2765,4.321,4.329,4.317,4.2412,4.1545,4.1322,4.0604,3.9855,3.9768,4.0575,4.1726,4.2725,4.3076,4.286,4.1809,4.1504,4.1127,3.9972,3.8872,3.8062,3.7984,3.7103,3.6405,3.6405,3.5454,3.4763,3.468,3.3759,3.3124,3.3124,3.3124,3.3124,3.3124,3.3124,3.3319,3.3884,3.3985,3.401,3.3972,3.3445,3.3174,3.3124,3.3124,3.3124,3.3124,3.3174,3.3407,3.3909,3.4512,3.5019,2.0275,2.1393,0.0,2.5833,2.7819,2.9202,2.9679,3.0306,3.1115,3.2304,3.2405,3.27,0.0,0.0,0.0,0.0,0.0,0.0,0.0,0.0,0.0,0.0,0.0,0.0,0.0,0.0,0.0,0.0,0.0,0.0,3.5332,3.4345,3.3784,3.3784,3.4568,3.502,3.502,3.5814,3.5814,0.0,3.4787,3.4275,3.3484,3.4844,3.5558,3.5832,3.6652,3.7358,3.8027,3.842,3.8936,3.9535,4.0037,3.9536,3.8469,3.8198,3.8243,3.8514,3.8514,3.9271,4.0447,4.1601,4.2548,4.3115,4.2249,4.1809,4.1239,3.9376,3.9346,3.9681,3.8738,3.9346,4.0332,4.0589,4.1295,4.1891,4.1629,4.0916,3.9929,3.8738,3.8289,3.7802,3.693,3.6534,3.6405,3.6405,3.5713,3.5052,3.4763,3.3759,3.3124,3.3124,3.3124,3.3124,3.3124,3.3124,3.3413,3.4117,3.4695,3.4839,3.4562,3.401,3.352,3.3124,3.3124,3.3124,3.3124,3.3508,3.3784,3.3922,3.4868,3.5382,2.0715,2.2033,0.0,2.6553,0.0,2.9792,2.9792,3.0018,3.0363,3.0945,3.1449,0.0,0.0,0.0,0.0,0.0,0.0,0.0,0.0,0.0,0.0,0.0,0.0,0.0,0.0,0.0,0.0,0.0,0.0,3.415,3.4664,3.367,3.3124,3.3124,3.3641,3.3911,3.3911,3.4444,3.4444,3.3911,3.3911,3.3641,3.3154,3.4191,3.4428,3.3995,3.5047,3.6022,3.6903,3.7172,3.7603,3.8198,3.882,3.8129,3.6869,3.7186,3.7276,3.7368,3.7893,3.8872,4.0073,4.1211,4.2371,4.321,4.2589,4.1643,4.0532,3.9316,3.8617,3.8088,3.7461,3.8166,3.905,3.905,3.9915,4.0604,4.0031,3.9478,3.8693,3.7494,3.7276,3.7103,3.6499,3.6405,3.6405,3.6405,3.6078,3.5529,3.4813,3.4223,3.3658,3.3131,3.3124,3.3551,3.4607,3.4695,3.4708,3.4733,3.5097,3.5215,3.5069,3.4793,3.4424,3.3872,3.3872,3.3872,3.3872,3.4161,3.4424,3.47,3.5232,3.5633,2.1202,2.2924,2.4782,2.7444,2.8875,0.0,2.9767,2.9792,2.9792,2.9792,0.0,0.0,0.0,0.0,0.0,0.0,0.0,0.0,0.0,0.0,0.0,0.0,0.0,0.0,0.0,0.0,0.0,0.0,0.0,3.3556,3.4622,3.367,3.3124,3.3124,3.3124,3.3124,3.3124,3.3124,3.3124,3.3124,3.3124,3.3124,3.3111,3.4037,3.3953,3.3154,3.4037,3.5092,3.6174,3.6078,3.6503,3.7157,3.7513,3.6823,3.5683,3.6094,3.6267,3.6382,3.7247,3.8376,3.9646,4.0788,4.1983,4.3036,4.3036,4.1823,4.0375,3.9754,3.8347,3.6896,3.6499,3.7103,3.7802,3.7802,3.8559,3.9064,3.8289,3.7939,3.754,3.6581,3.6405,3.6405,3.6405,3.6405,3.6405,3.6405,3.6405,3.6078,3.5115,3.5002,3.465,3.3734,3.369,3.4431,3.6254,3.6405,3.6153,3.5537,3.55,3.5529,3.5633,3.5646,3.5466,3.5014,3.4813,3.468,3.468,3.4768,3.5056,3.5495,3.5596,3.5931,1.9233,0.0,2.5227,0.0,2.8574,2.9176,0.0,0.0,2.9792,0.0,0.0,0.0,0.0,0.0,0.0,0.0,0.0,0.0,0.0,0.0,0.0,0.0,0.0,0.0,0.0,0.0,0.0,0.0,3.3713,3.3556,3.4622,3.367,3.3124,3.3124,3.3124,3.3124,3.3124,3.3124,3.3124,3.3124,3.3124,3.3124,3.3124,3.324,3.324,3.3124,3.324,3.3917,3.4899,3.4425,3.5113,3.6389,3.5985,3.6033,3.6207,3.5805,3.5608,3.5592,3.5272,3.6231,3.7842,3.8985,4.0462,4.185,4.185,4.229,4.2208,3.92,3.8872,3.8975,3.6943,3.6499,3.6628,3.6628,3.6769,3.7116,3.7939,3.7322,3.6581,3.6452,3.6405,3.6405,3.6405,3.6405,3.6405,3.6405,3.6405,3.6355,3.6204,3.6191,3.6128,3.5977,3.5965,3.6091,3.638,3.6405,3.6367,3.6267,3.6267,3.6267,3.6304,3.6304,3.6267,3.6191,3.5203,3.468,3.468,3.5157,3.542,3.5508,3.6031,3.6329,2.0274,2.2543,2.4971,0.0,2.8511,2.9051,2.9666,0.0,2.9792,0.0,0.0,0.0,0.0,0.0,0.0,0.0,0.0,0.0,0.0,0.0,0.0,0.0,0.0,0.0,0.0,0.0,0.0,0.0,3.3356,3.3313,3.3797,3.3356,3.3124,3.3124,3.3124,3.3124,3.3124,3.3124,3.3124,3.3124,3.3124,3.3124,3.3124,3.3124,3.3124,3.3124,3.3124,3.3533,3.4268,3.4344,3.461,3.5007,3.5385,3.5316,3.4989,3.5064,3.5044,3.5006,3.4756,3.6007,3.7687,3.7601,3.9145,4.0931,4.0335,4.028,4.006,3.8545,3.803,3.7691,3.6675,3.6405,3.6405,3.6405,3.6405,3.6534,3.7023,3.6756,3.6405,3.6405,3.6405,3.6405,3.6405,3.6405,3.6405,3.6405,3.6405,3.6405,3.6405,3.6405,3.6405,3.6405,3.6405,3.6405,3.6405,3.6405,3.6405,3.6405,3.6405,3.6405,3.6405,3.6405,3.6405,3.6405,3.5893,3.5642,3.5642,3.5881,3.5994,3.6006,3.6304,3.6405,2.069,2.2297,2.3816,2.6578,2.7795,2.8524,0.0,0.0,0.0,0.0,0.0,0.0,0.0,0.0,0.0,0.0,0.0,0.0,0.0,0.0,0.0,0.0,0.0,0.0,0.0,0.0,0.0,0.0,3.3124,3.3124,3.3124,3.3124,3.3124,3.3124,3.3124,3.3124,3.3124,3.3124,3.3124,3.3124,3.3124,3.3124,3.3124,3.3124,3.3124,3.3124,3.3124,3.3307,3.3721,3.4135,3.4223,3.4173,3.4818,3.4876,3.4537,3.4675,3.468,3.4655,3.4562,3.5691,3.7095,3.6638,3.8051,3.9817,3.9009,3.8685,3.8424,3.7848,3.7289,3.6756,3.6499,3.6405,3.6405,3.6405,3.6405,3.6405,3.6405,3.6405,3.6405,3.6405,3.6405,3.6405,3.6405,3.6405,3.6405,3.6405,3.6405,3.6405,3.6405,3.6405,3.6405,3.6405,3.6405,3.6405,3.6405,3.6405,3.6405,3.6405,3.6405,3.6405,3.6405,3.6405,3.6405,3.6405,3.6405,3.6405,3.6405,3.6405,3.6405,3.6405,3.6405,3.6405,1.8694,1.9999,2.1534,2.4261,2.5799,0.0,0.0,0.0,0.0,0.0,0.0,0.0,0.0,0.0,0.0,0.0,0.0,0.0,0.0,0.0,0.0,0.0,0.0,0.0,0.0,0.0,0.0,0.0,3.3124,3.3124,3.3124,3.3124,3.3124,3.3124,3.3124,3.3124,3.3124,3.3124,3.3124,3.3124,3.3124,3.3124,3.3124,3.3124,3.3124,3.3124,3.3124,3.3136,3.3162,3.3156,3.3759,3.4625,3.4173,3.4901,3.6153,3.509,3.468,3.465,3.4123,3.4363,3.506,3.6144,3.7277,3.8235,3.8145,3.8934,3.9329,3.7116,3.7243,3.7756,3.6675,3.6405,3.6405,3.6405,3.6405,3.6405,3.6405,3.6405,3.6405,3.6405,3.6405,3.6405,3.6405,3.6405,3.6405,3.6405,3.6405,3.6405,3.6405,3.6405,3.6405,3.6405,3.6405,3.6405,3.6405,3.6405,3.6405,3.6405,3.6405,3.6405,3.6405,3.6405,3.6405,3.6405,3.6405,3.6405,3.6405,3.6405,3.6405,3.6405,3.6405,3.6405,1.8644,1.956,0.0,2.3108,2.4582,2.5749,2.7042,0.0,0.0,0.0,0.0,0.0,0.0,0.0,0.0,0.0,0.0,0.0,0.0,0.0,0.0,0.0,0.0,0.0,0.0,0.0,0.0,0.0,0.0,3.3124,3.3124,3.3124,3.3124,3.3124,3.3124,3.3124,3.3124,3.3124,3.3124,3.3124,3.3124,3.3124,3.3124,3.3124,3.3124,3.3124,3.3124,3.3124,3.3131,3.3847,3.4161,3.4211,3.4361,3.4788,3.5215,3.4474,3.4412,3.4655,3.45,3.4971,3.5675,3.5436,3.6282,3.7464,3.7553,3.7605,3.7645,3.7494,3.7289,3.6883,3.6499,3.6405,3.6581,3.7322,3.7678,3.7632,3.6628,3.6405,3.6405,3.6405,3.6405,3.6405,3.6405,3.6405,3.6405,3.6405,3.6405,3.6405,3.6405,3.6405,3.6405,3.6405,3.6405,3.6405,3.6405,3.6405,3.6405,3.6405,3.6405,3.6405,3.6405,3.6405,3.6405,3.6405,3.6405,3.6405,3.6405,3.6405,3.6405,3.6405,3.6405,3.6593,1.8017,1.882,0.0,0.0,0.0,2.4243,2.6311,0.0,0.0,0.0,0.0,0.0,0.0,0.0,0.0,0.0,0.0,0.0,0.0,0.0,0.0,0.0,0.0,0.0,0.0,0.0,0.0,0.0,0.0,0.0,3.3124,3.3124,3.3124,3.3124,3.3124,3.3124,3.3124,3.3124,3.3124,3.3124,3.3124,3.3124,3.3124,3.3124,3.3124,3.3124,3.3124,3.3124,3.3156,3.406,3.4336,3.4211,3.4575,3.4951,3.5203,3.465,3.4562,3.4751,3.4893,3.5334,3.567,3.514,3.5844,3.6936,3.7406,3.7025,3.6628,3.7756,3.754,3.6883,3.6499,3.6675,3.715,3.7939,3.8289,3.8107,3.6709,3.6405,3.6405,3.6405,3.6405,3.6405,3.6405,3.6405,3.6405,3.6405,3.6405,3.6405,3.6405,3.6405,3.6405,3.6405,3.6405,3.6405,3.6405,3.6405,3.6405,3.6405,3.6405,3.6405,3.6405,3.6405,3.6405,3.6405,3.6405,3.6405,3.6405,3.6405,3.6405,3.6405,3.6405,3.6807,0.0,0.0,0.0,0.0,0.0,0.0,0.0,0.0,0.0,0.0,0.0,0.0,0.0,0.0,0.0,0.0,0.0,0.0,0.0,0.0,0.0,0.0,0.0,0.0,0.0,0.0,0.0,0.0,3.3124,3.3124,3.3124,3.3124,3.3124,3.3124,3.3124,3.3124,3.3124,3.3124,3.3124,3.3124,3.3124,3.3124,3.3124,3.3124,3.3124,3.3124,3.3136,3.3106,3.3187,3.3696,3.4248,3.4705,3.4705,3.5416,3.6342,3.5696,3.5169,3.4806,3.5345,3.5169,3.4864,3.5357,3.5931,3.6628,3.7756,3.7276,3.6628,3.7756,3.8107,3.7848,3.6803,3.7322,3.8153,3.8153,3.8107,3.7802,3.6709,3.6452,3.6405,3.6405,3.6405,3.6405,3.6405,3.6405,3.6405,3.6405,3.6405,3.6405,3.6405,3.6405,3.6405,3.6405,3.6405,3.6405,3.6405,3.6405,3.6405,3.6405,3.6405,3.6405,3.6405,3.6405,3.6405,3.6405,3.6405,3.6405,3.6405,3.6405,3.6405,3.6405,3.643,3.6973,1.73,0.0,0.0,0.0,0.0,0.0,0.0,0.0,0.0,0.0,0.0,0.0,0.0,0.0,0.0,0.0,0.0,0.0,0.0,0.0,0.0,0.0,0.0,0.0,0.0,0.0,0.0,0.0,3.3124,3.3124,3.3124,3.3124,3.3124,3.3124,3.3124,3.3124,3.3124,3.3124,3.3124,3.3124,3.3124,3.3124,3.3124,3.3124,3.3124,3.3106,3.3495,3.3671,3.3721,3.4274,3.4768,3.527,3.527,3.5742,3.6342,3.5696,3.5705,3.5931,3.6081,3.6031,3.5931,3.6081,3.6279,3.6628,3.7756,3.7276,3.6628,3.7756,3.8107,3.8243,3.8796,3.9152,3.9404,3.9404,3.8961,3.8456,3.8107,3.7196,3.6405,3.6405,3.6405,3.6405,3.6405,3.6405,3.6405,3.6405,3.6405,3.6405,3.6405,3.6405,3.6405,3.6405,3.6405,3.6405,3.6405,3.6405,3.6405,3.6405,3.6405,3.6405,3.6405,3.6405,3.6405,3.6405,3.6405,3.6405,3.6405,3.6405,3.6405,3.6417,3.682,3.7337,1.794,1.8129,1.8656,0.0,0.0,0.0,0.0,2.2435,0.0,0.0,0.0,0.0,0.0,0.0,0.0,0.0,0.0,0.0,0.0,0.0,0.0,0.0,0.0,0.0,0.0,3.3124,3.3124,3.3124,3.3124,3.3124,3.3124,3.3124,3.3124,3.3124,3.3124,3.3124,3.3124,3.3124,3.3124,3.3124,3.3124,3.3124,3.3124,3.3124,3.3124,3.3136,3.342,3.3822,3.4274,3.4587,3.5006,3.552,3.5805,3.6081,3.6367,3.6006,3.5943,3.6056,3.6329,3.6267,3.6056,3.6329,3.6405,3.6722,3.8347,3.8043,3.7368,3.8514,3.8514,3.859,4.0746,4.0632,3.9986,4.0275,3.9522,3.8501,3.7893,3.7023,3.6405,3.6405,3.6405,3.6405,3.6405,3.6405,3.6405,3.6405,3.6405,3.6405,3.6405,3.6405,3.6405,3.6405,3.6405,3.6782,3.7725,3.6945,3.6405,3.6405,3.6405,3.6405,3.6405,3.6405,3.6405,3.6405,3.6405,3.6405,3.6405,3.6405,3.6405,3.6417,3.6923,3.7475,1.8756,1.8844,1.9422,2.0365,0.0,0.0,2.2686,2.2761,0.0,0.0,0.0,0.0,0.0,0.0,0.0,0.0,0.0,0.0,0.0,0.0,0.0,0.0,0.0,0.0,3.3124,3.3124,3.3124,3.3124,3.3124,3.3124,3.3124,3.3124,3.3124,3.3124,3.3124,3.3124,3.3124,3.3124,3.3124,3.3124,3.3124,3.3124,3.3124,3.3124,3.3124,3.3124,3.3144,3.3759,3.468,3.468,3.5031,3.5633,3.6169,3.6405,3.6405,3.6405,3.6056,3.5658,3.6194,3.6044,3.5671,3.6207,3.6499,3.6977,3.9064,3.8961,3.8334,3.9536,3.9227,3.9244,4.2467,4.1616,4.0073,4.0817,3.9669,3.8062,3.6709,3.6405,3.6405,3.6405,3.6405,3.6405,3.6405,3.6405,3.6405,3.6405,3.6405,3.6405,3.6405,3.6405,3.6405,3.6405,3.6631,3.7586,3.9521,3.7926,3.6669,3.643,3.6405,3.6405,3.6405,3.6405,3.6405,3.6405,3.6405,3.6405,3.6405,3.6405,3.6405,3.6417,3.6908,3.7425,2.039,2.0289,2.0314,2.0037,0.0,0.0,1.9998,2.0514,2.1421,0.0,0.0,0.0,0.0,0.0,0.0,0.0,0.0,0.0,0.0,0.0,0.0,0.0,0.0,0.0,3.3124,3.3124,3.3124,3.3124,3.3124,3.3124,3.3124,3.3124,3.3124,3.3124,3.3124,3.3124,3.3124,3.3124,3.3124,3.3124,3.3124,3.3124,3.3124,3.3124,3.3124,3.3106,3.3545,3.411,3.468,3.468,3.5303,3.6267,3.6367,3.6405,3.6405,3.6405,3.6342,3.6267,3.6367,3.6329,3.6267,3.6367,3.7023,3.7848,3.8289,3.8289,3.8334,3.9536,4.039,4.128,4.29,4.1616,4.0073,4.0817,3.8845,3.6756,3.6452,3.6405,3.6405,3.6405,3.6405,3.6405,3.6405,3.6405,3.6405,3.6405,3.6405,3.6405,3.6405,3.6405,3.6405,3.6405,3.7965,3.922,3.9659,3.9295,3.8278,3.6518,3.6405,3.6405,3.6405,3.6405,3.6405,3.6405,3.6405,3.6405,3.6405,3.6405,3.6405,3.6405,3.6518,3.7048,2.1333,2.1106,2.1106,2.1066,0.0,0.0,0.0,0.0,2.0715,2.2343,0.0,0.0,0.0,0.0,0.0,0.0,0.0,0.0,0.0,0.0,0.0,0.0,0.0,0.0,3.3124,3.3124,3.3124,3.3124,3.3124,3.3124,3.3124,3.3124,3.3124,3.3124,3.3124,3.3124,3.3124,3.3124,3.3124,3.3124,3.3124,3.3124,3.3124,3.3124,3.3124,3.3093,3.337,3.3809,3.4311,3.4311,3.4801,3.5579,3.5843,3.5793,3.5604,3.6204,3.6194,3.5994,3.6317,3.6405,3.6499,3.707,3.7632,3.8334,3.9508,3.9844,4.0074,4.1267,4.1601,4.185,4.2981,4.1864,4.0447,4.0447,3.8392,3.6405,3.6405,3.6405,3.6405,3.6405,3.6405,3.6405,3.6405,3.6405,3.6405,3.6405,3.6405,3.6405,3.6405,3.6405,3.6405,3.6405,3.741,3.8479,3.9597,3.9697,3.8743,3.6556,3.6405,3.6405,3.6405,3.6405,3.6405,3.6405,3.6405,3.6405,3.6405,3.6405,3.6405,3.6405,3.6405,3.6948,0.0,0.0,0.0,0.0,0.0,2.0828,0.0,0.0,0.0,2.2142,0.0,0.0,0.0,0.0,0.0,0.0,0.0,0.0,0.0,0.0,0.0,0.0,0.0,0.0,0.0,3.2667,3.2729,3.3099,3.278,3.2742,3.3056,3.3124,3.3124,3.3124,3.3124,3.3124,3.3124,3.3124,3.3124,3.3124,3.3124,3.3124,3.3124,3.3124,3.3124,3.3124,3.3124,3.3382,3.3884,3.3784,3.406,3.4613,3.5132,3.5132,3.4989,3.5881,3.5994,3.5768,3.6207,3.6534,3.6883,3.7802,3.8411,3.9112,4.1028,4.1767,4.207,4.2765,4.2467,4.2152,4.3076,4.2152,4.0817,4.0073,3.8088,3.6405,3.6405,3.7103,3.7461,3.6581,3.6405,3.6405,3.6405,3.6405,3.6405,3.6405,3.6405,3.6405,3.6405,3.6405,3.6405,3.6405,3.6405,3.7322,3.9496,3.9295,3.8278,3.6518,3.6405,3.6405,3.6405,3.6405,3.6405,3.6405,3.6405,3.6405,3.6405,3.6405,3.6405,3.6405,3.6518,3.7048,0.0,0.0,0.0,0.0,2.2924,0.0,0.0,0.0,2.1079,2.0338,0.0,0.0,0.0,0.0,0.0,0.0,0.0,0.0,0.0,0.0,0.0,0.0,0.0,0.0,0.0,3.116,3.1499,3.3011,3.1725,3.1537,3.3006,3.3124,3.3124,3.3124,3.3124,3.3124,3.3124,3.3124,3.3124,3.3124,3.3124,3.3124,3.3124,3.3124,3.3124,3.3124,3.3124,3.3382,3.3859,3.337,3.3495,3.4048,3.46,3.5031,3.542,3.5545,3.5906,3.6329,3.6392,3.707,3.7939,3.8062,3.9508,4.1239,4.1504,4.233,4.29,4.2029,4.2412,4.3155,4.325,4.2152,4.0817,4.0073,3.8088,3.6405,3.6405,3.9626,4.128,3.7196,3.6405,3.6405,3.6405,3.6405,3.6405,3.6405,3.6405,3.6405,3.6405,3.6405,3.6405,3.6405,3.6405,3.7322,3.9496,3.7877,3.6681,3.643,3.6405,3.6405,3.6405,3.6405,3.6405,3.6405,3.6405,3.6405,3.6405,3.6405,3.6405,3.6417,3.6908,3.7425,0.0,0.0,0.0,0.0,0.0,0.0,2.1192,0.0,2.0564,0.0,0.0,0.0,0.0,0.0,0.0,0.0,0.0,0.0,0.0,0.0,0.0,0.0,0.0,0.0,0.0,0.0,0.0,0.0,3.1173,3.1185,3.2503,3.2893,3.3124,3.3124,3.3124,3.3124,3.3124,3.3124,3.3124,3.3124,3.3124,3.3124,3.3124,3.3124,3.3124,3.3124,3.3124,3.3206,3.3407,3.3169,3.3407,3.3922,3.4161,3.4387,3.4713,3.5667,3.5968,3.6011,3.7034,3.7723,3.8334,3.9669,4.1239,4.2589,4.2589,4.29,4.321,4.2725,4.2941,4.3155,4.2508,4.233,4.2029,4.0817,3.8424,3.715,3.98,4.1932,4.1932,3.7276,3.6405,3.6405,3.6405,3.6405,3.6405,3.6405,3.6405,3.6405,3.6405,3.6405,3.6405,3.6405,3.6405,3.6795,3.7725,3.6945,3.6405,3.6405,3.6405,3.6405,3.6405,3.6405,3.6405,3.6405,3.6405,3.6405,3.6405,3.6405,3.6568,3.6895,3.7073,3.7663,2.546,0.0,0.0,0.0,0.0,0.0,0.0,0.0,0.0,0.0,0.0,0.0,0.0,0.0,0.0,0.0,0.0,0.0,0.0,0.0,0.0,0.0,0.0,0.0,0.0,0.0,0.0,0.0,0.0,3.0432,3.2127,3.2616,3.2918,3.3111,3.3124,3.3124,3.3124,3.3124,3.3124,3.3124,3.3124,3.3124,3.3124,3.3124,3.3124,3.3124,3.3124,3.3124,3.3124,3.3124,3.3319,3.3709,3.401,3.4123,3.4286,3.5642,3.6202,3.6381,3.7658,3.8501,3.9376,4.142,4.2629,4.329,4.329,4.329,4.329,4.329,4.329,4.3115,4.229,4.2371,4.2508,4.1809,3.9931,3.92,4.2548,4.329,4.1932,3.7276,3.6405,3.6405,3.6405,3.6405,3.6405,3.6405,3.6933,3.7109,3.648,3.6405,3.6405,3.6405,3.6405,3.6405,3.6405,3.6405,3.6405,3.6405,3.6405,3.6405,3.6405,3.6405,3.6405,3.6405,3.6405,3.6405,3.6405,3.6556,3.6872,3.7412,3.7412,3.7927,0.0,0.0,0.0,2.381,0.0,0.0,0.0,0.0,2.2083,0.0,0.0,0.0,0.0,0.0,0.0,0.0,0.0,0.0,0.0,0.0,0.0,0.0,0.0,0.0,0.0,0.0,0.0,0.0,0.0,0.0,3.2039,3.2227,3.2503,3.3056,3.3124,3.3124,3.3124,3.3124,3.3124,3.3124,3.3124,3.3124,3.3124,3.3124,3.3124,3.3124,3.3124,3.3124,3.3124,3.3124,3.3124,3.3206,3.4274,3.4655,3.4718,3.5307,3.6583,3.8036,3.8062,3.9596,4.167,4.286,4.325,4.329,4.329,4.329,4.329,4.329,4.329,4.329,4.325,4.2152,4.1462,4.29,4.3155,4.3115,4.325,4.329,4.1932,3.7276,3.6405,3.6405,3.6405,3.6405,3.6405,3.6405,3.8203,3.8806,3.6681,3.6405,3.6405,3.6405,3.6405,3.6405,3.6405,3.6405,3.6405,3.6405,3.6405,3.6405,3.6405,3.6405,3.6405,3.6405,3.6405,3.6405,3.6405,3.6945,3.7437,3.7977,3.7977,3.8304,0.0,0.0,2.7795,2.5372,0.0,0.0,0.0,0.0,0.0,0.0,0.0,0.0,0.0,0.0,0.0,0.0,0.0,0.0,0.0,0.0,0.0,0.0,0.0,0.0,0.0,0.0,0.0,0.0,2.8247,0.0,0.0,3.2485,3.3357,3.3552,3.459,3.5143,3.5143,3.5143,3.4802,3.415,3.415,3.3797,3.3124,3.3124,3.3471,3.4108,3.3398,3.3513,3.4108,3.3398,3.3294,3.3696,3.4437,3.4906,3.5295,3.5881,3.695,3.8334,3.9887,4.142,4.2805,4.3155,4.329,4.329,4.329,4.329,4.329,4.329,4.329,4.3115,4.2371,4.233,4.2467,4.2249,4.2765,4.329,4.329,4.0887,3.8289,3.6709,3.6405,3.6883,3.8316,3.8567,3.8114,3.6631,3.8266,3.9421,3.8668,3.7322,3.6405,3.6405,3.6405,3.6405,3.6405,3.6405,3.6568,3.6933,3.6619,3.6405,3.6405,3.6405,3.6405,3.6405,3.6405,3.6581,3.6958,3.7098,3.7663,3.858,3.858,3.8881,2.816,2.8511,0.0,2.6414,2.5649,0.0,2.2849,0.0,0.0,0.0,0.0,0.0,0.0,0.0,0.0,0.0,0.0,0.0,0.0,0.0,0.0,0.0,0.0,0.0,0.0,0.0,2.611,2.8096,0.0,0.0,0.0,0.0,3.3207,3.3793,3.4996,3.5854,3.6198,3.5854,3.5319,3.4705,3.4317,3.3755,3.3124,3.3124,3.367,3.4622,3.3556,3.3713,3.4664,3.3953,3.4003,3.4566,3.5085,3.5647,3.621,3.6806,3.7984,3.9626,4.1545,4.2684,4.329,4.329,4.329,4.329,4.329,4.329,4.329,4.329,4.329,4.3115,4.2412,4.2765,4.3115,4.2371,4.2765,4.3155,4.2589,3.9944,3.7381,3.6534,3.7059,3.8052,3.9446,3.9697,3.9207,3.7813,3.8768,3.9697,3.9697,3.8442,3.7586,3.7586,3.7586,3.7486,3.7174,3.6895,3.6857,3.7161,3.6719,3.6405,3.6405,3.6405,3.6405,3.6405,3.6606,3.6822,3.7186,3.7588,3.8165,3.8881,3.912,3.9358]}]]